ftp/pub/palmer/observations_modified/2019/November/original_files/AR191114_BASE.txt

Download

Sample DateTime	Unit Id	WS Avg 2min	WD Avg 2min	WGS 10min	WGD 10min	Air Temp	Rel Humidity	Dew Point	Pyranometer	Quantum	Air Pressure	Snow Level	Rainfall	PW Current	Visibility	CBase 1	CBase 2	CBase 3	Vert Vis
2019/11/14 00:00:00	BASE	12.87	338	14.61	331	-0.9	100	-0.9	15	0	978.9	NA	0.0000	UP	9999	0	0	0	1280
2019/11/14 00:01:00	BASE	12.46	336	14.61	331	-0.9	100	-0.9	15	0	978.9	NA	0.0000	UP	9999	0	0	0	1250
2019/11/14 00:02:00	BASE	11.65	334	14.61	331	-0.9	100	-0.9	15	0	978.9	NA	0.0000		9999	0	0	0	1210
2019/11/14 00:03:00	BASE	11.37	336	14.61	331	-0.9	100	-0.9	15	0	978.9	NA	0.0000		9999	0	0	0	1280
2019/11/14 00:04:00	BASE	11.32	337	14.61	331	-0.9	100	-0.9	14	0	978.9	NA	0.0000		9999	0	0	0	1150
2019/11/14 00:05:00	BASE	11.18	336	14.61	331	-0.9	100	-0.9	14	0	978.9	NA	0.0000		9999	0	0	0	1120
2019/11/14 00:06:00	BASE	11.28	335	14.61	331	-0.9	100	-0.9	14	0	978.9	NA	0.0000		9999	0	0	0	1180
2019/11/14 00:07:00	BASE	11.38	335	14.61	331	-0.9	100	-0.9	13	0	978.9	NA	0.0000		9999	0	0	0	1280
2019/11/14 00:08:00	BASE	11.26	335	14.25	339	-0.9	100	-0.9	13	0	978.9	NA	0.0000		9999	0	0	0	1280
2019/11/14 00:09:00	BASE	11.60	334	13.94	339	-0.9	100	-0.9	12	0	978.9	NA	0.0000		9999	0	0	0	1280
2019/11/14 00:10:00	BASE	12.28	335	13.89	332	-0.9	100	-0.9	12	0	978.9	NA	0.2540		9999	0	0	0	1020
2019/11/14 00:11:00	BASE	12.65	334	13.89	332	-0.9	100	-0.9	11	0	978.9	NA	0.0000		9999	230	0	0	0
2019/11/14 00:12:00	BASE	12.51	331	14.40	329	-0.9	100	-0.9	11	0	978.9	NA	0.0000		9999	230	0	0	0
2019/11/14 00:13:00	BASE	13.20	333	15.28	344	-0.9	100	-0.9	10	0	978.8	NA	0.0000		9999	230	0	0	0
2019/11/14 00:14:00	BASE	13.91	332	15.28	344	-0.9	100	-0.9	10	0	978.9	NA	0.0000		9999	230	0	0	0
2019/11/14 00:15:00	BASE	13.82	332	15.28	333	-0.8	100	-0.8	10	0	978.9	NA	0.0000		9999	0	0	0	980
2019/11/14 00:16:00	BASE	13.69	332	15.28	333	-0.8	100	-0.8	9	0	978.9	NA	0.0000		9999	230	0	0	0
2019/11/14 00:17:00	BASE	13.83	332	15.28	333	-0.8	100	-0.8	9	0	978.9	NA	0.0000		9999	260	0	0	0
2019/11/14 00:18:00	BASE	14.34	333	15.84	333	-0.8	100	-0.8	9	0	978.8	NA	0.0000		9999	260	0	0	0
2019/11/14 00:19:00	BASE	14.90	332	15.84	333	-0.8	100	-0.8	9	0	978.9	NA	0.0000		9999	260	0	0	0
2019/11/14 00:20:00	BASE	14.79	331	15.84	333	-0.8	100	-0.8	9	0	978.9	NA	0.0000		9999	260	0	0	0
2019/11/14 00:21:00	BASE	14.24	331	15.84	333	-0.8	100	-0.8	8	0	978.9	NA	0.0000		9999	300	0	0	0
2019/11/14 00:22:00	BASE	14.10	331	15.84	333	-0.8	100	-0.8	8	0	978.9	NA	0.0000		9999	300	0	0	0
2019/11/14 00:23:00	BASE	13.89	331	15.84	333	-0.8	100	-0.8	8	0	978.9	NA	0.0000		9999	260	0	0	0
2019/11/14 00:24:00	BASE	13.55	332	15.84	333	-0.8	100	-0.8	8	0	979.0	NA	0.0000		9999	300	0	0	0
2019/11/14 00:25:00	BASE	13.43	330	15.84	333	-0.8	100	-0.8	7	0	979.0	NA	0.0000		9999	300	0	0	0
2019/11/14 00:26:00	BASE	13.10	330	15.84	333	-0.8	100	-0.8	7	0	979.0	NA	0.0000		9999	300	0	0	0
2019/11/14 00:27:00	BASE	12.78	330	15.84	333	-0.8	100	-0.8	7	0	979.0	NA	0.0000		9999	300	0	0	0
2019/11/14 00:28:00	BASE	12.65	329	15.69	331	-0.8	100	-0.8	6	0	979.0	NA	0.0000		9999	330	0	0	0
2019/11/14 00:29:00	BASE	12.74	329	15.69	331	-0.8	100	-0.8	6	0	979.0	NA	0.0000		9999	330	0	0	0
2019/11/14 00:30:00	BASE	12.97	329	15.28	327	-0.8	100	-0.8	5	0	979.0	NA	0.0000		9999	300	0	0	0
2019/11/14 00:31:00	BASE	12.46	330	15.28	327	-0.8	100	-0.8	5	0	979.0	NA	0.0000		9999	300	0	0	0
2019/11/14 00:32:00	BASE	11.91	331	14.97	330	-0.8	100	-0.8	5	0	979.0	NA	0.0000		9999	300	0	0	0
2019/11/14 00:33:00	BASE	12.30	331	14.61	330	-0.8	100	-0.8	5	0	979.0	NA	0.0000		9999	300	0	0	0
2019/11/14 00:34:00	BASE	12.62	332	14.61	330	-0.8	100	-0.8	5	0	979.0	NA	0.0000		9999	300	0	0	0
2019/11/14 00:35:00	BASE	12.50	331	14.61	330	-0.8	100	-0.8	4	0	979.0	NA	0.0000		9000	260	0	0	0
2019/11/14 00:36:00	BASE	12.45	330	14.61	330	-0.8	100	-0.8	4	0	979.0	NA	0.0000	UP	9000	260	0	0	0
2019/11/14 00:37:00	BASE	11.92	329	14.35	327	-0.8	100	-0.8	4	0	979.1	NA	0.0000	UP	8000	260	0	0	0
2019/11/14 00:38:00	BASE	11.30	330	14.35	327	-0.8	100	-0.8	4	0	979.1	NA	0.0000	UP	9000	260	0	0	0
2019/11/14 00:39:00	BASE	11.16	331	14.35	327	-0.8	100	-0.8	4	0	979.1	NA	0.0000	UP BR	9999	260	0	0	0
2019/11/14 00:40:00	BASE	11.43	330	13.74	326	-0.8	100	-0.8	4	0	979.1	NA	0.0000	UP BR	9999	260	0	0	0
2019/11/14 00:41:00	BASE	11.50	328	13.74	326	-0.8	100	-0.8	3	0	979.1	NA	0.0000	UP BR	9000	260	0	0	0
2019/11/14 00:42:00	BASE	10.89	329	13.74	326	-0.8	100	-0.8	3	0	979.2	NA	0.0000	UP BR	9999	300	0	0	0
2019/11/14 00:43:00	BASE	10.74	331	13.74	326	-0.8	100	-0.8	3	0	979.2	NA	0.0000	UP BR	9000	300	0	0	0
2019/11/14 00:44:00	BASE	10.90	332	13.74	326	-0.7	100	-0.7	3	0	979.2	NA	0.0000	UP BR	9000	300	0	0	0
2019/11/14 00:45:00	BASE	11.04	332	13.58	324	-0.7	100	-0.7	3	0	979.2	NA	0.0000	UP BR	9000	260	0	0	0
2019/11/14 00:46:00	BASE	10.94	332	12.91	330	-0.8	100	-0.8	3	0	979.2	NA	0.0000	UP BR	9000	260	0	0	0
2019/11/14 00:47:00	BASE	10.53	331	12.91	330	-0.8	100	-0.8	3	0	979.2	NA	0.0000	UP BR	8000	300	0	0	0
2019/11/14 00:48:00	BASE	10.41	330	12.91	330	-0.8	100	-0.8	3	0	979.2	NA	0.0000	UP BR	8000	260	0	0	0
2019/11/14 00:49:00	BASE	10.22	330	12.91	330	-0.8	100	-0.8	3	0	979.2	NA	0.0000	UP BR	9000	230	0	0	0
2019/11/14 00:50:00	BASE	10.06	328	12.45	329	-0.8	100	-0.8	3	0	979.2	NA	0.0000	UP BR	9000	0	0	0	690
2019/11/14 00:51:00	BASE	9.89	328	12.35	328	-0.8	100	-0.8	3	0	979.2	NA	0.0000	UP BR	9000	0	0	0	720
2019/11/14 00:52:00	BASE	9.99	327	12.35	328	-0.8	100	-0.8	3	0	979.3	NA	0.0000	UP BR	9000	260	0	0	0
2019/11/14 00:53:00	BASE	9.94	326	12.35	328	-0.8	100	-0.8	3	0	979.3	NA	0.0000	UP BR	9000	230	0	0	0
2019/11/14 00:54:00	BASE	9.86	325	12.35	328	-0.8	100	-0.8	3	0	979.3	NA	0.0000	UP BR	8000	0	0	0	790
2019/11/14 00:55:00	BASE	10.02	327	11.73	327	-0.8	100	-0.8	3	0	979.3	NA	0.0000	UP BR	6000	260	0	0	0
2019/11/14 00:56:00	BASE	9.90	330	11.73	327	-0.8	100	-0.8	3	0	979.3	NA	0.0000	UP BR	7000	260	0	0	0
2019/11/14 00:57:00	BASE	9.51	331	11.47	326	-0.8	100	-0.8	3	0	979.4	NA	0.0000	UP BR	8000	0	0	0	720
2019/11/14 00:58:00	BASE	9.56	329	11.47	326	-0.8	100	-0.8	3	0	979.4	NA	0.0000	UP BR	5000	0	0	0	750
2019/11/14 00:59:00	BASE	9.34	326	11.47	326	-0.8	100	-0.8	3	0	979.5	NA	0.0000	UP BR	3700	0	0	0	790
2019/11/14 01:00:00	BASE	8.93	324	11.47	326	-0.8	100	-0.8	2	0	979.5	NA	0.0000	UP BR	3800	0	0	0	720
2019/11/14 01:01:00	BASE	8.86	324	11.42	323	-0.8	100	-0.8	2	0	979.5	NA	0.0000	UP BR	3200	0	0	0	820
2019/11/14 01:02:00	BASE	8.60	324	10.80	318	-0.8	100	-0.8	2	0	979.5	NA	0.0000	UP BR	3800	0	0	0	790
2019/11/14 01:03:00	BASE	8.25	324	10.80	318	-0.8	100	-0.8	2	0	979.5	NA	0.0000	UP BR	2500	0	0	0	660
2019/11/14 01:04:00	BASE	8.36	324	10.60	325	-0.8	100	-0.8	2	0	979.5	NA	0.0000	UP BR	2200	0	0	0	690
2019/11/14 01:05:00	BASE	8.49	324	10.55	333	-0.8	100	-0.8	2	0	979.6	NA	0.0000	UP BR	2600	0	0	0	790
2019/11/14 01:06:00	BASE	8.12	325	10.19	326	-0.8	100	-0.8	2	0	979.6	NA	0.0000	UP BR	2400	0	0	0	790
2019/11/14 01:07:00	BASE	8.21	321	10.19	326	-0.8	100	-0.8	1	0	979.6	NA	0.0000	UP BR	2000	0	0	0	890
2019/11/14 01:08:00	BASE	8.12	319	10.13	329	-0.9	100	-0.9	1	0	979.6	NA	0.0000	UP BR	1900	0	0	0	890
2019/11/14 01:09:00	BASE	7.94	321	10.13	329	-0.9	100	-0.9	1	0	979.7	NA	0.0000	UP BR	2700	0	0	0	850
2019/11/14 01:10:00	BASE	7.81	324	9.52	323	-0.9	100	-0.9	1	0	979.7	NA	0.0000	UP BR	3900	0	0	0	750
2019/11/14 01:11:00	BASE	7.47	325	9.21	326	-0.9	100	-0.9	1	0	979.7	NA	0.0000	UP BR	3900	0	0	0	790
2019/11/14 01:12:00	BASE	7.61	323	9.11	318	-0.9	100	-0.9	1	0	979.8	NA	0.0000	UP BR	4000	0	0	0	850
2019/11/14 01:13:00	BASE	7.97	323	9.11	318	-0.9	100	-0.9	1	0	979.8	NA	0.0000	UP BR	3400	0	0	0	720
2019/11/14 01:14:00	BASE	8.03	320	9.11	318	-0.9	100	-0.9	1	0	979.8	NA	0.0000	UP BR	3600	260	0	0	0
2019/11/14 01:15:00	BASE	7.47	319	9.11	318	-0.9	100	-0.9	1	0	979.8	NA	0.0000	UP BR	4200	0	0	0	690
2019/11/14 01:16:00	BASE	7.36	318	9.11	318	-0.9	100	-0.9	1	0	979.8	NA	0.0000	UP BR	4800	260	0	0	0
2019/11/14 01:17:00	BASE	7.65	319	9.16	314	-0.9	100	-0.9	1	0	979.8	NA	0.0000	UP BR	4800	260	0	0	0
2019/11/14 01:18:00	BASE	8.15	315	10.13	315	-0.9	100	-0.9	1	0	979.8	NA	0.0000	UP BR	4800	260	0	0	0
2019/11/14 01:19:00	BASE	8.80	313	10.13	315	-0.9	100	-0.9	1	0	979.8	NA	0.0000	UP BR	4800	330	0	0	0
2019/11/14 01:20:00	BASE	8.75	315	10.13	315	-0.9	100	-0.9	1	0	979.9	NA	0.0000	UP BR	6000	260	0	0	0
2019/11/14 01:21:00	BASE	8.14	314	10.13	315	-0.9	100	-0.9	1	0	979.9	NA	0.0000	UP BR	6000	260	0	0	0
2019/11/14 01:22:00	BASE	7.72	312	10.13	315	-0.9	100	-0.9	0	0	979.9	NA	0.0000	UP BR	6000	300	0	0	0
2019/11/14 01:23:00	BASE	7.85	309	10.13	315	-0.9	100	-0.9	1	0	979.9	NA	0.0000	UP BR	6000	260	0	0	0
2019/11/14 01:24:00	BASE	7.70	306	10.13	315	-0.9	100	-0.9	0	0	980.0	NA	0.0000	UP BR	6000	260	0	0	0
2019/11/14 01:25:00	BASE	7.74	308	10.13	315	-0.9	100	-0.9	0	0	980.0	NA	0.0000	UP BR	6000	260	0	0	0
2019/11/14 01:26:00	BASE	7.60	310	10.13	315	-0.9	100	-0.9	0	0	980.1	NA	0.0000	UP BR	4900	230	0	0	0
2019/11/14 01:27:00	BASE	7.09	307	10.13	315	-0.9	100	-0.9	0	0	980.1	NA	0.0000	UP BR	4100	0	0	0	790
2019/11/14 01:28:00	BASE	7.10	303	9.67	321	-0.9	100	-0.9	0	0	980.1	NA	0.0000	UP BR	2300	0	0	0	890
2019/11/14 01:29:00	BASE	7.50	303	9.77	294	-0.9	100	-0.9	0	0	980.1	NA	0.0000	UP BR	1700	0	0	0	890
2019/11/14 01:30:00	BASE	7.58	304	9.77	294	-0.9	100	-0.9	0	0	980.1	NA	0.0000	-SN BR	2800	0	0	0	920
2019/11/14 01:31:00	BASE	7.56	301	9.77	294	-0.9	100	-0.9	0	0	980.1	NA	0.0000	-SN BR	3500	300	0	0	0
2019/11/14 01:32:00	BASE	7.49	300	9.77	294	-0.9	100	-0.9	0	0	980.1	NA	0.0000	-SN BR	9999	360	0	0	0
2019/11/14 01:33:00	BASE	7.70	302	9.77	294	-0.9	100	-0.9	0	0	980.1	NA	0.0000	-SN BR	9999	390	0	0	0
2019/11/14 01:34:00	BASE	7.80	301	9.77	294	-0.9	100	-0.9	0	0	980.2	NA	0.0000	-SN BR	9999	460	0	0	0
2019/11/14 01:35:00	BASE	7.75	302	9.77	294	-0.9	100	-0.9	0	0	980.2	NA	0.0000	-SN BR	9999	520	0	0	0
2019/11/14 01:36:00	BASE	7.49	301	9.77	294	-0.9	100	-0.9	0	0	980.2	NA	0.0000	-SN BR	9999	490	0	0	0
2019/11/14 01:37:00	BASE	7.00	301	9.77	294	-0.9	100	-0.9	0	0	980.2	NA	0.0000	-SN BR	9999	460	0	0	0
2019/11/14 01:38:00	BASE	7.77	301	10.24	301	-0.9	100	-0.9	0	0	980.2	NA	0.0000	-SN BR	9999	520	0	0	0
2019/11/14 01:39:00	BASE	8.28	296	10.24	301	-0.9	100	-0.9	0	0	980.3	NA	0.0000	-SN BR	9999	520	0	0	0
2019/11/14 01:40:00	BASE	7.81	297	10.24	301	-1.0	100	-1.0	0	0	980.3	NA	0.0000	-SN BR	9999	520	0	0	0
2019/11/14 01:41:00	BASE	7.09	298	10.24	301	-1.0	100	-1.0	0	0	980.3	NA	0.0000		9999	520	0	0	0
2019/11/14 01:42:00	BASE	7.05	297	10.24	301	-1.0	100	-1.0	0	0	980.3	NA	0.0000		9999	520	0	0	0
2019/11/14 01:43:00	BASE	7.72	297	10.24	301	-1.0	100	-1.0	0	0	980.3	NA	0.0000		9999	520	0	0	0
2019/11/14 01:44:00	BASE	8.70	296	10.24	301	-1.0	100	-1.0	0	0	980.3	NA	0.0000		9999	490	0	0	0
2019/11/14 01:45:00	BASE	8.70	294	10.24	301	-1.0	100	-1.0	0	0	980.3	NA	0.0000		9999	490	0	0	0
2019/11/14 01:46:00	BASE	7.58	294	10.24	301	-1.0	100	-1.0	0	0	980.3	NA	0.0000		9999	490	0	0	0
2019/11/14 01:47:00	BASE	7.27	295	10.24	301	-1.0	100	-1.0	0	0	980.4	NA	0.0000		9999	490	0	0	0
2019/11/14 01:48:00	BASE	7.63	296	9.77	292	-1.0	100	-1.0	0	0	980.4	NA	0.0000		9999	460	0	0	0
2019/11/14 01:49:00	BASE	7.82	295	9.77	292	-1.0	100	-1.0	0	0	980.4	NA	0.0000		9999	460	0	0	0
2019/11/14 01:50:00	BASE	7.89	290	9.77	292	-1.0	100	-1.0	0	0	980.4	NA	0.0000		9999	430	0	0	0
2019/11/14 01:51:00	BASE	7.80	291	9.77	292	-1.0	100	-1.0	0	0	980.4	NA	0.0000		9999	390	0	0	0
2019/11/14 01:52:00	BASE	7.43	292	9.77	292	-1.0	100	-1.0	0	0	980.4	NA	0.0000		9999	360	0	0	0
2019/11/14 01:53:00	BASE	7.58	290	9.77	292	-1.0	100	-1.0	0	0	980.4	NA	0.0000		9999	330	0	0	0
2019/11/14 01:54:00	BASE	8.43	292	9.72	295	-1.0	100	-1.0	0	0	980.4	NA	0.0000		9999	330	0	0	0
2019/11/14 01:55:00	BASE	9.45	292	12.19	287	-1.0	100	-1.0	0	0	980.4	NA	0.0000		9999	330	0	0	0
2019/11/14 01:56:00	BASE	9.65	288	12.19	287	-1.0	100	-1.0	0	0	980.4	NA	0.0000		9999	300	0	0	0
2019/11/14 01:57:00	BASE	8.58	288	12.19	287	-1.0	100	-1.0	0	0	980.4	NA	0.0000		9999	260	0	0	0
2019/11/14 01:58:00	BASE	7.97	290	12.19	287	-1.0	100	-1.0	0	0	980.5	NA	0.0000		9999	230	0	0	0
2019/11/14 01:59:00	BASE	7.19	291	12.19	287	-0.9	100	-0.9	0	0	980.5	NA	0.0000		9999	230	0	0	0
2019/11/14 02:00:00	BASE	6.85	294	12.19	287	-0.9	100	-0.9	0	0	980.5	NA	0.0000		9999	0	0	0	690
2019/11/14 02:01:00	BASE	7.41	292	12.19	287	-0.9	100	-0.9	0	0	980.6	NA	0.0000		9999	200	0	0	0
2019/11/14 02:02:00	BASE	7.64	292	12.19	287	-0.9	100	-0.9	0	0	980.5	NA	0.0000		9999	230	0	0	0
2019/11/14 02:03:01	BASE	8.58	292	12.19	287	-0.9	100	-0.9	0	0	980.5	NA	0.0000		9999	0	0	0	660
2019/11/14 02:04:00	BASE	10.20	287	12.19	287	-0.9	100	-0.9	0	0	980.5	NA	0.0000		9999	0	0	0	720
2019/11/14 02:05:00	BASE	11.29	282	12.81	282	-0.9	100	-0.9	0	0	980.5	NA	0.0000		9999	230	0	0	0
2019/11/14 02:06:00	BASE	11.15	276	12.81	282	-1.0	100	-1.0	0	0	980.5	NA	0.0000		9999	260	0	0	0
2019/11/14 02:07:00	BASE	9.61	271	12.81	282	-1.1	100	-1.1	0	0	980.7	NA	0.0000		9999	300	0	0	0
2019/11/14 02:08:00	BASE	8.80	276	12.81	282	-1.1	100	-1.1	0	0	980.6	NA	0.0000		9999	360	0	0	0
2019/11/14 02:09:00	BASE	9.22	277	12.81	282	-1.2	100	-1.2	0	0	980.6	NA	0.0000		9999	390	0	0	0
2019/11/14 02:10:00	BASE	9.27	273	12.81	282	-1.3	100	-1.3	0	0	980.7	NA	0.0000		9999	430	0	0	0
2019/11/14 02:11:00	BASE	9.07	274	12.81	282	-1.4	100	-1.4	0	0	980.7	NA	0.0000		9999	390	0	0	0
2019/11/14 02:12:00	BASE	8.78	275	12.81	282	-1.5	100	-1.5	0	0	980.7	NA	0.0000		9999	390	0	0	0
2019/11/14 02:13:00	BASE	9.19	273	12.81	282	-1.6	100	-1.6	0	0	980.7	NA	0.0000		9999	430	0	0	0
2019/11/14 02:14:00	BASE	8.80	272	12.81	282	-1.6	100	-1.6	0	0	980.8	NA	0.0000		9999	430	0	0	0
2019/11/14 02:15:00	BASE	8.45	269	12.76	272	-1.7	100	-1.7	0	0	980.8	NA	0.0000		9999	490	0	0	0
2019/11/14 02:16:00	BASE	9.09	275	11.32	266	-1.7	100	-1.7	0	0	980.8	NA	0.0000		9999	590	0	0	0
2019/11/14 02:17:00	BASE	9.12	277	11.32	266	-1.7	100	-1.7	0	0	980.8	NA	0.0000		9999	590	0	0	0
2019/11/14 02:18:00	BASE	8.89	273	11.32	266	-1.7	100	-1.7	0	0	980.9	NA	0.0000		9999	430	0	0	0
2019/11/14 02:19:00	BASE	8.02	277	11.32	266	-1.7	100	-1.7	0	0	980.9	NA	0.0000		9999	430	0	0	0
2019/11/14 02:20:00	BASE	6.94	284	11.01	282	-1.7	100	-1.7	0	0	980.8	NA	0.0000		9999	390	0	0	0
2019/11/14 02:21:00	BASE	7.49	287	11.32	281	-1.7	100	-1.7	0	0	980.8	NA	0.0000		9999	460	0	0	0
2019/11/14 02:22:00	BASE	8.98	285	11.32	281	-1.7	100	-1.7	0	0	980.8	NA	0.0000		9999	490	0	0	0
2019/11/14 02:23:00	BASE	9.53	280	13.07	273	-1.7	100	-1.7	0	0	980.8	NA	0.0000		9999	560	0	0	0
2019/11/14 02:24:00	BASE	10.24	278	13.07	273	-1.7	100	-1.7	0	0	980.8	NA	0.0000		9999	660	0	0	0
2019/11/14 02:25:00	BASE	10.64	280	13.07	273	-1.8	100	-1.8	0	0	980.8	NA	0.0000		9999	660	0	0	0
2019/11/14 02:26:00	BASE	9.71	284	13.07	273	-1.8	100	-1.8	0	0	980.8	NA	0.0000		9999	690	0	0	0
2019/11/14 02:27:00	BASE	10.39	283	13.07	273	-1.8	100	-1.8	0	0	980.8	NA	0.0000		9999	720	0	0	0
2019/11/14 02:28:00	BASE	10.72	278	13.07	273	-1.9	100	-1.9	0	0	980.8	NA	0.0000		9999	690	1480	0	0
2019/11/14 02:29:00	BASE	9.95	279	13.07	273	-1.9	100	-1.9	0	0	980.8	NA	0.0000		9999	720	1570	0	0
2019/11/14 02:30:00	BASE	10.39	282	13.07	273	-1.9	100	-1.9	0	0	980.8	NA	0.0000		9999	790	1640	0	0
2019/11/14 02:31:00	BASE	10.99	280	13.07	273	-2.0	100	-2.0	0	0	980.8	NA	0.0000		9999	750	0	0	0
2019/11/14 02:32:00	BASE	11.12	280	13.07	273	-2.0	100	-2.0	0	0	980.8	NA	0.0000		9999	790	1710	0	0
2019/11/14 02:33:00	BASE	10.67	282	13.07	273	-2.0	100	-2.0	0	0	980.8	NA	0.0000		9999	750	0	0	0
2019/11/14 02:34:00	BASE	10.16	281	12.55	284	-2.1	100	-2.1	0	0	980.9	NA	0.0000		9999	890	0	0	0
2019/11/14 02:35:00	BASE	8.99	283	12.55	284	-2.1	100	-2.1	0	0	980.9	NA	0.0000		9999	720	0	0	0
2019/11/14 02:36:00	BASE	8.30	285	12.55	284	-2.1	100	-2.1	0	0	980.9	NA	0.0000		9999	690	0	0	0
2019/11/14 02:37:00	BASE	9.13	280	12.55	284	-2.1	100	-2.1	0	0	980.8	NA	0.0000		9999	820	0	0	0
2019/11/14 02:38:00	BASE	9.29	278	12.55	284	-2.1	100	-2.1	0	0	980.9	NA	0.0000		9999	750	0	0	0
2019/11/14 02:39:00	BASE	8.35	281	12.55	284	-2.1	100	-2.1	0	0	980.9	NA	0.0000		9999	720	0	0	0
2019/11/14 02:40:00	BASE	7.98	286	12.14	265	-2.1	100	-2.1	0	0	980.9	NA	0.0000		9999	620	0	0	0
2019/11/14 02:41:00	BASE	8.64	291	11.99	280	-2.1	100	-2.1	0	0	980.9	NA	0.0000		9999	490	0	0	0
2019/11/14 02:42:00	BASE	9.90	288	11.99	280	-2.1	100	-2.1	0	0	980.9	NA	0.0000		9999	430	0	0	0
2019/11/14 02:43:00	BASE	10.84	282	12.66	284	-2.1	100	-2.1	0	0	980.9	NA	0.0000		9999	430	0	0	0
2019/11/14 02:44:00	BASE	11.12	282	12.66	284	-2.2	100	-2.2	0	0	980.9	NA	0.0000		9999	590	0	0	0
2019/11/14 02:45:00	BASE	10.60	279	12.66	284	-2.2	100	-2.2	0	0	981.0	NA	0.0000		9999	590	0	0	0
2019/11/14 02:46:00	BASE	9.27	282	12.66	284	-2.2	100	-2.2	0	0	981.0	NA	0.0000		9999	560	0	0	0
2019/11/14 02:47:00	BASE	9.42	283	12.66	284	-2.3	100	-2.3	0	0	981.0	NA	0.0000		9999	560	0	0	0
2019/11/14 02:48:00	BASE	10.08	282	12.66	284	-2.3	100	-2.3	0	0	981.0	NA	0.0000		9999	560	0	0	0
2019/11/14 02:49:00	BASE	10.23	283	12.66	284	-2.3	100	-2.3	0	0	980.9	NA	0.0000		9999	660	0	0	0
2019/11/14 02:50:00	BASE	9.79	284	12.66	284	-2.4	100	-2.4	0	0	981.0	NA	0.0000		9999	590	0	0	0
2019/11/14 02:51:00	BASE	8.41	283	12.66	284	-2.4	100	-2.4	0	0	981.0	NA	0.0000		9999	590	0	0	0
2019/11/14 02:52:00	BASE	7.91	288	12.66	284	-2.4	100	-2.4	0	0	981.0	NA	0.0000		9999	560	0	0	0
2019/11/14 02:53:00	BASE	8.53	294	12.45	284	-2.4	100	-2.4	0	0	981.0	NA	0.0000		9999	590	0	0	0
2019/11/14 02:54:00	BASE	9.06	294	12.14	280	-2.4	100	-2.4	0	0	981.0	NA	0.0000		9999	560	0	0	0
2019/11/14 02:55:00	BASE	8.65	292	12.14	280	-2.4	100	-2.4	0	0	981.0	NA	0.0000		9999	620	0	0	0
2019/11/14 02:56:00	BASE	8.53	290	12.14	280	-2.5	100	-2.5	0	0	981.0	NA	0.0000		9999	560	0	0	0
2019/11/14 02:57:00	BASE	8.42	290	11.88	285	-2.5	100	-2.5	0	0	981.0	NA	0.0000		9999	560	0	0	0
2019/11/14 02:58:00	BASE	8.76	289	11.88	285	-2.5	100	-2.5	0	0	981.0	NA	0.0000		9999	590	0	0	0
2019/11/14 02:59:00	BASE	9.58	290	10.91	286	-2.5	100	-2.5	0	0	981.0	NA	0.0000		9999	660	0	0	0
2019/11/14 03:00:00	BASE	9.05	289	10.91	286	-2.5	100	-2.5	0	0	981.0	NA	0.0000		9999	620	0	0	0
2019/11/14 03:01:00	BASE	8.61	286	10.91	286	-2.5	100	-2.5	0	0	981.1	NA	0.0000		9999	590	0	0	0
2019/11/14 03:02:00	BASE	8.11	288	10.91	286	-2.5	100	-2.5	0	0	981.1	NA	0.0000		9999	620	0	0	0
2019/11/14 03:03:00	BASE	8.47	285	11.21	283	-2.5	100	-2.5	0	0	981.0	NA	0.0000		9999	660	0	0	0
2019/11/14 03:04:00	BASE	8.88	284	11.21	283	-2.5	100	-2.5	0	0	981.1	NA	0.0000		9999	690	0	0	0
2019/11/14 03:05:00	BASE	9.83	284	12.76	287	-2.5	100	-2.5	0	0	981.0	NA	0.0000		9999	690	0	0	0
2019/11/14 03:06:00	BASE	10.44	281	12.76	287	-2.5	100	-2.5	0	0	981.0	NA	0.0000		9999	750	0	0	0
2019/11/14 03:07:00	BASE	9.03	279	12.76	287	-2.6	100	-2.6	0	0	981.1	NA	0.0000		9999	890	0	0	0
2019/11/14 03:08:00	BASE	8.21	274	12.76	287	-2.6	100	-2.6	0	0	981.1	NA	0.0000		9999	850	0	0	0
2019/11/14 03:09:00	BASE	7.89	271	12.76	287	-2.6	100	-2.6	0	0	981.1	NA	0.0000		9999	790	0	0	0
2019/11/14 03:10:00	BASE	8.60	273	12.76	287	-2.7	100	-2.7	0	0	981.0	NA	0.0000		9999	790	1380	0	0
2019/11/14 03:11:00	BASE	9.29	273	12.76	287	-2.7	100	-2.7	0	0	981.0	NA	0.0000		9999	850	0	0	0
2019/11/14 03:12:00	BASE	9.53	276	12.76	287	-2.7	100	-2.7	0	0	981.0	NA	0.0000		9999	920	2590	0	0
2019/11/14 03:13:00	BASE	9.37	278	12.76	287	-2.8	100	-2.8	0	0	981.0	NA	0.0000		9999	1380	2400	0	0
2019/11/14 03:14:00	BASE	9.11	277	12.76	287	-2.8	100	-2.8	0	0	981.0	NA	0.0000		9999	1350	2230	0	0
2019/11/14 03:15:00	BASE	9.98	278	12.35	266	-2.8	100	-2.8	0	0	981.0	NA	0.0000		9999	2330	0	0	0
2019/11/14 03:16:00	BASE	10.79	276	12.45	277	-2.9	100	-2.9	0	0	981.0	NA	0.0000		9999	2400	0	0	0
2019/11/14 03:17:00	BASE	10.73	275	12.45	277	-2.9	100	-2.9	0	0	981.1	NA	0.0000		9999	2300	0	0	0
2019/11/14 03:18:00	BASE	10.70	278	13.48	273	-2.9	100	-2.9	0	0	981.0	NA	0.0000		9999	2260	0	0	0
2019/11/14 03:19:00	BASE	10.57	280	13.48	273	-2.9	100	-2.9	0	0	981.1	NA	0.0000		9999	2230	0	0	0
2019/11/14 03:20:00	BASE	10.25	282	13.48	273	-2.9	100	-2.9	0	0	981.1	NA	0.0000		9999	2260	0	0	0
2019/11/14 03:21:00	BASE	10.05	282	13.48	273	-2.9	100	-2.9	0	0	981.2	NA	0.0000		9999	2260	0	0	0
2019/11/14 03:22:00	BASE	9.60	281	13.48	273	-2.9	100	-2.9	0	0	981.2	NA	0.0000		9999	1510	2300	0	0
2019/11/14 03:23:00	BASE	9.26	280	13.48	273	-2.9	100	-2.9	0	0	981.2	NA	0.0000		9999	2200	0	0	0
2019/11/14 03:24:00	BASE	9.23	282	13.48	273	-2.9	100	-2.9	0	0	981.2	NA	0.0000		9999	1670	2260	0	0
2019/11/14 03:25:00	BASE	9.57	284	13.48	273	-2.9	100	-2.9	0	0	981.2	NA	0.0000		9999	2300	0	0	0
2019/11/14 03:26:00	BASE	10.04	281	13.48	273	-2.9	100	-2.9	0	0	981.2	NA	0.0000		9999	2000	0	0	0
2019/11/14 03:27:00	BASE	10.04	282	13.48	273	-2.9	100	-2.9	0	0	981.2	NA	0.0000		9999	2170	0	0	0
2019/11/14 03:28:00	BASE	10.74	284	12.76	277	-2.9	100	-2.9	0	0	981.2	NA	0.0000		9999	2130	0	0	0
2019/11/14 03:29:00	BASE	10.48	284	12.76	277	-2.9	100	-2.9	0	0	981.3	NA	0.0000		9999	2230	0	0	0
2019/11/14 03:30:00	BASE	10.01	283	12.76	277	-2.8	100	-2.8	0	0	981.3	NA	0.0000		9999	2100	0	0	0
2019/11/14 03:31:00	BASE	10.75	280	13.02	280	-2.8	100	-2.8	0	0	981.3	NA	0.0000		9999	2230	0	0	0
2019/11/14 03:32:00	BASE	10.81	278	13.02	280	-2.8	100	-2.8	0	0	981.3	NA	0.0000		9999	2260	0	0	0
2019/11/14 03:33:00	BASE	10.92	280	13.02	280	-2.8	100	-2.8	0	0	981.3	NA	0.0000		9999	2070	0	0	0
2019/11/14 03:34:00	BASE	11.04	283	13.02	284	-2.8	100	-2.8	0	0	981.3	NA	0.0000		9999	2000	0	0	0
2019/11/14 03:35:00	BASE	9.68	284	13.02	284	-2.8	100	-2.8	0	0	981.4	NA	0.0000		9999	1900	0	0	0
2019/11/14 03:36:00	BASE	9.05	283	13.02	284	-2.8	100	-2.8	0	0	981.4	NA	0.0000		9999	1940	0	0	0
2019/11/14 03:37:00	BASE	10.00	280	13.02	284	-2.8	100	-2.8	0	0	981.4	NA	0.0000		9999	1970	0	0	0
2019/11/14 03:38:00	BASE	9.75	282	13.02	284	-2.8	100	-2.8	0	0	981.4	NA	0.0000		9999	1900	0	0	0
2019/11/14 03:39:00	BASE	10.46	282	13.12	276	-2.8	100	-2.8	0	0	981.4	NA	0.0000		9999	1970	0	0	0
2019/11/14 03:40:00	BASE	11.49	282	13.12	276	-2.8	100	-2.8	0	0	981.5	NA	0.0000		9999	1970	0	0	0
2019/11/14 03:41:00	BASE	10.90	284	13.12	276	-2.8	100	-2.8	0	0	981.5	NA	0.0000		9999	1900	0	0	0
2019/11/14 03:42:00	BASE	11.16	284	13.17	288	-2.8	100	-2.8	0	0	981.5	NA	0.0000		9999	1900	0	0	0
2019/11/14 03:43:00	BASE	11.42	282	13.17	288	-2.9	100	-2.9	0	0	981.5	NA	0.0000		9999	1770	0	0	0
2019/11/14 03:44:00	BASE	10.65	283	13.17	288	-2.9	100	-2.9	0	0	981.5	NA	0.0000		9999	1840	0	0	0
2019/11/14 03:45:00	BASE	9.81	283	13.17	288	-2.9	100	-2.9	0	0	981.6	NA	0.0000		9999	1770	0	0	0
2019/11/14 03:46:00	BASE	9.19	285	13.17	288	-2.9	100	-2.9	0	0	981.6	NA	0.0000		9999	1410	0	0	0
2019/11/14 03:47:00	BASE	9.02	287	13.17	288	-2.9	100	-2.9	0	0	981.6	NA	0.0000		9999	1410	0	0	0
2019/11/14 03:48:00	BASE	9.12	286	13.17	288	-2.9	100	-2.9	0	0	981.7	NA	0.0000		9999	1380	0	0	0
2019/11/14 03:49:00	BASE	9.98	286	13.17	288	-2.9	100	-2.9	0	0	981.7	NA	0.0000		9999	1380	0	0	0
2019/11/14 03:50:00	BASE	10.65	284	13.17	288	-2.9	100	-2.9	0	0	981.7	NA	0.0000		9999	1310	0	0	0
2019/11/14 03:51:00	BASE	10.45	284	13.17	288	-2.9	100	-2.9	0	0	981.7	NA	0.0000		9999	1440	0	0	0
2019/11/14 03:52:00	BASE	9.95	287	12.81	285	-2.9	100	-2.9	0	0	981.8	NA	0.0000		9999	1410	0	0	0
2019/11/14 03:53:00	BASE	9.51	291	12.81	285	-2.9	100	-2.9	0	0	981.8	NA	0.0000		9999	1540	0	0	0
2019/11/14 03:54:00	BASE	9.54	293	12.81	285	-2.9	100	-2.9	0	0	981.8	NA	0.0000		9999	1250	0	0	0
2019/11/14 03:55:00	BASE	9.02	294	12.81	285	-2.9	100	-2.9	0	0	981.9	NA	0.0000		9999	1250	0	0	0
2019/11/14 03:56:00	BASE	8.98	295	12.81	285	-2.9	100	-2.9	0	0	981.9	NA	0.0000		9999	1410	0	0	0
2019/11/14 03:57:00	BASE	9.35	293	12.81	285	-2.9	100	-2.9	0	0	982.0	NA	0.0000		9999	1410	0	0	0
2019/11/14 03:58:00	BASE	9.41	289	12.81	285	-2.9	100	-2.9	0	0	981.9	NA	0.0000		9999	1510	0	0	0
2019/11/14 03:59:00	BASE	8.83	287	11.73	289	-2.9	100	-2.9	0	0	982.0	NA	0.0000		9999	1510	0	0	0
2019/11/14 04:00:00	BASE	8.34	287	11.47	279	-2.9	100	-2.9	0	0	982.0	NA	0.0000		9999	1510	0	0	0
2019/11/14 04:02:00	BASE	8.57	285	11.32	286	-2.9	100	-2.9	0	0	982.1	NA	0.0000		9999	1570	0	0	0
2019/11/14 04:03:00	BASE	8.86	283	11.32	286	-2.8	100	-2.8	0	0	982.1	NA	0.0000		9999	1570	0	0	0
2019/11/14 04:04:00	BASE	8.59	282	11.32	286	-2.8	100	-2.8	0	0	982.1	NA	0.0000		9999	1540	0	0	0
2019/11/14 04:05:00	BASE	8.67	285	11.32	286	-2.8	100	-2.8	0	0	982.1	NA	0.0000		9999	1510	0	0	0
2019/11/14 04:06:00	BASE	8.80	286	11.32	286	-2.8	100	-2.8	0	0	982.2	NA	0.0000		9999	1570	0	0	0
2019/11/14 04:07:00	BASE	8.52	285	11.32	286	-2.8	100	-2.8	0	0	982.1	NA	0.0000		9999	1610	0	0	0
2019/11/14 04:08:00	BASE	8.32	287	10.80	277	-2.8	100	-2.8	0	0	982.2	NA	0.0000		9999	1540	0	0	0
2019/11/14 04:09:00	BASE	8.21	289	10.34	279	-2.8	100	-2.8	0	0	982.2	NA	0.0000		9999	1570	0	0	0
2019/11/14 04:10:00	BASE	8.52	288	10.34	279	-2.8	100	-2.8	0	0	982.2	NA	0.0000		9999	1670	0	0	0
2019/11/14 04:11:00	BASE	8.75	289	10.34	279	-2.8	100	-2.8	0	0	982.2	NA	0.0000		9999	1640	0	0	0
2019/11/14 04:12:00	BASE	8.96	292	10.34	279	-2.8	100	-2.8	0	0	982.2	NA	0.0000		9999	1640	0	0	0
2019/11/14 04:13:00	BASE	8.57	292	10.34	279	-2.8	100	-2.8	0	0	982.3	NA	0.0000		9999	1640	0	0	0
2019/11/14 04:14:00	BASE	8.60	293	10.55	292	-2.8	100	-2.8	0	0	982.2	NA	0.0000		9999	1670	0	0	0
2019/11/14 04:15:00	BASE	9.00	292	10.55	292	-2.8	100	-2.8	0	0	982.3	NA	0.0000		9999	1610	0	0	0
2019/11/14 04:16:00	BASE	8.82	290	10.55	292	-2.8	100	-2.8	0	0	982.2	NA	0.0000		9999	1280	0	0	0
2019/11/14 04:17:00	BASE	8.68	289	10.55	292	-2.8	100	-2.8	0	0	982.3	NA	0.0000		9999	1210	0	0	0
2019/11/14 04:18:00	BASE	8.35	287	10.65	283	-2.8	100	-2.8	0	0	982.3	NA	0.0000		9999	1250	0	0	0
2019/11/14 04:19:00	BASE	8.63	286	10.91	280	-2.8	100	-2.8	0	0	982.3	NA	0.0000		9999	1610	0	0	0
2019/11/14 04:20:00	BASE	8.79	286	10.91	280	-2.8	100	-2.8	0	0	982.3	NA	0.0000		9999	1480	0	0	0
2019/11/14 04:21:00	BASE	9.16	282	11.99	275	-2.8	100	-2.8	0	0	982.3	NA	0.0000		9999	1210	0	0	0
2019/11/14 04:22:00	BASE	9.96	281	11.99	275	-2.8	100	-2.8	0	0	982.4	NA	0.0000		9999	1180	1870	0	0
2019/11/14 04:23:00	BASE	10.47	281	11.99	275	-2.8	100	-2.8	0	0	982.4	NA	0.0000		9999	1380	1900	0	0
2019/11/14 04:24:00	BASE	10.36	280	12.24	285	-2.8	100	-2.8	0	0	982.4	NA	0.0000		9999	1570	0	0	0
2019/11/14 04:25:00	BASE	9.38	281	12.24	285	-2.8	100	-2.8	0	0	982.5	NA	0.0000		9999	1350	0	0	0
2019/11/14 04:26:00	BASE	8.43	282	12.24	285	-2.8	100	-2.8	0	0	982.6	NA	0.0000		9999	1380	0	0	0
2019/11/14 04:27:00	BASE	7.95	280	12.24	285	-2.8	100	-2.8	0	0	982.6	NA	0.0000		9999	1280	0	0	0
2019/11/14 04:28:00	BASE	7.64	280	12.24	285	-2.8	100	-2.8	0	0	982.6	NA	0.0000		9999	1150	0	0	0
2019/11/14 04:29:00	BASE	7.62	279	12.24	285	-2.8	100	-2.8	0	0	982.6	NA	0.0000		9999	1210	0	0	0
2019/11/14 04:30:00	BASE	8.27	271	12.24	285	-2.8	100	-2.8	0	0	982.7	NA	0.0000		9999	1440	0	0	0
2019/11/14 04:31:00	BASE	8.88	269	12.24	285	-2.8	100	-2.8	0	0	982.7	NA	0.0000		9999	1570	0	0	0
2019/11/14 04:32:00	BASE	8.92	270	12.24	285	-2.8	100	-2.8	0	0	982.8	NA	0.0000		9999	1410	0	0	0
2019/11/14 04:33:00	BASE	8.07	272	12.24	285	-2.8	100	-2.8	0	0	982.8	NA	0.0000		9999	1480	0	0	0
2019/11/14 04:34:00	BASE	8.44	275	11.52	270	-2.9	100	-2.9	0	0	982.8	NA	0.0000		9999	1410	0	0	0
2019/11/14 04:35:00	BASE	8.62	275	11.52	270	-2.9	100	-2.9	0	0	982.8	NA	0.0000		9999	1380	0	0	0
2019/11/14 04:36:00	BASE	7.54	273	11.52	270	-2.9	100	-2.9	0	0	982.8	NA	0.0000		9999	1510	0	0	0
2019/11/14 04:37:00	BASE	8.20	267	11.52	270	-2.9	100	-2.9	0	0	982.9	NA	0.0000		9999	1380	0	0	0
2019/11/14 04:38:00	BASE	8.83	260	11.52	270	-2.9	100	-2.9	0	0	982.9	NA	0.0000		9999	1410	0	0	0
2019/11/14 04:39:00	BASE	7.94	260	11.52	270	-2.9	100	-2.9	0	0	982.9	NA	0.0000		9999	1610	0	0	0
2019/11/14 04:40:00	BASE	7.47	261	11.52	270	-2.9	100	-2.9	0	0	982.9	NA	0.0000		9999	1610	0	0	0
2019/11/14 04:41:00	BASE	8.27	256	11.16	276	-2.9	100	-2.9	0	0	982.9	NA	0.0000		9999	1610	0	0	0
2019/11/14 04:42:00	BASE	9.04	251	11.16	276	-2.9	100	-2.9	0	0	983.0	NA	0.0000		9999	1610	0	0	0
2019/11/14 04:43:00	BASE	8.49	252	11.16	276	-3.0	100	-3.0	0	0	983.0	NA	0.0000		9999	1610	0	0	0
2019/11/14 04:44:00	BASE	9.07	257	11.78	248	-3.0	100	-3.0	0	0	983.1	NA	0.0000		9999	1710	0	0	0
2019/11/14 04:45:00	BASE	10.47	256	11.78	248	-3.0	100	-3.0	0	0	983.1	NA	0.0000		9999	1710	0	0	0
2019/11/14 04:46:00	BASE	10.06	257	11.78	248	-3.1	100	-3.1	0	0	983.2	NA	0.0000		9999	1610	0	0	0
2019/11/14 04:47:00	BASE	9.70	258	11.78	248	-3.1	100	-3.1	0	0	983.2	NA	0.0000		9999	1610	0	0	0
2019/11/14 04:48:00	BASE	9.92	259	11.78	248	-3.1	100	-3.1	0	0	983.2	NA	0.0000		9999	1610	0	0	0
2019/11/14 04:49:00	BASE	9.09	266	11.78	248	-3.2	100	-3.2	0	0	983.2	NA	0.0000		9999	1570	0	0	0
2019/11/14 04:50:00	BASE	8.03	272	11.78	248	-3.2	100	-3.2	0	0	983.2	NA	0.0000		9999	1570	0	0	0
2019/11/14 04:51:00	BASE	7.82	271	11.78	248	-3.2	100	-3.2	0	0	983.2	NA	0.0000		9999	1570	0	0	0
2019/11/14 04:52:00	BASE	8.16	273	11.78	248	-3.2	100	-3.2	0	0	983.2	NA	0.0000		9999	1540	0	0	0
2019/11/14 04:53:00	BASE	8.41	274	11.78	248	-3.2	100	-3.2	0	0	983.3	NA	0.0000		9999	1570	0	0	0
2019/11/14 04:54:00	BASE	8.26	272	11.32	257	-3.2	100	-3.2	0	0	983.3	NA	0.0000		9999	1540	0	0	0
2019/11/14 04:55:00	BASE	7.95	272	11.32	257	-3.2	100	-3.2	0	0	983.3	NA	0.0000		9999	1570	0	0	0
2019/11/14 04:56:00	BASE	7.96	274	11.32	257	-3.2	100	-3.2	0	0	983.3	NA	0.0000		9999	1570	0	0	0
2019/11/14 04:57:00	BASE	8.43	276	11.21	272	-3.3	100	-3.3	0	0	983.3	NA	0.0000		9999	1570	0	0	0
2019/11/14 04:58:00	BASE	8.15	276	11.21	272	-3.3	100	-3.3	0	0	983.4	NA	0.0000		9999	1540	0	0	0
2019/11/14 04:59:00	BASE	7.41	273	11.21	272	-3.3	100	-3.3	0	0	983.3	NA	0.0000		9999	1570	0	0	0
2019/11/14 05:00:00	BASE	7.10	270	11.21	272	-3.3	100	-3.3	0	0	983.4	NA	0.0000		9999	1540	0	0	0
2019/11/14 05:01:00	BASE	7.67	267	11.21	272	-3.3	100	-3.3	0	0	983.4	NA	0.0000		9999	1480	0	0	0
2019/11/14 05:02:00	BASE	7.59	268	11.21	272	-3.3	100	-3.4	0	0	983.4	NA	0.0000		9999	1540	0	0	0
2019/11/14 05:03:00	BASE	7.66	270	11.21	272	-3.3	99	-3.4	0	0	983.4	NA	0.0000		9999	1510	0	0	0
2019/11/14 05:04:00	BASE	8.22	272	11.21	272	-3.3	99	-3.4	0	0	983.4	NA	0.0000		9999	1510	0	0	0
2019/11/14 05:05:00	BASE	7.64	273	11.21	272	-3.4	99	-3.5	0	0	983.4	NA	0.0000		9999	1440	0	0	0
2019/11/14 05:06:00	BASE	7.32	275	10.75	269	-3.4	99	-3.5	0	0	983.4	NA	0.0000		9999	1480	0	0	0
2019/11/14 05:07:00	BASE	7.16	273	10.75	269	-3.4	99	-3.5	0	0	983.4	NA	0.0000		9999	1480	0	0	0
2019/11/14 05:08:00	BASE	6.61	272	10.75	269	-3.4	99	-3.5	0	0	983.4	NA	0.0000		9999	1440	0	0	0
2019/11/14 05:09:00	BASE	6.42	275	10.75	269	-3.4	99	-3.5	0	0	983.4	NA	0.0000		9999	1350	0	0	0
2019/11/14 05:10:00	BASE	6.18	275	10.75	269	-3.4	99	-3.5	0	0	983.5	NA	0.0000		9999	1310	0	0	0
2019/11/14 05:11:00	BASE	6.00	276	10.75	269	-3.4	99	-3.5	0	0	983.5	NA	0.0000		9999	1250	0	0	0
2019/11/14 05:12:00	BASE	6.20	276	10.75	269	-3.4	99	-3.5	0	0	983.5	NA	0.0000		9999	1180	0	0	0
2019/11/14 05:13:00	BASE	5.83	275	9.88	275	-3.5	100	-3.5	0	0	983.5	NA	0.0000		9999	1050	0	0	0
2019/11/14 05:14:00	BASE	6.66	268	9.88	275	-3.5	100	-3.5	0	0	983.5	NA	0.0000		9999	1050	0	0	0
2019/11/14 05:15:00	BASE	8.64	257	10.55	257	-3.5	100	-3.5	0	0	983.5	NA	0.0000		9999	1020	0	0	0
2019/11/14 05:16:01	BASE	8.92	253	10.55	257	-3.5	100	-3.5	0	0	983.5	NA	0.0000		9999	1080	0	0	0
2019/11/14 05:17:00	BASE	8.83	253	10.55	257	-3.6	100	-3.6	0	0	983.5	NA	0.0000		9999	1210	0	0	0
2019/11/14 05:18:01	BASE	9.45	252	11.42	255	-3.6	100	-3.6	0	0	983.5	NA	0.0000		9999	1210	0	0	0
2019/11/14 05:19:00	BASE	10.05	252	11.57	248	-3.7	100	-3.7	0	0	983.5	NA	0.0000		9999	1180	0	0	0
2019/11/14 05:20:00	BASE	9.85	251	11.57	248	-3.7	100	-3.7	0	0	983.6	NA	0.0000		9999	1310	0	0	0
2019/11/14 05:21:00	BASE	9.15	250	11.57	248	-3.8	100	-3.8	0	0	983.7	NA	0.0000		9999	1640	0	0	0
2019/11/14 05:22:00	BASE	9.45	250	11.57	248	-3.8	100	-3.8	0	0	983.6	NA	0.0000		9999	1510	0	0	0
2019/11/14 05:23:00	BASE	10.01	250	11.73	253	-3.9	100	-3.9	0	0	983.6	NA	0.0000		9999	1540	0	0	0
2019/11/14 05:24:00	BASE	9.80	249	11.73	253	-3.9	100	-3.9	0	0	983.7	NA	0.0000		9999	1670	0	0	0
2019/11/14 05:25:00	BASE	9.72	250	11.73	253	-3.9	100	-3.9	0	0	983.7	NA	0.0000		9999	1770	0	0	0
2019/11/14 05:26:00	BASE	9.75	252	11.73	253	-4.0	100	-4.0	0	0	983.7	NA	0.0000		9999	1510	0	0	0
2019/11/14 05:27:01	BASE	8.93	254	11.73	253	-4.0	100	-4.0	0	0	983.7	NA	0.0000		9999	1610	0	0	0
2019/11/14 05:28:01	BASE	8.61	257	11.73	253	-4.0	100	-4.0	0	0	983.7	NA	0.0000		9999	1480	0	0	0
2019/11/14 05:29:00	BASE	8.38	259	11.73	253	-4.0	100	-4.0	0	0	983.7	NA	0.0000		9999	1610	0	0	0
2019/11/14 05:30:00	BASE	7.92	260	11.73	253	-4.0	100	-4.0	0	0	983.7	NA	0.0000		9999	1670	0	0	0
2019/11/14 05:31:00	BASE	7.90	263	11.73	253	-4.0	100	-4.0	0	0	983.7	NA	0.0000		9999	1350	0	0	0
2019/11/14 05:32:00	BASE	7.88	262	11.73	253	-4.0	100	-4.0	0	0	983.7	NA	0.0000		9999	1380	0	0	0
2019/11/14 05:33:00	BASE	7.78	260	10.70	246	-4.0	100	-4.0	0	0	983.7	NA	0.0000		9999	1180	0	0	0
2019/11/14 05:34:00	BASE	8.06	258	10.70	246	-4.0	100	-4.0	0	0	983.7	NA	0.0000		9999	1020	0	0	0
2019/11/14 05:35:00	BASE	7.80	257	10.29	254	-4.0	100	-4.0	0	0	983.7	NA	0.0000		9999	890	0	0	0
2019/11/14 05:36:00	BASE	8.04	260	10.24	259	-4.0	100	-4.0	0	0	983.7	NA	0.0000		9999	1020	0	0	0
2019/11/14 05:37:00	BASE	9.08	258	10.24	259	-4.0	100	-4.0	0	0	983.8	NA	0.0000		9999	890	0	0	0
2019/11/14 05:38:00	BASE	8.64	257	10.03	252	-4.0	100	-4.0	0	0	983.9	NA	0.0000		9999	890	0	0	0
2019/11/14 05:39:00	BASE	7.67	260	10.03	252	-4.0	100	-4.0	0	0	983.9	NA	0.0000		9999	850	0	0	0
2019/11/14 05:40:00	BASE	7.86	256	10.03	252	-4.0	100	-4.0	0	0	983.9	NA	0.0000		9999	850	0	0	0
2019/11/14 05:41:00	BASE	7.83	255	10.03	252	-4.0	100	-4.0	0	0	984.0	NA	0.0000		9999	850	0	0	0
2019/11/14 05:42:00	BASE	7.45	256	10.03	252	-4.0	100	-4.0	0	0	984.0	NA	0.0000		9999	850	0	0	0
2019/11/14 05:43:00	BASE	7.47	253	10.03	252	-4.0	100	-4.0	0	0	984.0	NA	0.0000		9999	820	0	0	0
2019/11/14 05:44:00	BASE	7.29	252	10.03	252	-4.0	100	-4.0	0	0	984.0	NA	0.0000		9999	820	0	0	0
2019/11/14 05:45:00	BASE	7.70	257	10.08	259	-4.0	100	-4.0	0	0	983.9	NA	0.0000		9999	820	0	0	0
2019/11/14 05:46:00	BASE	8.48	260	10.08	259	-4.0	100	-4.0	0	0	984.0	NA	0.0000		9999	820	0	0	0
2019/11/14 05:47:00	BASE	8.28	258	10.08	259	-4.0	100	-4.0	0	0	984.0	NA	0.0000		9999	820	0	0	0
2019/11/14 05:48:00	BASE	7.31	260	10.08	259	-4.1	100	-4.1	0	0	984.0	NA	0.0000		9999	890	0	0	0
2019/11/14 05:49:00	BASE	6.64	259	10.08	259	-4.1	100	-4.1	0	0	984.1	NA	0.0000		9999	890	0	0	0
2019/11/14 05:50:00	BASE	6.25	257	10.08	259	-4.1	100	-4.1	0	0	984.1	NA	0.0000		9999	850	0	0	0
2019/11/14 05:51:00	BASE	6.08	255	10.08	259	-4.1	100	-4.1	0	0	984.1	NA	0.0000		9999	890	0	0	0
2019/11/14 05:52:00	BASE	6.52	256	10.08	259	-4.1	100	-4.1	0	0	984.1	NA	0.0000		9999	850	0	0	0
2019/11/14 05:53:00	BASE	7.07	257	10.08	259	-4.1	100	-4.1	0	0	984.1	NA	0.0000		9999	850	0	0	0
2019/11/14 05:54:00	BASE	7.36	257	10.08	259	-4.1	100	-4.1	0	0	984.1	NA	0.0000		9999	890	0	0	0
2019/11/14 05:55:00	BASE	8.10	257	10.19	263	-4.2	100	-4.2	0	0	984.1	NA	0.0000		9999	890	0	0	0
2019/11/14 05:56:00	BASE	8.62	254	10.19	263	-4.2	100	-4.2	0	0	984.1	NA	0.0000		9999	890	0	0	0
2019/11/14 05:57:00	BASE	9.48	254	11.37	257	-4.2	100	-4.2	0	0	984.1	NA	0.0000		9999	890	0	0	0
2019/11/14 05:58:00	BASE	9.90	257	11.37	257	-4.2	100	-4.2	0	0	984.1	NA	0.0000		9999	850	0	0	0
2019/11/14 05:59:00	BASE	9.54	255	11.37	257	-4.3	100	-4.3	0	0	984.1	NA	0.0000		9999	820	0	0	0
2019/11/14 06:00:00	BASE	9.19	251	11.37	257	-4.3	100	-4.3	0	0	984.1	NA	0.0000		9999	850	0	0	0
2019/11/14 06:01:00	BASE	8.20	248	11.37	257	-4.3	100	-4.3	0	0	984.1	NA	0.0000		9999	850	0	0	0
2019/11/14 06:02:00	BASE	7.90	247	11.37	257	-4.3	100	-4.3	0	0	984.1	NA	0.0000		9999	850	0	0	0
2019/11/14 06:03:00	BASE	7.75	247	11.37	257	-4.3	100	-4.3	0	0	984.2	NA	0.0000		9999	850	0	0	0
2019/11/14 06:04:00	BASE	7.66	247	11.37	257	-4.3	100	-4.3	0	0	984.2	NA	0.0000		9999	850	0	0	0
2019/11/14 06:05:00	BASE	7.72	250	11.37	257	-4.4	100	-4.4	0	0	984.2	NA	0.0000		9999	820	0	0	0
2019/11/14 06:06:00	BASE	7.76	252	11.37	257	-4.4	100	-4.4	0	0	984.2	NA	0.0000		9999	850	0	0	0
2019/11/14 06:07:00	BASE	8.36	250	10.75	252	-4.4	100	-4.4	0	0	984.2	NA	0.0000		9999	920	0	0	0
2019/11/14 06:08:00	BASE	9.28	250	10.65	251	-4.4	100	-4.4	0	0	984.3	NA	0.0000		9999	890	0	0	0
2019/11/14 06:09:00	BASE	9.88	252	10.70	249	-4.4	100	-4.4	0	0	984.2	NA	0.0000		9999	890	0	0	0
2019/11/14 06:10:00	BASE	9.93	254	10.96	256	-4.5	100	-4.5	0	0	984.3	NA	0.0000		9999	890	0	0	0
2019/11/14 06:11:00	BASE	9.99	256	10.96	256	-4.5	100	-4.5	0	0	984.3	NA	0.0000		9999	890	0	0	0
2019/11/14 06:12:00	BASE	9.35	258	10.96	256	-4.5	100	-4.5	0	0	984.4	NA	0.0000		9999	890	0	0	0
2019/11/14 06:13:00	BASE	9.00	261	11.06	259	-4.5	100	-4.5	0	0	984.5	NA	0.0000		9999	890	0	0	0
2019/11/14 06:14:00	BASE	8.49	266	11.06	259	-4.5	100	-4.5	0	0	984.5	NA	0.0000		9999	850	0	0	0
2019/11/14 06:15:00	BASE	8.00	270	11.06	259	-4.5	100	-4.5	0	0	984.5	NA	0.0000		9999	890	0	0	0
2019/11/14 06:16:00	BASE	9.24	267	11.57	261	-4.5	100	-4.5	0	0	984.5	NA	0.0000		9999	890	0	0	0
2019/11/14 06:17:00	BASE	9.71	262	11.57	261	-4.6	100	-4.6	1	0	984.5	NA	0.0000		9999	850	0	0	0
2019/11/14 06:18:00	BASE	8.88	264	11.57	261	-4.6	100	-4.6	1	0	984.5	NA	0.0000		9999	890	0	0	0
2019/11/14 06:19:00	BASE	8.25	266	11.57	261	-4.6	100	-4.6	1	0	984.6	NA	0.0000		9999	920	0	0	0
2019/11/14 06:20:00	BASE	7.86	266	11.57	261	-4.7	100	-4.7	1	0	984.6	NA	0.0000		9999	920	0	0	0
2019/11/14 06:21:00	BASE	7.24	267	11.57	261	-4.7	100	-4.7	1	0	984.6	NA	0.0000		9999	920	0	0	0
2019/11/14 06:22:00	BASE	6.83	267	11.57	261	-4.7	100	-4.7	1	0	984.6	NA	0.0000		9999	950	0	0	0
2019/11/14 06:23:00	BASE	6.94	265	11.57	261	-4.7	100	-4.7	1	0	984.6	NA	0.0000		9999	980	0	0	0
2019/11/14 06:24:00	BASE	7.56	263	11.57	261	-4.7	100	-4.7	1	0	984.6	NA	0.0000		9999	980	0	0	0
2019/11/14 06:25:00	BASE	8.39	263	11.57	261	-4.7	100	-4.7	1	0	984.6	NA	0.0000		9999	920	0	0	0
2019/11/14 06:26:00	BASE	9.32	265	11.78	261	-4.7	100	-4.7	1	0	984.5	NA	0.0000		9999	920	0	0	0
2019/11/14 06:27:00	BASE	8.98	267	11.78	261	-4.7	100	-4.7	1	0	984.6	NA	0.0000		9999	950	0	0	0
2019/11/14 06:28:00	BASE	7.23	267	11.78	261	-4.7	100	-4.7	1	0	984.6	NA	0.0000		9999	1020	0	0	0
2019/11/14 06:29:00	BASE	7.28	266	11.78	261	-4.7	100	-4.7	1	0	984.6	NA	0.0000		9999	1050	0	0	0
2019/11/14 06:30:00	BASE	8.42	262	11.78	261	-4.8	100	-4.8	1	0	984.6	NA	0.0000		9999	950	0	0	0
2019/11/14 06:31:00	BASE	8.48	264	11.78	261	-4.8	100	-4.8	1	0	984.6	NA	0.0000		9999	950	0	0	0
2019/11/14 06:32:00	BASE	7.64	269	11.78	261	-4.8	100	-4.8	1	0	984.6	NA	0.0000		9999	920	0	0	0
2019/11/14 06:33:00	BASE	6.90	270	11.78	261	-4.8	100	-4.8	1	0	984.6	NA	0.0000		9999	920	0	0	0
2019/11/14 06:34:00	BASE	6.68	273	11.78	261	-4.8	100	-4.8	1	0	984.6	NA	0.0000		9999	920	0	0	0
2019/11/14 06:35:00	BASE	6.53	272	11.78	261	-4.8	100	-4.8	1	0	984.6	NA	0.0000		9999	920	0	0	0
2019/11/14 06:36:00	BASE	7.07	267	10.91	255	-4.8	100	-4.8	1	0	984.7	NA	0.0000		9999	920	0	0	0
2019/11/14 06:37:00	BASE	7.11	265	10.91	255	-4.8	100	-4.8	1	0	984.6	NA	0.0000		9999	890	0	0	0
2019/11/14 06:38:00	BASE	6.93	267	10.91	255	-4.8	100	-4.8	1	0	984.6	NA	0.0000		9999	920	0	0	0
2019/11/14 06:39:00	BASE	7.40	271	10.91	255	-4.8	100	-4.8	1	0	984.6	NA	0.0000		9999	920	0	0	0
2019/11/14 06:40:00	BASE	6.89	275	10.34	262	-4.8	100	-4.8	1	0	984.7	NA	0.0000		9999	920	0	0	0
2019/11/14 06:41:00	BASE	6.90	273	10.34	262	-4.8	100	-4.8	1	0	984.7	NA	0.0000		9999	950	0	0	0
2019/11/14 06:42:00	BASE	7.00	272	10.34	262	-4.8	100	-4.8	1	0	984.7	NA	0.0000		9999	950	0	0	0
2019/11/14 06:43:00	BASE	7.41	266	10.49	258	-4.8	100	-4.8	1	0	984.7	NA	0.0000		9999	950	0	0	0
2019/11/14 06:44:00	BASE	7.90	264	10.49	258	-4.8	100	-4.8	1	0	984.7	NA	0.0000		9999	950	0	0	0
2019/11/14 06:45:00	BASE	7.95	266	10.49	258	-4.8	100	-4.8	1	0	984.7	NA	0.0000		9999	980	0	0	0
2019/11/14 06:46:00	BASE	8.44	264	10.70	268	-4.8	100	-4.8	1	0	984.8	NA	0.0000		9999	980	0	0	0
2019/11/14 06:47:00	BASE	8.32	263	10.70	268	-4.8	100	-4.8	2	0	984.8	NA	0.0000		9999	980	0	0	0
2019/11/14 06:48:00	BASE	8.01	266	10.70	268	-4.9	100	-4.9	2	0	984.8	NA	0.0000		9999	950	0	0	0
2019/11/14 06:49:00	BASE	7.77	267	10.70	268	-4.9	100	-4.9	2	0	984.8	NA	0.0000		9999	920	0	0	0
2019/11/14 06:50:00	BASE	8.80	263	11.68	259	-4.9	100	-4.9	2	0	984.7	NA	0.0000		9999	950	0	0	0
2019/11/14 06:51:00	BASE	10.05	258	12.55	253	-4.9	100	-4.9	2	0	984.8	NA	0.0000		9999	950	0	0	0
2019/11/14 06:52:00	BASE	11.06	257	12.86	257	-4.9	100	-4.9	2	0	984.8	NA	0.0000		9999	950	0	0	0
2019/11/14 06:53:00	BASE	11.65	258	12.86	257	-5.0	100	-5.0	2	0	984.8	NA	0.0000		9999	950	0	0	0
2019/11/14 06:54:00	BASE	11.46	258	12.86	257	-5.0	100	-5.0	2	0	984.9	NA	0.0000		9999	920	0	0	0
2019/11/14 06:55:00	BASE	10.92	259	12.86	257	-5.1	100	-5.1	2	0	984.9	NA	0.0000		9999	950	0	0	0
2019/11/14 06:56:00	BASE	9.30	259	12.86	257	-5.1	100	-5.1	2	0	985.0	NA	0.0000		9999	1020	0	0	0
2019/11/14 06:57:00	BASE	7.52	262	12.86	257	-5.1	100	-5.1	2	0	985.0	NA	0.0000		9999	1050	0	0	0
2019/11/14 06:58:00	BASE	7.73	266	12.86	257	-5.1	100	-5.1	2	0	985.0	NA	0.0000		9999	1080	0	0	0
2019/11/14 06:59:00	BASE	7.91	267	12.86	257	-5.1	100	-5.1	2	0	985.0	NA	0.0000		9999	1080	0	0	0
2019/11/14 07:00:00	BASE	7.79	269	12.86	257	-5.1	100	-5.1	2	0	985.0	NA	0.0000		9999	1120	0	0	0
2019/11/14 07:01:00	BASE	8.21	267	12.86	257	-5.1	100	-5.1	2	0	985.0	NA	0.0000		9999	1150	0	0	0
2019/11/14 07:02:00	BASE	7.60	268	12.81	260	-5.1	100	-5.1	2	0	985.0	NA	0.0000		9999	1210	0	0	0
2019/11/14 07:03:00	BASE	6.96	271	12.71	254	-5.1	100	-5.1	2	0	985.0	NA	0.0000		9999	1080	0	0	0
2019/11/14 07:04:00	BASE	6.76	269	11.57	258	-5.1	100	-5.1	2	0	984.9	NA	0.0000		9999	1020	0	0	0
2019/11/14 07:05:00	BASE	6.35	263	10.65	257	-5.1	100	-5.1	3	0	984.9	NA	0.0000		9999	1050	0	0	0
2019/11/14 07:06:00	BASE	6.25	266	10.65	257	-5.1	100	-5.1	3	0	984.9	NA	0.0000		9999	980	0	0	0
2019/11/14 07:07:00	BASE	6.65	266	10.65	257	-5.1	100	-5.1	3	0	984.9	NA	0.0000		9999	980	0	0	0
2019/11/14 07:08:00	BASE	7.11	263	10.65	257	-5.1	100	-5.1	3	0	985.0	NA	0.0000		9999	1020	0	0	0
2019/11/14 07:09:00	BASE	7.04	266	10.65	257	-5.1	100	-5.1	3	0	985.0	NA	0.0000		9999	950	0	0	0
2019/11/14 07:10:00	BASE	6.69	265	10.65	257	-5.2	100	-5.2	3	0	985.1	NA	0.0000		9999	980	0	0	0
2019/11/14 07:11:00	BASE	7.39	262	9.88	256	-5.2	100	-5.2	3	0	985.1	NA	0.0000		9999	950	0	0	0
2019/11/14 07:12:00	BASE	8.09	258	9.88	256	-5.2	100	-5.2	3	0	985.1	NA	0.0000		9999	980	0	0	0
2019/11/14 07:13:00	BASE	8.53	256	9.88	256	-5.2	100	-5.2	3	0	985.1	NA	0.0000		9999	980	0	0	0
2019/11/14 07:14:00	BASE	8.07	256	9.88	256	-5.3	100	-5.3	3	0	985.1	NA	0.0000		9999	980	0	0	0
2019/11/14 07:15:00	BASE	7.57	255	9.88	256	-5.3	100	-5.3	4	0	985.1	NA	0.0000		9999	980	0	0	0
2019/11/14 07:16:00	BASE	6.91	258	9.88	256	-5.3	100	-5.3	4	0	985.1	NA	0.0000		9999	980	0	0	0
2019/11/14 07:17:00	BASE	6.57	257	9.88	256	-5.3	100	-5.3	4	0	985.1	NA	0.0000		9999	980	0	0	0
2019/11/14 07:18:00	BASE	7.10	251	9.88	256	-5.3	100	-5.3	4	0	985.1	NA	0.0000		9999	980	0	0	0
2019/11/14 07:19:00	BASE	7.68	253	9.88	256	-5.3	100	-5.3	5	0	985.1	NA	0.0000		9999	950	0	0	0
2019/11/14 07:20:00	BASE	8.73	255	10.24	252	-5.3	100	-5.3	5	0	985.1	NA	0.0000		9999	980	0	0	0
2019/11/14 07:21:00	BASE	8.75	255	10.24	252	-5.3	100	-5.3	5	0	985.1	NA	0.0000		9999	980	0	0	0
2019/11/14 07:22:00	BASE	8.18	254	10.24	252	-5.3	100	-5.3	6	0	985.1	NA	0.0000		9999	950	0	0	0
2019/11/14 07:23:00	BASE	8.34	253	10.24	252	-5.3	100	-5.3	6	0	985.1	NA	0.0000		9999	980	0	0	0
2019/11/14 07:24:00	BASE	8.96	253	10.34	253	-5.4	100	-5.4	6	0	985.1	NA	0.0000		9999	980	0	0	0
2019/11/14 07:25:00	BASE	8.91	253	10.34	253	-5.4	100	-5.4	6	0	985.0	NA	0.0000		9999	980	0	0	0
2019/11/14 07:26:00	BASE	8.30	252	10.34	253	-5.4	100	-5.4	6	0	985.1	NA	0.0000		9999	980	0	0	0
2019/11/14 07:27:00	BASE	8.40	252	10.34	253	-5.5	100	-5.5	6	0	985.1	NA	0.0000		9999	1020	0	0	0
2019/11/14 07:28:00	BASE	8.54	251	10.34	253	-5.5	100	-5.5	7	0	985.2	NA	0.0000		9999	1080	0	0	0
2019/11/14 07:29:00	BASE	8.36	249	10.34	253	-5.5	100	-5.5	7	0	985.2	NA	0.0000		9999	1080	0	0	0
2019/11/14 07:30:00	BASE	8.08	250	10.34	253	-5.5	100	-5.5	7	0	985.2	NA	0.0000		9999	1050	0	0	0
2019/11/14 07:31:00	BASE	8.13	253	10.34	253	-5.5	100	-5.5	7	0	985.2	NA	0.0000		9999	1120	0	0	0
2019/11/14 07:32:00	BASE	8.60	253	10.34	253	-5.5	100	-5.5	8	0	985.2	NA	0.0000		9999	1080	0	0	0
2019/11/14 07:33:00	BASE	8.59	252	10.34	253	-5.5	100	-5.5	8	0	985.3	NA	0.0000		9999	1120	0	0	0
2019/11/14 07:34:00	BASE	8.28	252	10.08	252	-5.5	100	-5.5	9	0	985.3	NA	0.0000		9999	1150	0	0	0
2019/11/14 07:35:00	BASE	7.79	252	10.08	252	-5.5	100	-5.5	9	0	985.3	NA	0.0000		9999	1080	0	0	0
2019/11/14 07:36:00	BASE	7.05	258	9.93	248	-5.5	100	-5.5	9	0	985.3	NA	0.0000		9999	1120	0	0	0
2019/11/14 07:37:00	BASE	7.40	262	9.93	248	-5.5	100	-5.5	10	0	985.3	NA	0.0000		9999	1120	0	0	0
2019/11/14 07:38:00	BASE	8.28	260	9.93	248	-5.5	100	-5.5	10	0	985.3	NA	0.0000		9999	1080	0	0	0
2019/11/14 07:39:00	BASE	8.39	260	10.03	260	-5.5	100	-5.5	10	0	985.3	NA	0.0000		9999	1080	0	0	0
2019/11/14 07:40:00	BASE	8.13	259	10.03	260	-5.5	100	-5.5	11	0	985.3	NA	0.0000		9999	1120	0	0	0
2019/11/14 07:41:00	BASE	7.36	259	10.03	260	-5.5	100	-5.5	11	0	985.3	NA	0.0000		9999	1120	0	0	0
2019/11/14 07:42:00	BASE	7.92	256	10.13	254	-5.5	100	-5.5	11	0	985.3	NA	0.0000		9999	1120	0	0	0
2019/11/14 07:43:00	BASE	8.52	255	10.13	254	-5.5	100	-5.5	12	0	985.4	NA	0.0000		9999	1050	0	0	0
2019/11/14 07:44:00	BASE	8.62	258	10.29	256	-5.5	100	-5.5	12	0	985.4	NA	0.0000		9999	1080	0	0	0
2019/11/14 07:45:00	BASE	8.34	261	10.49	262	-5.5	100	-5.5	12	0	985.4	NA	0.0000		9999	1050	0	0	0
2019/11/14 07:46:00	BASE	8.14	262	10.49	262	-5.5	100	-5.6	13	0	985.4	NA	0.0000		9999	1020	0	0	0
2019/11/14 07:47:00	BASE	8.28	258	10.49	262	-5.6	100	-5.6	13	0	985.4	NA	0.0000		9999	1020	0	0	0
2019/11/14 07:48:00	BASE	7.58	258	10.49	262	-5.6	100	-5.6	14	0	985.4	NA	0.0000		9999	1080	0	0	0
2019/11/14 07:49:00	BASE	6.83	261	10.49	262	-5.6	100	-5.6	14	0	985.4	NA	0.0000		9999	1080	0	0	0
2019/11/14 07:50:00	BASE	6.44	264	10.49	262	-5.6	100	-5.6	14	0	985.4	NA	0.0000		9999	1180	0	0	0
2019/11/14 07:51:00	BASE	6.53	268	10.49	262	-5.6	100	-5.6	15	0	985.4	NA	0.0000		9999	1150	0	0	0
2019/11/14 07:52:00	BASE	7.07	271	10.49	262	-5.6	100	-5.6	15	0	985.4	NA	0.0000		9999	1180	0	0	0
2019/11/14 07:53:00	BASE	7.01	269	10.49	262	-5.6	100	-5.6	15	0	985.5	NA	0.0000		9999	1080	0	0	0
2019/11/14 07:54:00	BASE	5.96	272	10.49	262	-5.6	100	-5.6	15	0	985.5	NA	0.0000		9999	1080	0	0	0
2019/11/14 07:55:00	BASE	6.92	278	10.08	254	-5.6	100	-5.6	15	0	985.4	NA	0.0000		9999	1080	0	0	0
2019/11/14 07:56:00	BASE	8.55	277	9.62	278	-5.6	100	-5.6	15	0	985.4	NA	0.0000		9999	980	0	0	0
2019/11/14 07:57:00	BASE	7.59	274	9.62	278	-5.6	100	-5.6	16	0	985.4	NA	0.0000		9999	950	0	0	0
2019/11/14 07:58:00	BASE	6.46	273	9.62	278	-5.7	100	-5.7	16	0	985.4	NA	0.0000		9999	1120	0	0	0
2019/11/14 07:59:00	BASE	6.70	272	9.62	278	-5.7	100	-5.7	16	0	985.4	NA	0.0000		9999	1150	0	0	0
2019/11/14 08:00:00	BASE	6.31	272	9.62	278	-5.7	100	-5.7	17	0	985.5	NA	0.0000		9999	1120	0	0	0
2019/11/14 08:01:00	BASE	6.58	277	9.62	278	-5.7	100	-5.7	17	0	985.5	NA	0.0000		9999	1050	0	0	0
2019/11/14 08:02:00	BASE	7.33	279	9.62	278	-5.6	100	-5.6	17	0	985.5	NA	0.0000		9999	1150	0	0	0
2019/11/14 08:03:00	BASE	7.53	278	9.62	278	-5.6	100	-5.6	17	0	985.5	NA	0.0000		9999	1120	0	0	0
2019/11/14 08:04:00	BASE	7.33	275	9.62	278	-5.6	100	-5.6	18	0	985.5	NA	0.0000		9999	1080	0	0	0
2019/11/14 08:05:00	BASE	6.57	277	9.62	278	-5.6	100	-5.6	18	0	985.6	NA	0.0000		9999	1080	0	0	0
2019/11/14 08:06:00	BASE	6.38	280	9.16	280	-5.6	100	-5.6	18	0	985.6	NA	0.0000		9999	1120	0	0	0
2019/11/14 08:07:00	BASE	6.16	275	9.16	280	-5.6	100	-5.6	18	0	985.6	NA	0.0000		9999	1120	0	0	0
2019/11/14 08:08:00	BASE	5.59	273	9.16	280	-5.6	100	-5.6	18	0	985.6	NA	0.0000		9999	1080	0	0	0
2019/11/14 08:09:00	BASE	6.33	277	9.16	280	-5.6	100	-5.6	19	0	985.6	NA	0.0000		9999	1050	0	0	0
2019/11/14 08:10:00	BASE	7.25	279	9.16	280	-5.6	100	-5.6	19	0	985.6	NA	0.0000		9999	1080	0	0	0
2019/11/14 08:11:00	BASE	6.46	276	9.16	280	-5.6	100	-5.6	19	0	985.6	NA	0.0000		9999	1120	0	0	0
2019/11/14 08:12:00	BASE	5.86	272	9.16	280	-5.7	100	-5.7	20	0	985.6	NA	0.0000		9999	1150	0	0	0
2019/11/14 08:13:00	BASE	6.62	270	8.90	262	-5.7	100	-5.7	21	0	985.6	NA	0.0000		9999	1150	0	0	0
2019/11/14 08:14:00	BASE	7.66	265	8.90	262	-5.7	100	-5.7	22	0	985.6	NA	0.0000		9999	1180	0	0	0
2019/11/14 08:15:00	BASE	7.42	261	8.90	262	-5.7	100	-5.7	23	0	985.7	NA	0.0000		9999	1120	0	0	0
2019/11/14 08:16:00	BASE	6.62	259	8.90	262	-5.8	100	-5.8	25	0	985.7	NA	0.0000		9999	1120	0	0	0
2019/11/14 08:17:00	BASE	6.33	257	8.90	262	-5.8	100	-5.8	28	0	985.7	NA	0.0000		9999	1250	0	0	0
2019/11/14 08:18:00	BASE	6.87	257	8.90	262	-5.8	100	-5.8	31	0	985.6	NA	0.0000		9999	1180	0	0	0
2019/11/14 08:19:00	BASE	7.78	255	9.36	252	-5.8	100	-5.8	34	0	985.6	NA	0.0000		9999	1150	0	0	0
2019/11/14 08:20:00	BASE	7.16	255	9.36	252	-5.8	100	-5.8	34	0	985.7	NA	0.0000		9999	1120	0	0	0
2019/11/14 08:21:00	BASE	5.98	261	9.36	252	-5.8	100	-5.8	35	0	985.6	NA	0.0000		9999	1180	0	0	0
2019/11/14 08:22:00	BASE	5.82	261	9.36	252	-5.9	100	-5.9	37	0	985.6	NA	0.0000		9999	1150	0	0	0
2019/11/14 08:23:00	BASE	5.44	264	9.36	252	-5.9	100	-5.9	39	0	985.6	NA	0.0000		9999	1150	0	0	0
2019/11/14 08:24:00	BASE	5.55	267	9.36	252	-5.9	100	-5.9	36	0	985.6	NA	0.0000		9999	1150	0	0	0
2019/11/14 08:25:00	BASE	5.99	257	9.36	252	-5.9	100	-5.9	32	0	985.6	NA	0.0000		9999	1120	0	0	0
2019/11/14 08:26:00	BASE	5.96	250	9.36	252	-5.8	100	-5.8	28	0	985.6	NA	0.0000		9999	1120	0	0	0
2019/11/14 08:27:00	BASE	6.84	243	9.36	252	-5.8	100	-5.8	26	0	985.6	NA	0.0000		9999	1120	0	0	0
2019/11/14 08:28:00	BASE	7.45	236	9.36	252	-5.8	100	-5.8	25	0	985.7	NA	0.0000		9999	1120	0	0	0
2019/11/14 08:29:00	BASE	7.70	234	9.05	236	-5.9	100	-5.9	27	0	985.7	NA	0.0000		9999	1120	0	0	0
2019/11/14 08:30:00	BASE	7.51	233	9.05	236	-5.9	100	-5.9	29	0	985.7	NA	0.0000		9999	1120	0	0	0
2019/11/14 08:31:00	BASE	7.02	236	9.05	236	-6.0	100	-6.0	33	0	985.7	NA	0.0000		9999	1150	0	0	0
2019/11/14 08:32:00	BASE	6.82	237	9.05	236	-6.0	100	-6.0	34	0	985.7	NA	0.0000		9999	1150	0	0	0
2019/11/14 08:33:00	BASE	6.26	232	9.05	236	-6.0	100	-6.0	35	0	985.7	NA	0.0000		9999	1150	0	0	0
2019/11/14 08:34:00	BASE	6.64	226	9.05	236	-6.0	100	-6.0	35	0	985.7	NA	0.0000		9999	1150	0	0	0
2019/11/14 08:35:00	BASE	7.65	223	9.05	236	-6.0	100	-6.0	35	0	985.7	NA	0.0000		9999	1180	0	0	0
2019/11/14 08:36:00	BASE	7.24	225	9.05	236	-6.0	100	-6.0	35	0	985.8	NA	0.0000		9999	1210	0	0	0
2019/11/14 08:37:00	BASE	6.71	238	9.05	236	-6.1	100	-6.1	41	0	985.8	NA	0.0000		9999	1210	0	0	0
2019/11/14 08:38:00	BASE	7.13	254	9.05	236	-6.1	100	-6.1	47	0	985.8	NA	0.0000		9999	1150	0	0	0
2019/11/14 08:39:00	BASE	6.57	264	8.80	222	-6.1	100	-6.1	48	0	985.9	NA	0.0000		9999	1210	0	0	0
2019/11/14 08:40:00	BASE	6.06	264	8.80	222	-6.1	100	-6.1	47	0	985.8	NA	0.0000		9999	1120	0	0	0
2019/11/14 08:41:00	BASE	6.15	261	8.80	222	-6.1	100	-6.1	47	0	985.8	NA	0.0000		9999	1080	0	0	0
2019/11/14 08:42:00	BASE	5.82	261	8.80	222	-6.1	100	-6.1	46	0	985.8	NA	0.0000		9999	1150	0	0	0
2019/11/14 08:43:00	BASE	4.97	266	8.80	222	-6.1	100	-6.1	44	0	985.8	NA	0.0000		9999	1250	0	0	0
2019/11/14 08:44:00	BASE	3.99	269	8.80	222	-6.1	100	-6.1	42	0	985.8	NA	0.0000		9999	1250	0	0	0
2019/11/14 08:45:00	BASE	4.17	269	7.87	251	-6.1	100	-6.1	42	0	985.7	NA	0.0000		9999	1210	0	0	0
2019/11/14 08:46:00	BASE	4.79	271	7.87	251	-6.1	100	-6.1	43	0	985.7	NA	0.0000		9999	1180	0	0	0
2019/11/14 08:47:00	BASE	5.16	264	7.82	265	-6.1	100	-6.1	43	0	985.7	NA	0.0000		9999	1150	0	0	0
2019/11/14 08:48:00	BASE	5.73	255	7.61	267	-6.1	100	-6.1	43	0	985.7	NA	0.0000		9999	1120	0	0	0
2019/11/14 08:49:00	BASE	6.17	252	7.51	259	-6.1	100	-6.1	43	0	985.7	NA	0.0000		9999	1120	0	0	0
2019/11/14 08:50:00	BASE	5.89	254	7.15	251	-6.1	100	-6.1	43	0	985.7	NA	0.0000		9999	1080	0	0	0
2019/11/14 08:51:00	BASE	5.38	255	6.94	253	-6.1	100	-6.1	43	0	985.8	NA	0.0000		9999	1080	0	0	0
2019/11/14 08:52:00	BASE	5.33	254	6.94	253	-6.1	100	-6.1	44	0	985.8	NA	0.0000		9999	1080	0	0	0
2019/11/14 08:53:00	BASE	5.93	258	7.31	257	-6.1	100	-6.1	45	0	985.7	NA	0.0000		9999	1050	0	0	0
2019/11/14 08:54:00	BASE	6.10	257	7.31	257	-6.1	100	-6.1	46	0	985.8	NA	0.0000		9999	1050	0	0	0
2019/11/14 08:55:00	BASE	6.28	255	7.92	249	-6.1	100	-6.1	46	0	985.8	NA	0.0000		9999	1050	0	0	0
2019/11/14 08:56:00	BASE	7.04	253	8.28	242	-6.1	100	-6.1	47	0	985.8	NA	0.0000		9999	1080	0	0	0
2019/11/14 08:57:00	BASE	7.33	249	8.28	242	-6.1	100	-6.1	49	0	985.9	NA	0.0000		9999	1080	0	0	0
2019/11/14 08:58:00	BASE	6.80	248	8.28	242	-6.1	100	-6.1	50	0	985.9	NA	0.0000		9999	1080	0	0	0
2019/11/14 08:59:00	BASE	6.10	249	8.28	242	-6.1	100	-6.1	51	0	986.0	NA	0.0000		9999	1120	0	0	0
2019/11/14 09:00:00	BASE	6.33	249	8.28	242	-6.2	100	-6.2	53	0	986.0	NA	0.0000		9999	1150	0	0	0
2019/11/14 09:01:00	BASE	6.82	243	8.28	242	-6.2	100	-6.2	54	0	986.0	NA	0.0000		9999	1150	0	0	0
2019/11/14 09:02:00	BASE	6.26	242	8.28	242	-6.2	100	-6.2	57	0	986.0	NA	0.0000		9999	1210	0	0	0
2019/11/14 09:03:00	BASE	5.76	245	8.28	242	-6.2	100	-6.2	59	0	986.0	NA	0.0000		9999	1250	0	0	0
2019/11/14 09:04:00	BASE	6.52	246	8.28	242	-6.2	100	-6.2	61	0	986.0	NA	0.0000		9999	1280	0	0	0
2019/11/14 09:05:00	BASE	7.75	248	9.11	247	-6.3	100	-6.3	63	0	986.1	NA	0.0000		9999	1310	0	0	0
2019/11/14 09:06:00	BASE	8.31	251	9.41	256	-6.3	100	-6.3	65	0	986.1	NA	0.0000		9999	1210	0	0	0
2019/11/14 09:07:00	BASE	8.19	247	9.41	256	-6.3	100	-6.3	68	0	986.2	NA	0.0000		9999	1210	0	0	0
2019/11/14 09:08:00	BASE	7.84	248	9.41	256	-6.3	100	-6.3	67	0	986.2	NA	0.0000		9999	1150	0	0	0
2019/11/14 09:09:00	BASE	6.83	256	9.41	256	-6.4	100	-6.4	66	0	986.2	NA	0.0000		9999	1020	0	0	0
2019/11/14 09:10:00	BASE	6.71	258	9.41	256	-6.4	100	-6.4	67	0	986.2	NA	0.0000		9999	1050	0	0	0
2019/11/14 09:11:00	BASE	8.40	255	10.29	246	-6.4	100	-6.4	68	0	986.2	NA	0.0000		9999	1020	0	0	0
2019/11/14 09:12:00	BASE	9.51	253	10.29	246	-6.4	100	-6.4	70	0	986.1	NA	0.0000		9999	1050	21620	0	0
2019/11/14 09:13:00	BASE	9.22	253	10.29	246	-6.4	100	-6.4	73	0	986.1	NA	0.0000		9999	1020	0	0	0
2019/11/14 09:14:00	BASE	8.45	253	10.29	246	-6.4	100	-6.4	76	0	986.2	NA	0.0000		9999	980	0	0	0
2019/11/14 09:15:00	BASE	8.07	253	10.29	246	-6.5	100	-6.5	79	0	986.2	NA	0.0000		9999	1080	0	0	0
2019/11/14 09:16:00	BASE	8.03	248	10.29	246	-6.5	100	-6.5	84	0	986.2	NA	0.0000		9999	1080	0	0	0
2019/11/14 09:17:00	BASE	8.26	240	10.29	246	-6.6	100	-6.6	88	0	986.2	NA	0.0000		9999	1080	0	0	0
2019/11/14 09:18:00	BASE	8.40	241	10.29	246	-6.6	100	-6.6	91	0	986.2	NA	0.0000		9999	1050	0	0	0
2019/11/14 09:19:00	BASE	8.65	247	10.29	246	-6.6	100	-6.6	94	0	986.2	NA	0.0000		9999	1080	0	0	0
2019/11/14 09:20:00	BASE	9.10	245	10.29	246	-6.6	100	-6.6	95	0	986.1	NA	0.0000		9999	1120	0	0	0
2019/11/14 09:21:00	BASE	8.70	242	10.19	250	-6.7	100	-6.7	96	0	986.2	NA	0.0000		9999	1050	0	0	0
2019/11/14 09:22:00	BASE	8.48	243	10.13	244	-6.7	100	-6.7	96	0	986.2	NA	0.0000		9999	1050	0	0	0
2019/11/14 09:23:00	BASE	8.52	248	10.13	244	-6.7	100	-6.7	97	0	986.3	NA	0.0000		9999	1120	0	0	0
2019/11/14 09:24:00	BASE	8.47	250	10.13	244	-6.7	100	-6.7	97	0	986.3	NA	0.0000		9999	1180	19590	21420	0
2019/11/14 09:25:00	BASE	8.76	247	10.13	244	-6.7	100	-6.7	100	0	986.3	NA	0.0000		9999	1210	0	0	0
2019/11/14 09:26:00	BASE	9.35	247	10.55	240	-6.7	100	-6.7	106	0	986.2	NA	0.0000		9999	1210	0	0	0
2019/11/14 09:27:00	BASE	9.24	250	10.55	240	-6.8	100	-6.8	110	0	986.3	NA	0.0000		9999	1210	0	0	0
2019/11/14 09:28:00	BASE	7.92	251	10.55	240	-6.8	100	-6.8	110	0	986.3	NA	0.0000		9999	1120	0	0	0
2019/11/14 09:29:00	BASE	6.39	250	10.55	240	-6.8	100	-6.8	108	0	986.3	NA	0.0000		9999	1180	0	0	0
2019/11/14 09:30:00	BASE	5.59	249	10.55	240	-6.8	100	-6.8	106	0	986.3	NA	0.0000		9999	1280	0	0	0
2019/11/14 09:31:00	BASE	5.26	247	10.55	240	-6.8	100	-6.8	102	0	986.3	NA	0.0000		9999	1280	0	0	0
2019/11/14 09:32:00	BASE	4.59	238	10.55	240	-6.8	100	-6.8	95	0	986.3	NA	0.0000		9999	1250	0	0	0
2019/11/14 09:33:00	BASE	3.69	238	10.55	240	-6.8	100	-6.8	96	0	986.3	NA	0.0000		9999	1280	0	0	0
2019/11/14 09:34:00	BASE	3.62	241	10.55	240	-6.8	100	-6.8	103	0	986.3	NA	0.0000		9999	1310	0	0	0
2019/11/14 09:35:00	BASE	4.15	235	10.55	240	-6.8	100	-6.9	106	0	986.3	NA	0.0000		9999	1310	0	0	0
2019/11/14 09:36:00	BASE	5.38	232	9.88	251	-6.8	99	-6.9	108	0	986.3	NA	0.0000		9999	1350	0	0	0
2019/11/14 09:37:00	BASE	6.66	229	8.18	222	-6.8	99	-6.9	104	0	986.3	NA	0.0000		9999	1310	0	0	0
2019/11/14 09:38:00	BASE	7.18	228	8.18	227	-6.8	99	-6.9	105	0	986.3	NA	0.0000		9999	1280	0	0	0
2019/11/14 09:39:00	BASE	7.44	228	8.18	227	-6.8	99	-6.9	105	0	986.3	NA	0.0000		9999	1350	0	0	0
2019/11/14 09:40:00	BASE	6.89	230	8.18	227	-6.8	99	-7.0	104	0	986.3	NA	0.0000		9999	1310	0	0	0
2019/11/14 09:41:00	BASE	6.26	234	8.18	227	-6.8	98	-7.0	103	0	986.4	NA	0.0000		9999	1380	0	0	0
2019/11/14 09:42:00	BASE	6.11	236	8.18	227	-6.8	98	-7.1	104	0	986.3	NA	0.0000		9999	1440	0	0	0
2019/11/14 09:43:00	BASE	6.22	236	8.18	227	-6.8	98	-7.1	110	0	986.3	NA	0.0000		9999	1510	0	0	0
2019/11/14 09:44:00	BASE	5.81	234	8.18	227	-6.8	98	-7.1	116	0	986.3	NA	0.0000		9999	1540	16630	0	0
2019/11/14 09:45:00	BASE	5.24	235	8.18	227	-6.8	97	-7.1	118	0	986.3	NA	0.0000		9999	1570	0	0	0
2019/11/14 09:46:00	BASE	5.24	229	8.18	227	-6.8	97	-7.2	126	0	986.3	NA	0.0000		9999	1350	0	0	0
2019/11/14 09:47:00	BASE	5.77	225	8.18	227	-6.8	97	-7.2	131	0	986.3	NA	0.0000		9999	1280	0	0	0
2019/11/14 09:48:00	BASE	6.69	226	8.08	229	-6.8	97	-7.2	129	0	986.2	NA	0.0000		9999	1540	0	0	0
2019/11/14 09:49:00	BASE	6.85	227	7.82	227	-6.8	96	-7.3	134	0	986.2	NA	0.0000		9999	1570	0	0	0
2019/11/14 09:50:00	BASE	6.39	231	7.82	227	-6.8	96	-7.3	134	0	986.2	NA	0.0000		9999	1440	0	0	0
2019/11/14 09:51:00	BASE	5.82	236	7.82	227	-6.8	96	-7.4	129	0	986.3	NA	0.0000		9999	1440	0	0	0
2019/11/14 09:52:00	BASE	4.98	240	7.82	227	-6.8	95	-7.4	130	0	986.3	NA	0.0000		9999	1410	0	0	0
2019/11/14 09:53:00	BASE	4.26	245	7.82	227	-6.8	95	-7.4	128	0	986.4	NA	0.0000		9999	1410	0	0	0
2019/11/14 09:54:00	BASE	4.17	251	7.82	227	-6.7	95	-7.4	127	0	986.4	NA	0.0000		9999	1380	0	0	0
2019/11/14 09:55:00	BASE	4.21	253	7.82	227	-6.7	95	-7.4	126	0	986.4	NA	0.0000		9999	1410	0	0	0
2019/11/14 09:56:00	BASE	4.31	247	7.82	227	-6.7	95	-7.4	127	0	986.4	NA	0.0000		9999	1410	0	0	0
2019/11/14 09:57:00	BASE	4.99	242	7.82	227	-6.7	95	-7.4	130	0	986.4	NA	0.0000		9999	1410	0	0	0
2019/11/14 09:58:00	BASE	5.14	243	6.94	227	-6.7	95	-7.4	131	0	986.4	NA	0.0000		9999	1540	0	0	0
2019/11/14 09:59:01	BASE	4.69	246	6.69	232	-6.7	95	-7.4	129	0	986.4	NA	0.0000		9999	1570	0	0	0
2019/11/14 10:00:00	BASE	4.88	249	6.28	246	-6.7	95	-7.4	131	0	986.4	NA	0.0000		9999	1540	0	0	0
2019/11/14 10:01:00	BASE	5.22	247	6.28	246	-6.7	95	-7.4	131	0	986.4	NA	0.0000		9999	1440	0	0	0
2019/11/14 10:02:00	BASE	5.03	238	6.28	246	-6.7	95	-7.4	132	0	986.4	NA	0.0000		9999	1480	0	0	0
2019/11/14 10:03:00	BASE	5.26	232	6.58	230	-6.7	95	-7.4	132	0	986.4	NA	0.0000		9999	1540	0	0	0
2019/11/14 10:04:00	BASE	6.05	236	7.15	246	-6.7	95	-7.4	133	0	986.4	NA	0.0000		9999	1480	0	0	0
2019/11/14 10:05:00	BASE	5.91	243	7.15	245	-6.7	95	-7.4	131	0	986.4	NA	0.0000		9999	1480	0	0	0
2019/11/14 10:06:00	BASE	4.46	246	7.15	245	-6.7	95	-7.4	132	0	986.5	NA	0.0000		9999	1570	0	0	0
2019/11/14 10:07:00	BASE	3.88	247	7.15	245	-6.7	95	-7.4	131	0	986.5	NA	0.0000		9999	1570	0	0	0
2019/11/14 10:08:00	BASE	4.24	247	7.15	245	-6.8	95	-7.4	129	0	986.5	NA	0.0000		9999	1440	0	0	0
2019/11/14 10:09:00	BASE	4.39	242	7.15	245	-6.8	95	-7.5	127	0	986.6	NA	0.0000		9999	1440	0	0	0
2019/11/14 10:10:00	BASE	4.40	240	7.15	245	-6.8	94	-7.5	126	0	986.6	NA	0.0000		9999	1380	0	0	0
2019/11/14 10:11:00	BASE	4.22	247	7.15	245	-6.7	94	-7.6	126	0	986.6	NA	0.0000		9999	1440	0	0	0
2019/11/14 10:12:00	BASE	4.73	246	7.15	245	-6.7	93	-7.6	127	0	986.5	NA	0.0000		9999	1410	0	0	0
2019/11/14 10:13:00	BASE	4.94	246	7.15	245	-6.7	93	-7.6	128	0	986.5	NA	0.0000		9999	1410	0	0	0
2019/11/14 10:14:00	BASE	4.89	250	7.15	245	-6.7	93	-7.6	127	0	986.5	NA	0.0000		9999	1570	0	0	0
2019/11/14 10:15:00	BASE	5.13	249	5.76	248	-6.7	93	-7.6	129	0	986.5	NA	0.0000		9999	1540	0	0	0
2019/11/14 10:16:00	BASE	4.92	250	5.76	248	-6.6	93	-7.6	131	0	986.5	NA	0.0000		9999	1510	0	0	0
2019/11/14 10:17:00	BASE	4.73	252	5.76	248	-6.6	93	-7.5	131	0	986.6	NA	0.0000		9999	1510	0	0	0
2019/11/14 10:18:00	BASE	5.01	252	6.22	245	-6.6	94	-7.5	133	0	986.6	NA	0.0000		9999	1510	0	0	0
2019/11/14 10:19:00	BASE	5.05	248	6.22	245	-6.6	94	-7.5	138	0	986.6	NA	0.0000		9999	1610	0	0	0
2019/11/14 10:20:00	BASE	4.89	245	6.22	245	-6.6	94	-7.4	139	0	986.6	NA	0.0000		9999	1570	0	0	0
2019/11/14 10:21:00	BASE	5.39	242	6.38	236	-6.6	94	-7.4	144	0	986.6	NA	0.0000		9999	1800	0	0	0
2019/11/14 10:22:00	BASE	5.42	240	6.38	236	-6.6	94	-7.4	148	0	986.6	NA	0.0000		9999	1770	0	0	0
2019/11/14 10:23:00	BASE	5.38	240	6.43	235	-6.6	94	-7.5	154	0	986.6	NA	0.0000		9999	1640	0	0	0
2019/11/14 10:24:00	BASE	5.71	237	6.43	235	-6.7	94	-7.5	160	0	986.6	NA	0.0000		9999	1570	0	0	0
2019/11/14 10:25:00	BASE	5.11	241	6.43	235	-6.7	94	-7.5	163	0	986.6	NA	0.0000		9999	1510	0	0	0
2019/11/14 10:26:00	BASE	4.25	245	6.43	235	-6.7	93	-7.6	160	0	986.6	NA	0.0000		9999	1410	0	0	0
2019/11/14 10:27:00	BASE	4.08	237	6.43	235	-6.7	93	-7.6	160	0	986.6	NA	0.0000		9999	1410	0	0	0
2019/11/14 10:28:00	BASE	4.30	230	6.43	235	-6.6	93	-7.6	162	0	986.6	NA	0.0000		9999	1380	0	0	0
2019/11/14 10:29:00	BASE	4.16	241	6.43	235	-6.6	93	-7.5	166	0	986.6	NA	0.0000		9999	1350	0	0	0
2019/11/14 10:30:00	BASE	4.16	252	6.43	235	-6.6	93	-7.5	170	0	986.6	NA	0.0000		9999	1380	0	0	0
2019/11/14 10:31:00	BASE	4.46	251	6.43	235	-6.6	94	-7.5	178	0	986.6	NA	0.0000		9999	1380	0	0	0
2019/11/14 10:32:00	BASE	4.51	254	6.43	235	-6.6	94	-7.4	187	0	986.6	NA	0.0000		9999	1380	0	0	0
2019/11/14 10:33:00	BASE	5.27	256	7.82	252	-6.6	94	-7.4	191	0	986.6	NA	0.0000		9999	1350	0	0	0
2019/11/14 10:34:00	BASE	6.52	252	7.82	252	-6.6	94	-7.4	193	0	986.6	NA	0.0000		9999	1350	0	0	0
2019/11/14 10:35:00	BASE	6.04	248	7.82	252	-6.6	94	-7.4	198	0	986.6	NA	0.0000		9999	1350	0	0	0
2019/11/14 10:36:00	BASE	5.11	244	7.82	252	-6.6	94	-7.4	206	0	986.6	NA	0.0000		9999	1350	0	0	0
2019/11/14 10:37:00	BASE	5.12	245	7.82	252	-6.6	94	-7.4	207	0	986.6	NA	0.0000		9999	1440	0	0	0
2019/11/14 10:38:00	BASE	5.28	249	7.82	252	-6.6	94	-7.4	207	0	986.5	NA	0.0000		9999	1410	0	0	0
2019/11/14 10:39:00	BASE	5.55	251	7.82	252	-6.6	94	-7.4	205	0	986.6	NA	0.0000		9999	1410	0	0	0
2019/11/14 10:40:00	BASE	5.41	251	7.82	252	-6.6	94	-7.4	196	0	986.6	NA	0.0000		9999	1480	0	0	0
2019/11/14 10:41:00	BASE	4.90	253	7.82	252	-6.6	94	-7.4	180	0	986.6	NA	0.0000		9999	1610	0	0	0
2019/11/14 10:42:00	BASE	4.60	253	7.82	252	-6.6	94	-7.4	173	0	986.6	NA	0.0000		9999	1410	0	0	0
2019/11/14 10:43:00	BASE	4.50	249	7.61	260	-6.6	94	-7.4	168	0	986.6	NA	0.0000		9999	1440	0	0	0
2019/11/14 10:44:00	BASE	4.90	251	6.28	247	-6.6	94	-7.4	175	0	986.6	NA	0.0000		9999	1410	0	0	0
2019/11/14 10:45:00	BASE	5.76	252	6.53	252	-6.6	94	-7.4	183	0	986.6	NA	0.0000		9999	1410	0	0	0
2019/11/14 10:46:00	BASE	5.82	245	6.53	252	-6.6	94	-7.4	191	0	986.6	NA	0.0000		9999	1480	0	0	0
2019/11/14 10:47:00	BASE	5.23	248	6.53	252	-6.6	94	-7.4	198	0	986.6	NA	0.0000		9999	1480	23390	0	0
2019/11/14 10:48:00	BASE	4.85	256	6.53	252	-6.6	94	-7.4	197	0	986.7	NA	0.0000		9999	1410	0	0	0
2019/11/14 10:49:00	BASE	4.60	250	6.53	252	-6.6	94	-7.4	194	0	986.7	NA	0.0000		9999	1480	0	0	0
2019/11/14 10:50:00	BASE	4.76	250	6.94	257	-6.6	94	-7.4	193	0	986.7	NA	0.0000		9999	1480	0	0	0
2019/11/14 10:51:00	BASE	5.23	249	6.94	257	-6.6	94	-7.4	203	0	986.7	NA	0.0000		9999	1350	0	0	0
2019/11/14 10:52:00	BASE	5.17	242	6.94	257	-6.6	93	-7.5	210	0	986.7	NA	0.0000		9999	1350	0	0	0
2019/11/14 10:53:00	BASE	5.32	244	6.94	257	-6.6	93	-7.5	212	0	986.7	NA	0.0000		9999	1350	0	0	0
2019/11/14 10:54:00	BASE	5.89	237	6.94	257	-6.5	93	-7.5	217	0	986.7	NA	0.0000		9999	1380	0	0	0
2019/11/14 10:55:00	BASE	6.28	229	7.05	240	-6.6	93	-7.5	224	0	986.6	NA	0.0000		9999	1380	0	0	0
2019/11/14 10:56:00	BASE	5.98	238	7.05	240	-6.6	93	-7.5	236	0	986.6	NA	0.0000		9999	1350	0	0	0
2019/11/14 10:57:00	BASE	5.26	242	7.05	240	-6.6	93	-7.5	246	0	986.6	NA	0.0000		9999	1350	0	0	0
2019/11/14 10:58:00	BASE	4.66	242	7.05	240	-6.6	93	-7.5	248	0	986.7	NA	0.0000		9999	1350	0	0	0
2019/11/14 10:59:00	BASE	4.79	245	7.05	240	-6.6	93	-7.5	242	0	986.7	NA	0.0000		9999	1350	0	0	0
2019/11/14 11:00:00	BASE	6.15	248	7.56	248	-6.6	93	-7.5	242	0	986.7	NA	0.0000		9999	1280	0	0	0
2019/11/14 11:01:00	BASE	6.17	251	7.56	248	-6.6	93	-7.6	246	0	986.7	NA	0.0000		9999	1310	0	0	0
2019/11/14 11:02:00	BASE	4.96	250	7.56	248	-6.6	93	-7.6	242	0	986.7	NA	0.0000		9999	1250	0	0	0
2019/11/14 11:03:00	BASE	4.06	246	7.56	248	-6.6	93	-7.5	243	0	986.7	NA	0.0000		9999	1250	0	0	0
2019/11/14 11:04:00	BASE	3.63	243	7.56	248	-6.6	93	-7.6	251	0	986.7	NA	0.0000		9999	1410	0	0	0
2019/11/14 11:05:00	BASE	3.55	242	7.56	248	-6.6	93	-7.6	271	0	986.7	NA	0.0000		9999	1350	0	0	0
2019/11/14 11:06:00	BASE	3.06	243	7.56	248	-6.6	93	-7.6	273	0	986.7	NA	0.0000		9999	1350	0	0	0
2019/11/14 11:07:00	BASE	3.05	246	7.56	248	-6.6	93	-7.6	262	0	986.8	NA	0.0000		9999	1410	0	0	0
2019/11/14 11:08:00	BASE	3.43	241	7.56	248	-6.6	93	-7.6	252	0	986.8	NA	0.0000		9999	1350	0	0	0
2019/11/14 11:09:00	BASE	3.44	242	7.56	248	-6.6	93	-7.6	241	0	986.8	NA	0.0000		9999	1350	0	0	0
2019/11/14 11:10:00	BASE	4.17	251	5.81	256	-6.6	93	-7.6	230	0	986.8	NA	0.0000		9999	1310	0	0	0
2019/11/14 11:11:00	BASE	4.88	250	5.66	255	-6.6	93	-7.5	228	0	986.8	NA	0.0000		9999	1280	0	0	0
2019/11/14 11:12:00	BASE	4.64	247	5.66	255	-6.6	93	-7.6	234	0	986.8	NA	0.0000		9999	1280	0	0	0
2019/11/14 11:13:00	BASE	4.61	245	5.66	255	-6.6	93	-7.6	243	0	986.7	NA	0.0000		9999	1280	0	0	0
2019/11/14 11:14:00	BASE	4.41	245	5.66	255	-6.6	93	-7.6	244	0	986.7	NA	0.0000		9999	1280	0	0	0
2019/11/14 11:15:00	BASE	3.68	245	5.66	255	-6.6	92	-7.6	244	0	986.7	NA	0.0000		9999	1310	0	0	0
2019/11/14 11:16:00	BASE	3.40	243	5.66	255	-6.6	92	-7.6	236	0	986.7	NA	0.0000		9999	1350	0	0	0
2019/11/14 11:17:00	BASE	4.07	245	5.66	255	-6.6	92	-7.6	228	0	986.6	NA	0.0000		9999	1280	0	0	0
2019/11/14 11:18:00	BASE	4.65	241	5.66	255	-6.6	92	-7.6	222	0	986.6	NA	0.0000		9999	1310	0	0	0
2019/11/14 11:19:00	BASE	4.30	232	5.66	255	-6.6	93	-7.6	224	0	986.6	NA	0.0000		9999	1280	0	0	0
2019/11/14 11:20:00	BASE	4.04	230	5.61	248	-6.6	93	-7.6	234	0	986.6	NA	0.0000		9999	1250	0	0	0
2019/11/14 11:21:00	BASE	3.90	232	5.61	248	-6.6	93	-7.5	240	0	986.6	NA	0.0000		9999	1350	0	0	0
2019/11/14 11:22:00	BASE	3.62	231	5.61	248	-6.6	93	-7.6	251	0	986.6	NA	0.0000		9999	1310	0	0	0
2019/11/14 11:23:00	BASE	3.55	231	5.50	228	-6.6	93	-7.6	254	0	986.6	NA	0.0000		9999	1380	0	0	0
2019/11/14 11:24:00	BASE	4.17	232	5.61	226	-6.6	93	-7.6	260	0	986.6	NA	0.0000		9999	1350	0	0	0
2019/11/14 11:25:00	BASE	5.08	231	5.61	226	-6.6	93	-7.6	257	0	986.6	NA	0.0000		9999	1310	0	0	0
2019/11/14 11:26:00	BASE	4.91	235	5.61	242	-6.6	93	-7.6	249	0	986.6	NA	0.0000		9999	1280	0	0	0
2019/11/14 11:27:00	BASE	4.46	242	5.61	242	-6.6	93	-7.6	239	0	986.6	NA	0.0000		9999	1280	0	0	0
2019/11/14 11:28:00	BASE	4.11	245	5.61	242	-6.6	93	-7.5	235	0	986.6	NA	0.0000		9999	1310	0	0	0
2019/11/14 11:29:00	BASE	4.17	248	6.22	259	-6.6	93	-7.5	233	0	986.6	NA	0.0000		9999	1310	0	0	0
2019/11/14 11:30:00	BASE	4.94	257	6.38	269	-6.6	93	-7.5	235	0	986.7	NA	0.0000		9999	1310	0	0	0
2019/11/14 11:31:00	BASE	4.48	258	6.38	269	-6.6	93	-7.5	241	0	986.7	NA	0.0000		9999	1280	0	0	0
2019/11/14 11:32:00	BASE	3.38	257	6.38	269	-6.6	93	-7.5	248	0	986.6	NA	0.0000		9999	1280	0	0	0
2019/11/14 11:33:00	BASE	2.86	255	6.38	269	-6.6	93	-7.5	257	0	986.6	NA	0.0000		9999	1380	0	0	0
2019/11/14 11:34:00	BASE	2.88	241	6.38	269	-6.6	93	-7.5	257	0	986.6	NA	0.0000		9999	1350	0	0	0
2019/11/14 11:35:00	BASE	3.41	232	6.38	269	-6.6	93	-7.5	257	0	986.6	NA	0.0000		9999	1350	23490	0	0
2019/11/14 11:36:00	BASE	3.64	236	6.38	269	-6.6	93	-7.5	253	0	986.7	NA	0.0000		9999	1350	0	0	0
2019/11/14 11:37:00	BASE	3.54	236	6.38	269	-6.6	93	-7.5	251	0	986.7	NA	0.0000		9999	1310	0	0	0
2019/11/14 11:38:00	BASE	3.49	233	6.38	269	-6.6	93	-7.5	250	0	986.7	NA	0.0000		9999	1280	0	0	0
2019/11/14 11:39:00	BASE	3.49	232	6.38	269	-6.6	93	-7.5	255	0	986.7	NA	0.0000		9999	1350	0	0	0
2019/11/14 11:40:00	BASE	3.33	231	4.27	241	-6.6	93	-7.5	264	0	986.8	NA	0.0000		9999	1310	0	0	0
2019/11/14 11:41:00	BASE	3.26	227	4.37	211	-6.6	93	-7.5	270	0	986.8	NA	0.0000		9999	1350	0	0	0
2019/11/14 11:42:00	BASE	3.72	222	4.48	220	-6.6	93	-7.5	270	0	986.8	NA	0.0000		9999	1350	0	0	0
2019/11/14 11:43:00	BASE	4.06	228	4.68	239	-6.6	93	-7.5	276	0	986.8	NA	0.0000		9999	1350	0	0	0
2019/11/14 11:44:00	BASE	3.88	247	4.84	250	-6.5	93	-7.5	283	0	986.8	NA	0.0000		9999	1380	0	0	0
2019/11/14 11:45:00	BASE	3.87	249	4.84	250	-6.5	93	-7.4	293	0	986.8	NA	0.0000		9999	1350	0	0	0
2019/11/14 11:46:00	BASE	4.22	239	5.20	242	-6.5	93	-7.4	306	0	986.8	NA	0.0000		9999	1310	0	0	0
2019/11/14 11:47:00	BASE	4.70	236	5.56	229	-6.4	93	-7.4	308	0	986.8	NA	0.0000		9999	1380	0	0	0
2019/11/14 11:48:00	BASE	4.70	234	5.56	229	-6.4	93	-7.4	301	0	986.7	NA	0.0000		9999	1380	0	0	0
2019/11/14 11:49:00	BASE	4.58	233	5.56	237	-6.4	93	-7.4	299	0	986.6	NA	0.0000		9999	1350	0	0	0
2019/11/14 11:50:00	BASE	4.53	230	5.56	237	-6.4	93	-7.4	296	0	986.8	NA	0.0000		9999	1350	0	0	0
2019/11/14 11:51:00	BASE	4.37	225	5.56	237	-6.4	93	-7.4	297	0	986.8	NA	0.0000		9999	1380	21100	0	0
2019/11/14 11:52:00	BASE	4.30	221	5.56	237	-6.4	93	-7.4	296	0	986.8	NA	0.0000		9999	1380	0	0	0
2019/11/14 11:53:00	BASE	4.44	226	5.56	237	-6.4	93	-7.4	300	0	986.8	NA	0.0000		9999	1380	0	0	0
2019/11/14 11:54:00	BASE	4.92	232	5.71	241	-6.5	93	-7.4	300	0	986.8	NA	0.0000		9999	1380	0	0	0
2019/11/14 11:55:00	BASE	5.03	231	5.71	241	-6.5	93	-7.4	298	0	986.8	NA	0.0000		9999	1380	0	0	0
2019/11/14 11:56:00	BASE	4.70	228	5.71	241	-6.5	93	-7.4	306	0	986.8	NA	0.0000		9999	1380	0	0	0
2019/11/14 11:57:00	BASE	4.58	231	5.71	241	-6.5	93	-7.4	314	0	986.8	NA	0.0000		9999	1380	0	0	0
2019/11/14 11:58:00	BASE	4.55	230	5.71	241	-6.5	93	-7.4	321	0	986.8	NA	0.0000		9999	1350	0	0	0
2019/11/14 11:59:00	BASE	4.29	227	5.71	241	-6.5	93	-7.4	326	0	986.8	NA	0.0000		9999	1380	0	0	0
2019/11/14 12:00:00	BASE	3.86	229	5.71	241	-6.5	93	-7.4	328	0	986.8	NA	0.0000		9999	1380	0	0	0
2019/11/14 12:01:00	BASE	4.04	230	5.71	241	-6.5	93	-7.4	332	0	986.8	NA	0.0000		9999	1380	0	0	0
2019/11/14 12:02:00	BASE	4.35	229	5.71	241	-6.5	93	-7.5	335	0	986.8	NA	0.0000		9999	1380	0	0	0
2019/11/14 12:03:00	BASE	4.52	224	5.71	241	-6.5	93	-7.5	332	0	986.8	NA	0.0000		9999	1350	0	0	0
2019/11/14 12:04:00	BASE	4.69	224	5.45	227	-6.4	92	-7.5	330	0	986.7	NA	0.0000		9999	1350	0	0	0
2019/11/14 12:05:00	BASE	4.49	229	5.14	222	-6.4	92	-7.5	328	0	986.7	NA	0.0000		9999	1380	0	0	0
2019/11/14 12:06:00	BASE	4.51	230	5.14	222	-6.4	92	-7.5	324	0	986.7	NA	0.0000		9999	1380	0	0	0
2019/11/14 12:07:00	BASE	4.57	235	5.14	222	-6.4	92	-7.5	316	0	986.7	NA	0.0000		9999	1380	0	0	0
2019/11/14 12:08:00	BASE	4.48	242	5.14	222	-6.4	92	-7.5	311	0	986.7	NA	0.0000		9999	1410	0	0	0
2019/11/14 12:09:00	BASE	4.26	246	5.30	251	-6.4	92	-7.5	309	0	986.8	NA	0.0000		9999	1380	0	0	0
2019/11/14 12:10:00	BASE	3.99	248	5.30	251	-6.4	92	-7.5	310	0	986.8	NA	0.0000		9999	1380	0	0	0
2019/11/14 12:11:00	BASE	3.97	248	5.30	251	-6.4	92	-7.5	309	0	986.8	NA	0.0000		9999	1310	0	0	0
2019/11/14 12:12:00	BASE	3.96	248	5.30	251	-6.4	92	-7.5	309	0	986.8	NA	0.0000		9999	1350	0	0	0
2019/11/14 12:13:00	BASE	3.92	250	5.30	251	-6.4	92	-7.5	313	0	986.7	NA	0.0000		9999	1380	0	0	0
2019/11/14 12:14:00	BASE	3.87	253	5.30	251	-6.4	92	-7.5	318	0	986.7	NA	0.0000		9999	1350	0	0	0
2019/11/14 12:15:00	BASE	3.70	251	5.30	251	-6.4	92	-7.5	323	0	986.7	NA	0.0000		9999	1380	0	0	0
2019/11/14 12:16:00	BASE	3.88	254	5.30	251	-6.4	92	-7.5	329	0	986.8	NA	0.0000		9999	1380	0	0	0
2019/11/14 12:17:00	BASE	3.87	257	5.30	251	-6.4	92	-7.6	335	0	986.7	NA	0.0000		9999	1380	0	0	0
2019/11/14 12:18:00	BASE	3.47	255	5.30	251	-6.5	92	-7.6	337	0	986.7	NA	0.0000		9999	1380	0	0	0
2019/11/14 12:19:00	BASE	3.58	258	4.53	259	-6.4	91	-7.6	336	0	986.7	NA	0.0000		9999	1380	0	0	0
2019/11/14 12:20:00	BASE	3.95	261	4.53	259	-6.4	91	-7.6	335	0	986.7	NA	0.0000		9999	1350	0	0	0
2019/11/14 12:21:00	BASE	4.19	259	4.99	260	-6.4	91	-7.6	335	0	986.8	NA	0.0000		9999	1350	0	0	0
2019/11/14 12:22:00	BASE	4.46	254	4.99	260	-6.4	91	-7.6	336	0	986.8	NA	0.0000		9999	1350	0	0	0
2019/11/14 12:23:00	BASE	4.54	253	4.99	260	-6.4	91	-7.6	335	0	986.8	NA	0.0000		9999	1380	0	0	0
2019/11/14 12:24:00	BASE	4.40	255	4.99	260	-6.3	91	-7.6	327	0	986.8	NA	0.0000		9999	1380	0	0	0
2019/11/14 12:25:00	BASE	4.34	256	4.99	260	-6.4	91	-7.6	316	0	986.8	NA	0.0000		9999	1350	0	0	0
2019/11/14 12:26:00	BASE	4.33	253	4.99	260	-6.4	91	-7.6	309	0	986.8	NA	0.0000		9999	1350	0	0	0
2019/11/14 12:27:00	BASE	3.83	258	4.99	260	-6.4	91	-7.6	308	0	986.8	NA	0.0000		9999	1350	0	0	0
2019/11/14 12:28:00	BASE	3.87	264	4.99	260	-6.4	91	-7.6	308	0	986.8	NA	0.0000		9999	1350	0	0	0
2019/11/14 12:29:00	BASE	4.31	262	4.99	260	-6.4	91	-7.6	308	0	986.9	NA	0.0000		9999	1350	0	0	0
2019/11/14 12:30:00	BASE	4.28	258	4.99	260	-6.4	91	-7.6	305	0	986.9	NA	0.0000		9999	1350	0	0	0
2019/11/14 12:31:00	BASE	4.27	257	4.94	252	-6.4	91	-7.6	302	0	986.9	NA	0.0000		9999	1350	0	0	0
2019/11/14 12:32:00	BASE	4.29	253	4.94	252	-6.4	91	-7.6	309	0	987.0	NA	0.0000		9999	1350	0	0	0
2019/11/14 12:33:00	BASE	4.29	250	4.84	254	-6.4	91	-7.6	304	0	987.0	NA	0.0000		9999	1350	0	0	0
2019/11/14 12:34:00	BASE	4.18	253	4.78	243	-6.4	91	-7.5	306	0	987.0	NA	0.0000		9999	1350	22870	0	0
2019/11/14 12:35:00	BASE	3.89	252	4.78	243	-6.4	92	-7.5	325	0	987.0	NA	0.0000		9999	1350	0	0	0
2019/11/14 12:36:00	BASE	3.52	252	4.78	243	-6.4	92	-7.5	336	0	987.0	NA	0.0000		9999	1350	0	0	0
2019/11/14 12:37:00	BASE	3.19	256	4.78	243	-6.4	92	-7.5	348	0	987.0	NA	0.0000		9999	1310	0	0	0
2019/11/14 12:38:00	BASE	2.78	269	4.78	243	-6.4	92	-7.4	358	0	987.1	NA	0.0000		9999	1310	0	0	0
2019/11/14 12:39:00	BASE	2.36	276	4.78	243	-6.3	92	-7.4	362	0	987.1	NA	0.0000		9999	1350	0	0	0
2019/11/14 12:40:00	BASE	2.44	266	4.78	243	-6.3	92	-7.4	360	0	987.1	NA	0.0000		9999	1350	0	0	0
2019/11/14 12:41:00	BASE	2.64	261	4.78	243	-6.3	92	-7.4	351	0	987.1	NA	0.0000		9999	1350	0	0	0
2019/11/14 12:42:00	BASE	2.93	266	4.78	243	-6.3	92	-7.4	340	0	987.1	NA	0.0000		9999	1310	0	0	0
2019/11/14 12:43:00	BASE	2.75	273	4.42	254	-6.3	92	-7.4	333	0	987.1	NA	0.0000		9999	1310	0	0	0
2019/11/14 12:44:00	BASE	2.36	278	4.22	246	-6.3	92	-7.4	330	0	987.1	NA	0.0000		9999	1310	0	0	0
2019/11/14 12:45:00	BASE	2.56	278	3.91	272	-6.3	92	-7.4	331	0	987.1	NA	0.0000		9999	1310	0	0	0
2019/11/14 12:46:00	BASE	3.11	289	3.91	272	-6.3	92	-7.4	334	0	987.1	NA	0.0000		9999	1310	19750	0	0
2019/11/14 12:47:00	BASE	3.50	300	3.91	272	-6.3	92	-7.3	337	0	987.1	NA	0.0000		9999	1310	0	0	0
2019/11/14 12:48:00	BASE	3.37	297	3.91	272	-6.2	92	-7.3	339	0	987.1	NA	0.0000		9999	1310	0	0	0
2019/11/14 12:49:00	BASE	3.27	296	3.91	272	-6.2	92	-7.2	342	0	987.1	NA	0.0000		9999	1350	0	0	0
2019/11/14 12:50:00	BASE	3.06	294	3.91	272	-6.2	93	-7.2	344	0	987.1	NA	0.0000		9999	1310	0	0	0
2019/11/14 12:51:00	BASE	3.44	293	4.73	289	-6.1	93	-7.1	347	0	987.1	NA	0.0000		9999	1310	0	0	0
2019/11/14 12:52:00	BASE	3.88	295	4.73	289	-6.1	93	-7.0	351	0	987.1	NA	0.0000		9999	1280	0	0	0
2019/11/14 12:53:00	BASE	3.75	298	4.73	289	-6.1	93	-7.1	357	0	987.1	NA	0.0000		9999	1280	20150	21060	0
2019/11/14 12:54:00	BASE	3.81	299	4.73	289	-6.1	93	-7.1	362	0	987.1	NA	0.0000		9999	1280	21980	0	0
2019/11/14 12:55:00	BASE	3.77	295	4.73	289	-6.1	93	-7.1	368	0	987.1	NA	0.0000		9999	1280	0	0	0
2019/11/14 12:56:00	BASE	3.49	294	4.73	289	-6.1	93	-7.1	373	0	987.1	NA	0.0000		9999	1280	0	0	0
2019/11/14 12:57:00	BASE	3.40	297	4.73	289	-6.1	93	-7.1	378	0	987.1	NA	0.0000		9999	1280	0	0	0
2019/11/14 12:58:00	BASE	3.57	308	4.73	289	-6.1	93	-7.0	381	0	987.2	NA	0.0000		9999	1280	0	0	0
2019/11/14 12:59:00	BASE	4.23	318	5.56	313	-6.1	93	-7.0	380	0	987.2	NA	0.0000		9999	1250	0	0	0
2019/11/14 13:00:00	BASE	4.90	317	5.56	313	-6.1	93	-7.0	376	0	987.2	NA	0.0000		9999	1350	0	0	0
2019/11/14 13:01:00	BASE	4.59	316	5.56	313	-6.1	93	-7.1	371	0	987.2	NA	0.0000		9999	1310	0	0	0
2019/11/14 13:02:00	BASE	4.08	318	5.56	313	-6.1	93	-7.1	368	0	987.2	NA	0.0000		9999	1280	0	0	0
2019/11/14 13:03:00	BASE	3.76	323	5.56	313	-6.2	93	-7.1	368	0	987.2	NA	0.0000		9999	1310	0	0	0
2019/11/14 13:04:00	BASE	3.49	325	5.56	313	-6.2	93	-7.2	371	0	987.2	NA	0.0000		9999	1280	0	0	0
2019/11/14 13:05:00	BASE	3.34	324	5.56	313	-6.3	93	-7.2	375	0	987.2	NA	0.0000		9999	1280	0	0	0
2019/11/14 13:06:00	BASE	3.28	325	5.56	313	-6.3	93	-7.2	386	0	987.2	NA	0.0000		9999	1280	0	0	0
2019/11/14 13:07:00	BASE	3.56	329	5.56	313	-6.2	93	-7.2	399	0	987.2	NA	0.0000		9999	1280	0	0	0
2019/11/14 13:08:00	BASE	3.90	331	5.56	313	-6.2	93	-7.2	411	0	987.2	NA	0.0000		9999	1280	20930	0	0
2019/11/14 13:09:00	BASE	3.74	326	5.40	319	-6.2	93	-7.1	425	0	987.2	NA	0.0000		9999	1280	0	0	0
2019/11/14 13:10:00	BASE	2.97	319	4.68	314	-6.2	93	-7.1	444	0	987.2	NA	0.0000		9999	1280	0	0	0
2019/11/14 13:11:00	BASE	2.26	315	4.22	318	-6.2	93	-7.1	467	0	987.2	NA	0.0000		9999	1310	0	0	0
2019/11/14 13:12:00	BASE	2.42	324	4.12	328	-6.2	93	-7.1	493	0	987.2	NA	0.0000		9999	1380	0	0	0
2019/11/14 13:13:00	BASE	2.94	339	4.12	328	-6.2	93	-7.2	513	0	987.2	NA	0.0000		9999	1410	0	0	0
2019/11/14 13:14:00	BASE	2.77	350	4.12	328	-6.2	93	-7.2	519	0	987.0	NA	0.0000		9999	1380	0	0	0
2019/11/14 13:15:00	BASE	2.09	359	4.12	328	-6.2	92	-7.2	515	0	987.1	NA	0.0000		9999	1350	0	0	0
2019/11/14 13:16:00	BASE	1.85	351	4.12	328	-6.2	92	-7.2	504	0	987.2	NA	0.0000		9999	1310	17590	21160	0
2019/11/14 13:17:00	BASE	1.85	329	4.12	328	-6.2	92	-7.3	503	0	987.2	NA	0.0000		9999	1380	0	0	0
2019/11/14 13:18:00	BASE	1.99	326	4.12	328	-6.1	92	-7.2	500	0	987.2	NA	0.0000		9999	1350	0	0	0
2019/11/14 13:19:00	BASE	2.23	340	3.55	340	-6.1	92	-7.2	493	0	987.2	NA	0.0000		9999	1350	0	0	0
2019/11/14 13:20:00	BASE	1.94	349	3.55	340	-6.1	92	-7.2	493	0	987.2	NA	0.0000		9999	1310	0	0	0
2019/11/14 13:21:00	BASE	1.40	357	3.55	340	-6.2	92	-7.2	487	0	987.2	NA	0.0000		9999	1280	0	0	0
2019/11/14 13:22:00	BASE	1.07	4	3.55	340	-6.2	92	-7.3	481	0	987.2	NA	0.0000		9999	1310	0	0	0
2019/11/14 13:23:00	BASE	0.47	4	2.73	360	-6.2	92	-7.3	478	0	987.1	NA	0.0000		9999	1310	17550	0	0
2019/11/14 13:24:00	BASE	0.31	358	2.68	345	-6.3	92	-7.4	471	0	987.1	NA	0.0000		9999	1310	0	0	0
2019/11/14 13:25:00	BASE	0.60	2	2.68	345	-6.3	92	-7.4	479	0	987.1	NA	0.0000		9999	1310	0	0	0
2019/11/14 13:26:00	BASE	0.75	6	2.68	345	-6.3	92	-7.4	490	0	987.1	NA	0.0000		9999	1310	0	0	0
2019/11/14 13:27:00	BASE	0.46	358	2.68	345	-6.3	92	-7.4	487	0	987.1	NA	0.0000		9999	1310	0	0	0
2019/11/14 13:28:00	BASE	0.42	1	2.52	349	-6.3	92	-7.3	485	0	987.1	NA	0.0000		9999	1310	0	0	0
2019/11/14 13:29:00	BASE	1.17	23	1.95	334	-6.2	92	-7.3	489	0	987.1	NA	0.0000		9999	1310	0	0	0
2019/11/14 13:30:00	BASE	1.55	32	1.85	28	-6.2	92	-7.3	479	0	987.1	NA	0.0000		9999	1280	0	0	0
2019/11/14 13:31:00	BASE	1.29	33	1.85	38	-6.1	92	-7.2	468	0	987.1	NA	0.0000		9999	1280	0	0	0
2019/11/14 13:32:00	BASE	1.23	37	2.11	39	-6.1	92	-7.2	466	0	987.1	NA	0.0000		9999	1310	0	0	0
2019/11/14 13:33:00	BASE	1.52	43	2.11	39	-6.0	92	-7.1	469	0	987.1	NA	0.0000		9999	1280	0	0	0
2019/11/14 13:34:00	BASE	1.48	56	2.11	39	-6.0	92	-7.1	470	0	987.1	NA	0.0000		9999	1280	0	0	0
2019/11/14 13:35:00	BASE	1.51	66	2.11	39	-6.0	92	-7.0	473	0	987.0	NA	0.0000		9999	1310	0	0	0
2019/11/14 13:36:00	BASE	1.78	72	2.52	75	-5.9	92	-7.0	473	0	987.0	NA	0.0000		9999	1310	0	0	0
2019/11/14 13:37:00	BASE	2.33	55	2.88	15	-5.8	92	-6.9	467	0	986.9	NA	0.0000		9999	1350	0	0	0
2019/11/14 13:38:00	BASE	2.32	25	2.88	15	-5.8	92	-6.9	461	0	987.0	NA	0.0000		9999	1310	0	0	0
2019/11/14 13:39:00	BASE	2.20	17	2.98	12	-5.8	92	-6.9	457	0	987.0	NA	0.0000		9999	1310	0	0	0
2019/11/14 13:40:00	BASE	2.70	22	3.45	31	-5.8	92	-6.9	454	0	986.7	NA	0.0000		9999	1310	20280	0	0
2019/11/14 13:41:00	BASE	2.82	35	3.45	31	-5.8	92	-6.9	444	0	986.9	NA	0.0000		9999	1310	0	0	0
2019/11/14 13:42:00	BASE	2.59	35	3.45	31	-5.8	92	-6.9	423	0	986.8	NA	0.0000		9999	1310	0	0	0
2019/11/14 13:43:00	BASE	2.61	23	3.45	31	-5.8	92	-6.9	455	0	986.8	NA	0.0000		9999	1280	0	0	0
2019/11/14 13:44:00	BASE	2.46	23	3.45	31	-5.9	92	-7.0	516	0	986.8	NA	0.0000		9999	1350	0	0	0
2019/11/14 13:45:00	BASE	1.99	27	3.45	31	-5.9	92	-7.0	564	0	986.8	NA	0.0000		9999	1410	0	0	0
2019/11/14 13:46:00	BASE	1.89	17	3.45	31	-6.0	92	-7.1	589	0	986.8	NA	0.0000		9999	1440	0	0	0
2019/11/14 13:47:00	BASE	1.82	14	3.45	31	-6.0	92	-7.2	610	0	986.8	NA	0.0000		9999	1440	0	0	0
2019/11/14 13:48:00	BASE	1.77	32	3.45	31	-6.0	92	-7.1	620	0	986.8	NA	0.0000		9999	1440	0	0	0
2019/11/14 13:49:00	BASE	2.00	42	3.45	31	-5.9	92	-7.1	633	0	986.8	NA	0.0000		9999	1440	0	0	0
2019/11/14 13:50:00	BASE	2.03	36	3.19	20	-5.9	92	-7.0	653	0	986.7	NA	0.0000		9999	1380	2030	0	0
2019/11/14 13:51:00	BASE	1.91	30	3.19	20	-5.8	92	-7.0	694	0	986.7	NA	0.0000		9999	1540	0	0	0
2019/11/14 13:52:00	BASE	1.51	35	3.19	20	-5.8	91	-7.0	695	0	986.7	NA	0.0000		9999	1510	0	0	0
2019/11/14 13:53:00	BASE	1.01	43	2.52	37	-5.8	91	-7.0	696	0	986.7	NA	0.0000		9999	1540	0	0	0
2019/11/14 13:54:00	BASE	0.58	60	2.52	37	-5.8	91	-7.1	661	0	986.3	NA	0.0000		9999	1510	0	0	0
2019/11/14 13:55:00	BASE	0.63	78	2.52	37	-5.9	91	-7.1	662	0	986.7	NA	0.0000		9999	1540	0	0	0
2019/11/14 13:56:00	BASE	1.16	80	2.52	37	-5.8	91	-7.1	688	0	986.7	NA	0.0000		9999	2000	0	0	0
2019/11/14 13:57:00	BASE	1.48	83	2.52	37	-5.8	91	-7.0	684	0	986.7	NA	0.0000		9999	1940	0	0	0
2019/11/14 13:58:00	BASE	1.52	84	2.52	37	-5.7	91	-7.0	662	0	986.7	NA	0.0000		9999	1800	0	0	0
2019/11/14 13:59:00	BASE	0.71	88	2.21	32	-5.7	91	-7.0	646	0	986.6	NA	0.0000		9999	1940	0	0	0
2019/11/14 14:00:00	BASE	0.54	102	2.11	33	-5.7	90	-7.0	673	0	986.6	NA	0.0000		9999	1900	0	0	0
2019/11/14 14:01:00	BASE	1.34	106	2.06	79	-5.6	90	-7.0	716	0	986.6	NA	0.0000		9999	1870	0	0	0
2019/11/14 14:02:00	BASE	0.84	114	2.06	79	-5.6	90	-7.0	881	0	986.6	NA	0.0000		9999	1770	0	0	0
2019/11/14 14:03:00	BASE	0.56	128	2.06	79	-5.6	90	-7.0	719	0	986.6	NA	0.0000		9999	1710	22840	0	0
2019/11/14 14:04:00	BASE	1.16	129	2.06	79	-5.6	90	-7.0	573	0	986.6	NA	0.0000		9999	1640	0	0	0
2019/11/14 14:05:00	BASE	1.23	128	2.06	79	-5.5	89	-7.0	482	0	986.5	NA	0.0000		9999	1440	5580	7350	0
2019/11/14 14:06:00	BASE	1.40	126	2.06	79	-5.5	89	-7.0	483	0	986.5	NA	0.0000		9999	5280	7480	8070	0
2019/11/14 14:07:00	BASE	1.54	129	2.06	79	-5.6	89	-7.1	590	0	986.4	NA	0.0000		9999	1870	5180	7090	0
2019/11/14 14:08:00	BASE	1.53	140	1.95	147	-5.6	89	-7.2	623	0	986.4	NA	0.0000		9999	1900	5580	6990	0
2019/11/14 14:09:00	BASE	1.72	142	2.62	115	-5.6	89	-7.2	466	0	986.4	NA	0.0000		9999	1800	0	0	0
2019/11/14 14:10:00	BASE	2.27	124	3.19	107	-5.6	88	-7.2	726	0	986.4	NA	0.0000		9999	1800	0	0	0
2019/11/14 14:11:00	BASE	2.40	109	3.19	107	-5.6	88	-7.2	626	0	986.4	NA	0.0000		9999	1710	0	0	0
2019/11/14 14:12:00	BASE	2.24	104	3.19	107	-5.6	88	-7.2	685	0	986.4	NA	0.0000		9999	1740	0	0	0
2019/11/14 14:13:00	BASE	2.11	105	3.19	107	-5.6	88	-7.2	532	0	986.4	NA	0.0000		9999	1710	5250	7090	0
2019/11/14 14:14:00	BASE	1.66	108	3.19	107	-5.6	88	-7.2	570	0	986.4	NA	0.0000		9999	2130	5280	7020	0
2019/11/14 14:15:00	BASE	1.18	105	3.19	107	-5.6	88	-7.3	687	0	986.4	NA	0.0000		9999	2430	5150	7090	0
2019/11/14 14:16:00	BASE	1.04	115	3.19	107	-5.6	88	-7.2	699	0	986.4	NA	0.0000		9999	5250	6960	0	0
2019/11/14 14:17:00	BASE	0.94	137	3.19	107	-5.5	88	-7.2	710	0	986.4	NA	0.0000		9999	5180	7350	0	0
2019/11/14 14:18:00	BASE	1.00	157	3.19	107	-5.5	88	-7.1	708	0	986.4	NA	0.0000		9999	5150	6990	7810	0
2019/11/14 14:19:00	BASE	1.57	164	3.19	107	-5.5	89	-7.0	697	0	986.4	NA	0.0000		9999	5150	6990	7910	0
2019/11/14 14:20:00	BASE	1.13	152	2.83	106	-5.4	89	-7.0	690	0	986.4	NA	0.0000		9999	5220	7280	0	0
2019/11/14 14:21:00	BASE	0.64	162	2.83	106	-5.4	89	-7.0	708	0	986.2	NA	0.0000		9999	5120	7020	8140	0
2019/11/14 14:22:00	BASE	0.41	175	2.42	110	-5.5	89	-7.0	650	0	986.4	NA	0.0000		9999	5020	6990	7680	0
2019/11/14 14:23:00	BASE	0.95	151	2.52	136	-5.5	89	-7.0	693	0	986.4	NA	0.0000		9999	5180	7020	7710	0
2019/11/14 14:24:00	BASE	1.52	141	2.52	136	-5.5	89	-7.0	644	0	986.4	NA	0.0000		9999	5150	6960	7780	0
2019/11/14 14:25:00	BASE	1.74	140	2.78	141	-5.5	89	-7.0	631	0	986.4	NA	0.0000		9999	2230	5220	6990	0
2019/11/14 14:26:00	BASE	1.52	135	2.78	141	-5.5	89	-7.0	578	0	986.4	NA	0.0000		9999	5250	6990	7710	0
2019/11/14 14:27:00	BASE	0.40	135	2.78	141	-5.4	89	-7.0	555	0	986.4	NA	0.0000		9999	5150	6990	7680	0
2019/11/14 14:28:00	BASE	0.24	139	2.78	141	-5.3	88	-6.9	626	0	986.4	NA	0.0000		9999	5090	6960	7640	0
2019/11/14 14:29:00	BASE	0.41	146	2.78	141	-5.3	88	-7.0	584	0	986.4	NA	0.0000		9999	5050	6920	7610	0
2019/11/14 14:30:00	BASE	1.40	143	2.78	139	-5.3	88	-7.0	636	0	986.5	NA	0.0000		9999	4890	6820	7640	0
2019/11/14 14:31:00	BASE	2.41	141	2.88	153	-5.2	87	-7.0	583	0	986.5	NA	0.0000		9999	4820	6920	0	0
2019/11/14 14:32:00	BASE	2.51	144	2.98	145	-5.2	87	-7.0	624	0	986.5	NA	0.0000		9999	4660	7050	0	0
2019/11/14 14:33:00	BASE	2.68	144	3.14	137	-5.3	87	-7.1	652	0	986.4	NA	0.0000		9999	4690	5410	6990	0
2019/11/14 14:34:00	BASE	2.58	141	3.14	137	-5.3	87	-7.2	636	0	986.4	NA	0.0000		9999	4790	5410	6890	0
2019/11/14 14:35:00	BASE	2.51	135	3.14	137	-5.3	86	-7.2	634	0	986.4	NA	0.0000		9999	4950	6920	0	0
2019/11/14 14:36:00	BASE	2.48	131	3.14	137	-5.3	86	-7.2	651	0	986.5	NA	0.0000		9999	4950	6920	7780	0
2019/11/14 14:37:00	BASE	2.24	131	3.14	137	-5.3	86	-7.3	638	0	986.4	NA	0.0000		9999	4950	6530	7710	0
2019/11/14 14:38:00	BASE	1.95	133	3.14	137	-5.3	86	-7.3	611	0	986.4	NA	0.0000		9999	4950	6660	7580	0
2019/11/14 14:39:00	BASE	1.47	124	3.14	137	-5.3	86	-7.2	607	0	986.4	NA	0.0000		9999	4820	6760	7550	0
2019/11/14 14:40:00	BASE	1.62	71	3.14	137	-5.2	86	-7.1	629	0	986.4	NA	0.0000		9999	4660	5450	6400	0
2019/11/14 14:41:00	BASE	1.82	29	3.14	137	-5.2	86	-7.1	619	0	986.4	NA	0.0000		9999	4720	5380	6660	0
2019/11/14 14:42:00	BASE	1.38	28	3.14	137	-5.2	86	-7.1	625	0	986.4	NA	0.0000		9999	4760	6530	7610	0
2019/11/14 14:43:00	BASE	0.91	48	2.98	134	-5.2	87	-7.1	639	0	986.3	NA	0.0000		9999	4790	6660	7580	0
2019/11/14 14:44:00	BASE	1.47	68	3.24	92	-5.1	87	-6.9	634	0	986.3	NA	0.0000		9999	4690	6530	7580	0
2019/11/14 14:45:00	BASE	1.91	78	3.24	92	-5.1	87	-6.9	593	0	986.3	NA	0.0000		9999	4820	6530	7450	0
2019/11/14 14:46:00	BASE	0.88	89	3.24	92	-5.0	87	-6.9	597	0	986.4	NA	0.0000		9999	4860	6400	7120	0
2019/11/14 14:47:00	BASE	0.11	107	3.24	92	-5.0	87	-6.9	563	0	986.4	NA	0.0000		9999	4720	6430	7090	0
2019/11/14 14:48:00	BASE	0.32	118	3.24	92	-5.0	86	-6.9	554	0	986.4	NA	0.0000		9999	4490	6430	7510	0
2019/11/14 14:49:00	BASE	1.20	110	3.24	92	-5.0	86	-7.0	548	0	986.4	NA	0.0000		9999	4360	6370	7740	0
2019/11/14 14:50:00	BASE	1.86	105	3.24	92	-5.0	85	-7.1	550	0	986.4	NA	0.0000		9999	4230	6330	7710	0
2019/11/14 14:51:00	BASE	2.03	111	3.24	92	-5.0	85	-7.1	554	0	986.4	NA	0.0000		9999	3970	5020	6270	0
2019/11/14 14:52:00	BASE	1.63	110	3.24	92	-5.0	85	-7.1	593	0	986.4	NA	0.0000		9999	4170	6270	7640	0
2019/11/14 14:53:00	BASE	1.27	118	3.24	92	-5.0	85	-7.2	625	0	986.3	NA	0.0000		9999	3940	6230	7680	0
2019/11/14 14:54:00	BASE	1.37	126	2.31	102	-5.0	84	-7.2	675	0	986.2	NA	0.0000		9999	3900	6270	7450	0
2019/11/14 14:55:00	BASE	1.39	119	2.31	102	-5.0	84	-7.3	688	0	986.4	NA	0.0000		9999	3770	5640	6790	0
2019/11/14 14:56:00	BASE	1.64	113	2.42	105	-5.0	84	-7.3	683	0	986.4	NA	0.0000		9999	3670	6170	7480	0
2019/11/14 14:57:00	BASE	2.07	107	2.57	102	-4.9	83	-7.3	646	0	986.4	NA	0.0000		9999	3870	5610	6760	0
2019/11/14 14:58:00	BASE	2.09	111	2.57	102	-4.9	83	-7.3	644	0	986.4	NA	0.0000		9999	3710	5640	24440	0
2019/11/14 14:59:00	BASE	1.82	110	2.57	102	-4.9	83	-7.3	623	0	986.4	NA	0.0000		9999	3770	5510	6070	0
2019/11/14 15:00:00	BASE	1.27	106	2.57	102	-4.8	83	-7.3	625	0	986.5	NA	0.0000		9999	3900	5450	6100	0
2019/11/14 15:01:00	BASE	1.15	107	2.57	102	-4.8	83	-7.3	605	0	986.4	NA	0.0000		9999	3870	5350	6100	0
2019/11/14 15:02:00	BASE	1.26	104	2.57	102	-4.8	83	-7.3	609	0	986.4	NA	0.0000		9999	3940	5280	6230	0
2019/11/14 15:03:00	BASE	0.51	81	2.57	102	-4.9	83	-7.3	598	0	986.4	NA	0.0000		9999	3740	5220	6270	0
2019/11/14 15:04:00	BASE	0.00	89	2.57	102	-4.8	83	-7.3	642	0	986.4	NA	0.0000		9999	3770	5150	0	0
2019/11/14 15:05:00	BASE	0.00	125	2.57	102	-4.6	83	-7.1	642	0	986.4	NA	0.0000		9999	3640	5150	0	0
2019/11/14 15:06:00	BASE	0.00	116	2.57	102	-4.6	83	-7.1	622	0	986.4	NA	0.0000		9999	3710	0	0	0
2019/11/14 15:07:00	BASE	0.00	108	2.21	109	-4.5	82	-7.1	617	0	986.4	NA	0.0000		9999	3540	4590	0	0
2019/11/14 15:08:00	BASE	0.00	64	2.21	109	-4.4	82	-7.0	610	0	986.4	NA	0.0000		9999	3450	4530	0	0
2019/11/14 15:09:00	BASE	0.80	350	2.06	313	-4.3	82	-7.0	598	0	985.5	NA	0.0000		9999	3480	4430	0	0
2019/11/14 15:10:00	BASE	1.74	344	2.11	346	-4.4	81	-7.1	601	0	986.2	NA	0.0000		9999	3450	4270	0	0
2019/11/14 15:11:00	BASE	1.60	349	2.11	346	-4.4	81	-7.1	611	0	986.4	NA	0.0000		9999	3380	5640	0	0
2019/11/14 15:12:00	BASE	0.80	327	2.11	346	-4.4	81	-7.1	621	0	986.4	NA	0.0000		9999	3310	0	0	0
2019/11/14 15:13:00	BASE	0.14	314	2.11	346	-4.4	81	-7.1	700	0	986.4	NA	0.0000		9999	3540	19550	21850	0
2019/11/14 15:14:00	BASE	0.00	316	2.11	346	-4.4	82	-7.0	743	0	983.3	NA	0.0000		9999	3670	0	0	0
2019/11/14 15:15:00	BASE	0.00	313	2.11	346	-4.4	82	-7.0	785	0	985.0	NA	0.0000		9999	3770	5840	7580	0
2019/11/14 15:16:00	BASE	0.00	296	2.11	346	-4.3	82	-6.9	756	0	986.3	NA	0.0000		9999	3770	5840	0	0
2019/11/14 15:17:00	BASE	0.00	273	2.11	346	-4.2	82	-6.8	765	0	986.3	NA	0.0000		9999	3810	0	0	0
2019/11/14 15:18:00	BASE	0.12	278	2.11	346	-4.1	82	-6.7	716	0	986.3	NA	0.0000		9999	3770	0	0	0
2019/11/14 15:19:00	BASE	0.12	295	2.11	346	-4.1	82	-6.7	678	0	986.3	NA	0.0000		9999	5150	0	0	0
2019/11/14 15:20:00	BASE	0.00	286	1.80	338	-4.1	82	-6.7	725	0	986.3	NA	0.0000		9999	5220	23750	0	0
2019/11/14 15:21:00	BASE	0.00	264	1.39	276	-4.1	82	-6.8	733	0	986.3	NA	0.0000		9999	5050	0	0	0
2019/11/14 15:22:00	BASE	0.00	238	1.39	276	-4.2	82	-6.9	738	0	986.3	NA	0.0000		9999	5020	6300	8200	0
2019/11/14 15:23:00	BASE	0.00	214	1.39	276	-4.3	82	-7.0	738	0	986.2	NA	0.0000		9999	4530	5810	8300	0
2019/11/14 15:24:00	BASE	0.00	201	1.39	276	-4.4	81	-7.1	759	0	986.2	NA	0.0000		9999	4200	5840	0	0
2019/11/14 15:25:00	BASE	0.62	187	1.75	186	-4.5	81	-7.2	761	0	986.2	NA	0.0000		9999	4040	6140	0	0
2019/11/14 15:26:00	BASE	1.45	181	1.75	172	-4.4	82	-7.1	759	0	986.2	NA	0.0000		9999	4040	6070	0	0
2019/11/14 15:27:00	BASE	2.95	178	7.51	180	-4.5	82	-7.1	758	0	984.7	NA	0.0000		9999	3940	6170	0	0
2019/11/14 15:28:00	BASE	5.86	179	7.51	179	-4.5	82	-7.2	755	0	985.6	NA	0.0000		9999	3870	7150	0	0
2019/11/14 16:11:00	BASE	0.00	151	66.21	222	-4.0	82	-6.7	557	0	M	NA	0.0000		9999	3220	4560	5250	0
2019/11/14 16:12:00	BASE	0.07	163	66.21	222	-4.1	82	-6.7	536	0	M	NA	0.0000		9999	3150	4490	5250	0
2019/11/14 16:13:00	BASE	0.75	194	7.51	203	-4.1	82	-6.7	483	0	M	NA	0.0000		9999	3310	4490	5710	0
2019/11/14 16:14:00	BASE	1.88	196	7.51	203	-4.1	82	-6.7	469	0	M	NA	0.0000		9999	3310	4400	5610	0
2019/11/14 16:15:00	BASE	2.24	188	7.51	203	-4.2	82	-6.8	465	0	M	NA	0.0000		9999	3310	5280	0	0
2019/11/14 16:16:00	BASE	1.66	161	7.51	203	-4.2	83	-6.7	478	0	M	NA	0.0000		9999	4200	5280	0	0
2019/11/14 16:17:00	BASE	1.97	157	3.24	171	-4.2	83	-6.6	503	0	M	NA	0.0000		9999	4130	0	0	0
2019/11/14 16:18:00	BASE	2.50	167	3.24	171	-4.2	84	-6.6	537	0	M	NA	0.0000		3500	4070	0	0	0
2019/11/14 16:19:00	BASE	2.36	177	3.24	171	-4.3	84	-6.6	548	0	M	NA	0.0000	HZ	0800	8530	0	0	0
2019/11/14 16:20:00	BASE	2.34	180	3.24	171	-4.2	84	-6.5	558	0	M	NA	0.0000	HZ	9999	7780	0	0	0
2019/11/14 16:21:00	BASE	2.47	180	3.45	170	-4.3	84	-6.5	576	0	M	NA	0.0000	HZ	9999	7780	0	0	0
2019/11/14 16:22:00	BASE	2.48	168	3.45	170	-4.3	84	-6.6	586	0	M	NA	0.0000	HZ	9999	4460	0	0	0
2019/11/14 16:23:00	BASE	2.41	158	3.45	170	-4.2	84	-6.5	607	0	M	NA	0.0000	HZ	9999	4490	0	0	0
2019/11/14 16:24:00	BASE	2.45	165	3.45	170	-4.2	84	-6.5	623	0	M	NA	0.0000	HZ	9999	0	0	0	8140
2019/11/14 16:25:00	BASE	2.33	174	3.45	170	-4.2	84	-6.5	636	0	M	NA	0.0000	HZ	9999	4400	22210	0	0
2019/11/14 16:26:00	BASE	2.33	174	3.45	170	-4.1	84	-6.4	656	0	M	NA	0.0000	HZ	9999	0	0	0	8100
2019/11/14 16:27:00	BASE	2.29	172	3.45	170	-4.1	84	-6.4	673	0	M	NA	0.0000	HZ	9999	3770	0	0	0
2019/11/14 16:28:00	BASE	2.23	161	3.45	170	-4.1	84	-6.4	684	0	M	NA	0.0000	HZ	9999	0	0	0	9510
2019/11/14 16:29:00	BASE	2.32	151	3.45	170	-4.1	84	-6.4	689	0	M	NA	0.0000		9999	4200	0	0	0
2019/11/14 16:30:00	BASE	2.36	156	3.45	170	-4.0	84	-6.4	696	0	M	NA	0.0000		9999	4430	0	0	0
2019/11/14 16:31:00	BASE	2.06	158	2.88	163	-4.0	84	-6.3	695	0	M	NA	0.0000		9999	4490	0	0	0
2019/11/14 16:32:00	BASE	2.02	147	2.88	163	-4.0	84	-6.3	702	0	M	NA	0.0000		9999	4460	0	0	0
2019/11/14 16:33:00	BASE	2.08	140	2.68	141	-4.0	84	-6.3	649	0	M	NA	0.0000		9999	4460	0	0	0
2019/11/14 16:34:00	BASE	2.10	145	2.68	141	-4.0	84	-6.3	647	0	M	NA	0.0000		9999	0	0	0	6690
2019/11/14 16:35:00	BASE	2.26	152	2.68	141	-4.0	84	-6.3	652	0	M	NA	0.0000		9999	0	0	0	6040
2019/11/14 16:36:00	BASE	2.37	157	2.78	170	-4.0	84	-6.3	650	0	M	NA	0.0000		9999	0	0	0	6330
2019/11/14 16:37:00	BASE	2.19	161	2.78	170	-4.0	84	-6.3	676	0	M	NA	0.0000		9999	0	0	0	6000
2019/11/14 16:38:00	BASE	2.01	162	2.78	170	-3.9	84	-6.2	686	0	M	NA	0.0000		9999	0	0	0	6040
2019/11/14 16:39:00	BASE	2.00	160	2.78	170	-3.9	84	-6.2	668	0	M	NA	0.0000		9999	0	0	0	5180
2019/11/14 16:40:00	BASE	2.10	158	2.78	170	-3.8	84	-6.2	665	0	M	NA	0.0000		9999	0	0	0	5250
2019/11/14 16:41:00	BASE	2.36	149	2.78	170	-3.8	84	-6.2	631	0	M	NA	0.0000		9999	0	0	0	5380
2019/11/14 16:42:00	BASE	2.45	144	2.78	139	-3.8	84	-6.1	637	0	M	NA	0.0000		9999	3020	0	0	0
2019/11/14 16:43:00	BASE	2.39	143	2.78	139	-3.8	84	-6.1	647	0	M	NA	0.0000	-SN	9999	0	0	0	5450
2019/11/14 16:44:00	BASE	2.19	142	2.78	139	-3.8	84	-6.1	678	0	M	NA	0.0000	-SN	9999	0	0	0	4990
2019/11/14 16:45:00	BASE	2.18	142	2.78	143	-3.8	84	-6.1	720	0	M	NA	0.0000	-SN	9999	0	0	0	5810
2019/11/14 16:46:00	BASE	2.15	147	2.78	143	-3.8	84	-6.1	752	0	M	NA	0.0000	-SN	9999	0	0	0	5450
2019/11/14 16:47:00	BASE	1.89	150	2.78	143	-3.7	84	-6.0	765	0	M	NA	0.0000	-SN	9999	0	0	0	5410
2019/11/14 16:48:00	BASE	2.00	153	2.78	143	-3.7	85	-5.9	669	0	M	NA	0.0000	-SN	9999	0	0	0	5150
2019/11/14 16:49:00	BASE	2.17	155	2.78	143	-3.7	85	-5.9	573	0	M	NA	0.0000	-SN	9999	0	0	0	5740
2019/11/14 16:50:00	BASE	2.04	158	2.78	143	-3.6	85	-5.8	561	0	M	NA	0.0000	-SN	9999	0	0	0	5150
2019/11/14 16:51:00	BASE	1.98	158	2.78	143	-3.6	85	-5.8	565	0	M	NA	0.0000	-SN	9999	0	0	0	7150
2019/11/14 16:52:00	BASE	2.05	155	2.78	143	-3.7	85	-5.9	545	0	M	NA	0.0000	-SN	9999	21100	0	0	0
2019/11/14 16:53:00	BASE	2.11	150	2.78	143	-3.8	85	-5.9	505	0	M	NA	0.0000	-SN	9999	0	0	0	6820
2019/11/14 16:54:00	BASE	2.02	146	2.78	143	-3.8	85	-6.0	494	0	M	NA	0.0000	-SN	9999	0	0	0	6100
2019/11/14 16:55:00	BASE	2.14	148	2.62	150	-3.9	85	-6.0	489	0	M	NA	0.0000	-SN	9999	0	0	0	6530
2019/11/14 16:56:00	BASE	2.35	147	2.62	143	-3.9	85	-6.0	510	0	M	NA	0.0000	-SN	9999	0	0	0	5840
2019/11/14 16:57:00	BASE	2.42	144	2.62	143	-3.9	85	-6.0	515	0	M	NA	0.0000	-SN	9999	0	0	0	5580
2019/11/14 16:58:00	BASE	2.33	145	2.62	143	-4.0	86	-6.0	505	0	M	NA	0.0000	-SN	9999	0	0	0	5640
2019/11/14 16:59:00	BASE	2.28	146	2.62	143	-4.0	86	-6.0	499	0	M	NA	0.0000	-SN	9999	0	0	0	5540
2019/11/14 17:00:00	BASE	2.23	151	2.62	143	-4.0	86	-6.0	502	0	M	NA	0.0000	-SN	9999	0	0	0	4920
2019/11/14 17:01:00	BASE	1.84	156	2.62	143	-4.0	86	-6.0	496	0	M	NA	0.0000	-SN	9999	0	0	0	5450
2019/11/14 17:02:00	BASE	1.54	155	2.62	143	-4.0	86	-6.0	482	0	M	NA	0.0000	-SN	9999	0	0	0	5050
2019/11/14 17:03:00	BASE	1.65	160	2.62	143	-4.0	86	-6.0	479	0	M	NA	0.0000	-SN	9999	0	0	0	4820
2019/11/14 17:04:00	BASE	1.40	163	2.62	143	-4.0	87	-5.9	488	0	M	NA	0.0000	-SN	9999	0	0	0	4720
2019/11/14 17:05:00	BASE	1.33	171	2.62	143	-3.9	87	-5.8	494	0	M	NA	0.0000	-SN	9999	0	0	0	4630
2019/11/14 17:06:00	BASE	1.62	183	2.62	143	-3.9	87	-5.8	491	0	M	NA	0.0000	-SN	9999	0	0	0	4490
2019/11/14 17:07:00	BASE	1.70	182	2.52	145	-3.9	87	-5.8	485	0	M	NA	0.0000	-SN	9999	0	0	0	4630
2019/11/14 17:08:00	BASE	1.75	178	2.52	145	-4.0	87	-5.8	473	0	M	NA	0.0000	-SN	9999	0	0	0	4950
2019/11/14 17:09:00	BASE	1.23	168	2.42	159	-4.0	88	-5.8	454	0	M	NA	0.0000	-SN	9999	0	0	0	4400
2019/11/14 17:10:00	BASE	0.73	164	2.16	173	-4.1	88	-5.8	442	0	M	NA	0.0000	-SN	9999	7970	23130	0	0
2019/11/14 17:11:00	BASE	1.02	176	2.16	173	-4.1	88	-5.7	437	0	M	NA	0.0000	-SN	9999	0	0	0	4300
2019/11/14 17:12:00	BASE	1.36	183	2.16	173	-4.1	89	-5.7	433	0	M	NA	0.0000	-SN	9999	0	0	0	3900
2019/11/14 17:13:00	BASE	1.46	178	2.11	187	-4.2	89	-5.7	433	0	M	NA	0.0000	-SN	9999	7870	0	0	0
2019/11/14 17:14:00	BASE	1.87	165	2.47	162	-4.2	89	-5.7	435	0	M	NA	0.0000	-SN	9999	7710	0	0	0
2019/11/14 17:15:00	BASE	2.33	152	2.73	150	-4.1	89	-5.6	432	0	M	NA	0.0000	-SN	9999	7610	0	0	0
2019/11/14 17:16:00	BASE	2.54	151	3.14	157	-4.1	90	-5.6	424	0	M	NA	0.0000	-SN	9999	7610	0	0	0
2019/11/14 17:17:00	BASE	2.89	155	3.45	152	-4.1	90	-5.5	417	0	M	NA	0.0000		9999	7610	0	0	0
2019/11/14 17:18:00	BASE	2.97	156	3.45	152	-4.0	90	-5.4	418	0	M	NA	0.0000		9999	7480	17590	0	0
2019/11/14 17:19:00	BASE	2.84	156	3.45	152	-4.0	90	-5.4	420	0	M	NA	0.0000		9999	7480	0	0	0
2019/11/14 17:20:00	BASE	3.00	155	3.45	155	-4.0	90	-5.4	421	0	M	NA	0.0000		9999	7450	0	0	0
2019/11/14 17:21:00	BASE	2.84	155	3.45	155	-4.0	90	-5.4	422	0	M	NA	0.0000	-SN	9999	7420	0	0	0
2019/11/14 17:22:00	BASE	2.71	148	3.45	155	-4.0	90	-5.4	423	0	M	NA	0.0000	-SN	9999	7420	0	0	0
2019/11/14 17:23:00	BASE	2.87	148	3.45	155	-4.1	90	-5.5	423	0	M	NA	0.0000	-SN	9999	7380	0	0	0
2019/11/14 17:24:00	BASE	2.72	155	3.45	155	-4.1	90	-5.5	421	0	M	NA	0.0000	-SN	9999	7420	0	0	0
2019/11/14 17:25:00	BASE	2.62	155	3.45	155	-4.1	90	-5.5	417	0	M	NA	0.0000	-SN	9999	7420	0	0	0
2019/11/14 17:26:00	BASE	2.75	155	3.45	155	-4.1	90	-5.5	414	0	M	NA	0.0000	-SN	9999	7450	0	0	0
2019/11/14 17:27:00	BASE	3.13	153	3.81	149	-4.1	90	-5.5	412	0	M	NA	0.0000	-SN	9999	7450	0	0	0
2019/11/14 17:28:00	BASE	3.53	150	3.91	136	-4.0	90	-5.4	415	0	M	NA	0.0000	-SN	9999	7350	0	0	0
2019/11/14 17:29:00	BASE	3.72	145	4.12	141	-4.1	90	-5.5	419	0	M	NA	0.0000	-SN	9999	7120	0	0	0
2019/11/14 17:30:00	BASE	3.76	144	4.12	141	-4.1	90	-5.5	425	0	M	NA	0.0000	-SN	9999	7250	0	0	0
2019/11/14 17:31:00	BASE	3.78	149	4.22	147	-4.2	90	-5.5	430	0	M	NA	0.0000	-SN	9999	7150	0	0	0
2019/11/14 17:32:00	BASE	3.97	148	4.32	142	-4.2	90	-5.6	431	0	M	NA	0.0000	-SN	9999	5280	7150	22410	0
2019/11/14 17:33:00	BASE	3.86	147	4.32	142	-4.2	90	-5.6	425	0	M	NA	0.0000	-SN	9999	7220	0	0	0
2019/11/14 17:34:00	BASE	3.64	150	4.32	142	-4.2	90	-5.6	417	0	M	NA	0.0000	-SN	9999	7220	0	0	0
2019/11/14 17:35:00	BASE	3.64	145	4.32	142	-4.2	90	-5.6	413	0	985.7	NA	0.0000	-SN	9999	7150	0	0	0
2019/11/14 17:36:00	BASE	3.60	142	4.32	142	-4.2	91	-5.5	410	0	985.8	NA	0.0000	-SN	9999	7190	0	0	0
2019/11/14 17:37:00	BASE	3.66	145	4.32	142	-4.2	91	-5.5	410	0	985.8	NA	0.0000	-SN	9999	7150	0	0	0
2019/11/14 17:38:00	BASE	3.76	147	4.32	142	-4.2	91	-5.5	412	0	985.8	NA	0.0000	-SN	9999	7190	0	0	0
2019/11/14 17:39:00	BASE	3.48	149	4.32	142	-4.2	91	-5.5	417	0	985.8	NA	0.0000	-SN	9999	7090	0	0	0
2019/11/14 17:40:00	BASE	3.31	151	4.32	142	-4.2	91	-5.5	419	0	985.8	NA	0.0000	-SN	9999	7050	0	0	0
2019/11/14 17:41:00	BASE	3.07	153	4.32	142	-4.2	91	-5.4	418	0	985.8	NA	0.0000	-SN	9999	7020	0	0	0
2019/11/14 17:42:00	BASE	2.76	152	4.12	146	-4.2	91	-5.4	416	0	985.8	NA	0.0000	-SN	9999	7050	0	0	0
2019/11/14 17:43:00	BASE	2.80	152	4.12	146	-4.1	91	-5.4	413	0	985.8	NA	0.0000	-SN	9999	6990	0	0	0
2019/11/14 17:44:00	BASE	2.76	155	4.12	146	-4.1	91	-5.4	409	0	985.8	NA	0.0000	-SN	9999	6990	0	0	0
2019/11/14 17:45:00	BASE	2.65	146	4.12	146	-4.1	91	-5.3	407	0	985.6	NA	0.0000		9999	6960	0	0	0
2019/11/14 17:46:00	BASE	2.60	134	4.12	146	-4.1	91	-5.2	403	0	985.9	NA	0.0000	-SN	9999	6990	0	0	0
2019/11/14 17:47:00	BASE	2.33	127	4.12	146	-4.1	92	-5.2	397	0	985.9	NA	0.0000	-SN	9999	6960	0	0	0
2019/11/14 17:48:00	BASE	2.07	122	3.60	143	-4.1	92	-5.2	396	0	985.9	NA	0.0000	-SN	9999	6890	21980	0	0
2019/11/14 17:49:00	BASE	1.91	119	3.60	143	-4.1	92	-5.2	397	0	985.9	NA	0.0000		9999	6860	0	0	0
2019/11/14 17:50:00	BASE	1.50	117	3.29	157	-4.1	92	-5.2	400	0	986.0	NA	0.0000		9999	6660	0	0	0
2019/11/14 17:51:00	BASE	0.72	109	3.29	157	-4.2	92	-5.3	403	0	986.0	NA	0.0000		9999	6860	0	0	0
2019/11/14 17:52:00	BASE	0.22	96	3.29	157	-4.2	92	-5.3	407	0	986.0	NA	0.0000		9999	6760	0	0	0
2019/11/14 17:53:00	BASE	0.52	101	2.88	146	-4.2	92	-5.3	410	0	986.0	NA	0.0000		9999	6890	0	0	0
2019/11/14 17:54:00	BASE	1.06	114	2.88	146	-4.2	92	-5.3	413	0	986.0	NA	0.0000		9999	6860	0	0	0
2019/11/14 17:55:00	BASE	0.87	113	2.78	126	-4.2	92	-5.3	414	0	986.0	NA	0.0000		9999	5840	6760	0	0
2019/11/14 17:56:00	BASE	1.01	116	2.37	128	-4.2	92	-5.3	417	0	985.9	NA	0.0000		9999	5810	6660	0	0
2019/11/14 17:57:00	BASE	1.61	123	2.21	122	-4.2	92	-5.3	417	0	985.9	NA	0.0000		9999	6660	0	0	0
2019/11/14 17:58:00	BASE	1.62	122	2.06	120	-4.2	92	-5.3	418	0	985.8	NA	0.0000		9999	5680	6560	0	0
2019/11/14 17:59:00	BASE	1.54	117	1.90	122	-4.2	92	-5.3	418	0	985.8	NA	0.0000		9999	6560	0	0	0
2019/11/14 18:00:00	BASE	1.45	110	1.90	102	-4.2	92	-5.2	418	0	985.7	NA	0.0000		9999	6530	0	0	0
2019/11/14 18:01:00	BASE	0.97	104	1.90	102	-4.2	93	-5.2	417	0	985.7	NA	0.0000		9999	5710	6500	0	0
2019/11/14 18:02:00	BASE	0.28	109	1.90	102	-4.2	93	-5.2	416	0	985.7	NA	0.0000		9999	5610	6430	0	0
2019/11/14 18:03:00	BASE	0.58	124	1.90	102	-4.1	93	-5.1	416	0	985.7	NA	0.0000		9999	5540	6330	0	0
2019/11/14 18:04:00	BASE	0.87	139	1.90	102	-4.1	93	-5.1	418	0	985.7	NA	0.0000		9999	5540	0	0	0
2019/11/14 18:05:00	BASE	1.11	136	2.01	116	-4.1	93	-5.0	420	0	985.7	NA	0.0000		9999	5540	0	0	0
2019/11/14 18:06:00	BASE	1.86	113	2.62	102	-4.0	93	-4.9	422	0	985.7	NA	0.0000		9999	5480	0	0	0
2019/11/14 18:07:00	BASE	1.65	107	2.62	102	-4.0	93	-4.9	425	0	985.7	NA	0.0000		9999	5450	0	0	0
2019/11/14 18:08:00	BASE	1.16	126	2.62	102	-4.0	93	-4.9	431	0	985.7	NA	0.0000		9999	5410	0	0	0
2019/11/14 18:09:00	BASE	1.47	131	2.62	102	-3.9	93	-4.9	437	0	985.7	NA	0.0000		9999	5380	0	0	0
2019/11/14 18:10:00	BASE	1.84	119	2.62	102	-3.9	93	-4.9	444	0	985.7	NA	0.0000		9999	5350	0	0	0
2019/11/14 18:11:00	BASE	2.26	111	2.68	102	-4.0	93	-4.9	452	0	985.7	NA	0.0000		9999	5280	20900	0	0
2019/11/14 18:12:00	BASE	2.62	105	3.19	95	-4.0	93	-4.9	461	0	985.7	NA	0.0000		9999	5250	0	0	0
2019/11/14 18:13:00	BASE	2.93	103	3.45	107	-4.0	93	-4.9	473	0	985.7	NA	0.0000		9999	5120	0	0	0
2019/11/14 18:14:00	BASE	3.31	104	3.76	106	-4.0	93	-4.9	484	0	985.6	NA	0.0000		9999	5090	0	0	0
2019/11/14 18:15:00	BASE	3.40	105	3.81	99	-4.0	93	-4.9	493	0	985.6	NA	0.0000		9999	5120	0	0	0
2019/11/14 18:16:00	BASE	3.39	102	3.81	99	-4.0	93	-4.9	495	0	985.6	NA	0.0000		9999	4490	5120	0	0
2019/11/14 18:17:00	BASE	3.52	100	3.96	99	-4.0	93	-4.9	493	0	985.7	NA	0.0000		9999	4460	5150	0	0
2019/11/14 18:18:00	BASE	3.34	98	3.96	99	-4.0	93	-4.9	489	0	985.7	NA	0.0000		9999	4490	5220	0	0
2019/11/14 18:19:00	BASE	3.06	100	3.96	99	-3.9	93	-4.9	483	0	985.7	NA	0.0000		9999	4530	5250	0	0
2019/11/14 18:20:00	BASE	2.73	109	3.96	99	-3.9	93	-4.9	478	0	985.7	NA	0.0000		9999	4490	5150	0	0
2019/11/14 18:21:00	BASE	2.54	113	3.96	99	-3.9	93	-4.8	473	0	985.6	NA	0.0000		9999	4460	5090	0	0
2019/11/14 18:22:00	BASE	2.83	114	3.96	99	-3.9	94	-4.8	467	0	985.6	NA	0.0000		9999	4460	5020	0	0
2019/11/14 18:23:00	BASE	2.65	119	3.96	99	-3.9	94	-4.7	464	0	985.6	NA	0.0000		9999	4460	4990	0	0
2019/11/14 18:24:00	BASE	2.48	115	3.96	99	-3.9	94	-4.7	463	0	985.6	NA	0.0000		9999	4430	4860	0	0
2019/11/14 18:25:00	BASE	2.52	104	3.96	99	-3.8	94	-4.7	461	0	985.6	NA	0.0000		9999	4430	4860	0	0
2019/11/14 18:26:00	BASE	2.18	96	3.96	99	-3.8	94	-4.6	460	0	985.6	NA	0.0000		9999	4400	0	0	0
2019/11/14 18:27:00	BASE	1.63	95	3.70	99	-3.8	94	-4.7	465	0	985.6	NA	0.0000		9999	4400	0	0	0
2019/11/14 18:28:00	BASE	1.58	100	3.55	108	-3.8	94	-4.7	467	0	985.6	NA	0.0000		9999	4360	0	0	0
2019/11/14 18:29:00	BASE	1.94	95	3.55	108	-3.8	93	-4.7	461	0	985.6	NA	0.0000		9999	4330	0	0	0
2019/11/14 18:30:00	BASE	2.17	89	3.55	108	-3.7	93	-4.7	459	0	985.6	NA	0.0000		9999	4430	0	0	0
2019/11/14 18:31:00	BASE	2.29	88	3.55	108	-3.7	93	-4.7	466	0	985.6	NA	0.0000		9999	4430	0	0	0
2019/11/14 18:32:00	BASE	2.24	95	3.24	110	-3.7	92	-4.8	480	0	985.6	NA	0.0000		9999	4400	0	0	0
2019/11/14 18:33:00	BASE	2.30	102	3.24	110	-3.6	92	-4.8	498	0	985.6	NA	0.0000		9999	4400	0	0	0
2019/11/14 18:34:00	BASE	2.43	100	3.55	99	-3.6	91	-4.8	509	0	985.5	NA	0.0000		9999	4300	0	0	0
2019/11/14 18:35:00	BASE	3.05	100	3.96	104	-3.6	91	-4.8	512	0	985.4	NA	0.0000		9999	4230	0	0	0
2019/11/14 18:36:00	BASE	3.46	107	3.96	104	-3.6	91	-4.8	513	0	985.4	NA	0.0000		9999	4270	21230	0	0
2019/11/14 18:37:00	BASE	2.88	114	3.96	104	-3.6	91	-4.8	506	0	985.4	NA	0.0000		9999	4230	0	0	0
2019/11/14 18:38:00	BASE	2.65	113	3.96	104	-3.6	91	-4.8	503	0	985.4	NA	0.0000		9999	4170	0	0	0
2019/11/14 18:39:00	BASE	2.51	109	3.96	104	-3.6	91	-4.8	500	0	985.3	NA	0.0000		9999	4170	0	0	0
2019/11/14 18:40:00	BASE	2.76	107	3.96	104	-3.6	92	-4.7	483	0	985.3	NA	0.0000		9999	4170	20600	0	0
2019/11/14 18:41:00	BASE	3.55	111	4.22	116	-3.5	92	-4.7	461	0	985.3	NA	0.0000		9999	4200	0	0	0
2019/11/14 18:42:00	BASE	3.64	117	4.22	116	-3.5	92	-4.6	445	0	985.2	NA	0.0000		9999	4130	0	0	0
2019/11/14 18:43:00	BASE	3.64	121	4.22	116	-3.5	92	-4.6	429	0	985.2	NA	0.0000		9999	4170	0	0	0
2019/11/14 18:44:00	BASE	3.75	123	4.42	128	-3.5	92	-4.7	408	0	985.2	NA	0.0000		9999	4200	0	0	0
2019/11/14 18:45:00	BASE	3.47	122	4.42	128	-3.6	92	-4.7	389	0	985.2	NA	0.0000		9999	4270	0	0	0
2019/11/14 18:46:00	BASE	3.29	123	4.42	128	-3.6	92	-4.7	375	0	985.2	NA	0.0000		9999	4200	0	0	0
2019/11/14 18:47:00	BASE	4.09	126	5.45	126	-3.6	92	-4.7	367	0	985.2	NA	0.0000		9999	4170	0	0	0
2019/11/14 18:48:00	BASE	4.81	125	5.61	135	-3.6	92	-4.7	365	0	985.1	NA	0.0000		9999	4130	0	0	0
2019/11/14 18:49:00	BASE	4.73	121	5.66	119	-3.6	92	-4.7	364	0	985.1	NA	0.0000		9999	4070	0	0	0
2019/11/14 18:50:00	BASE	5.00	118	6.17	111	-3.6	92	-4.8	357	0	985.1	NA	0.0000		9999	4070	0	0	0
2019/11/14 18:51:00	BASE	5.37	117	6.17	111	-3.7	92	-4.8	344	0	985.1	NA	0.0000		9999	4040	0	0	0
2019/11/14 18:52:00	BASE	5.50	118	6.17	124	-3.8	92	-4.8	334	0	985.1	NA	0.0000		9999	4070	0	0	0
2019/11/14 18:53:00	BASE	5.29	121	6.17	124	-3.8	93	-4.8	327	0	985.1	NA	0.0000		9999	3970	22510	0	0
2019/11/14 18:54:00	BASE	5.05	121	6.17	124	-3.8	93	-4.8	325	0	985.1	NA	0.0000		9999	3970	0	0	0
2019/11/14 18:55:00	BASE	5.12	122	6.17	124	-3.9	93	-4.8	328	0	985.1	NA	0.0000		9999	3940	0	0	0
2019/11/14 18:56:00	BASE	5.50	125	6.84	127	-3.9	94	-4.8	331	0	985.0	NA	0.0000		9999	3810	0	0	0
2019/11/14 18:57:00	BASE	5.97	124	7.15	126	-3.9	94	-4.7	336	0	984.9	NA	0.0000		9999	3770	0	0	0
2019/11/14 18:58:00	BASE	6.29	125	7.25	127	-3.9	94	-4.7	342	0	984.9	NA	0.0000		9999	3640	4490	0	0
2019/11/14 18:59:00	BASE	6.68	128	7.36	129	-3.9	95	-4.6	349	0	984.8	NA	0.0000		9999	3710	4230	0	0
2019/11/14 19:00:00	BASE	6.64	129	7.36	129	-3.9	95	-4.6	356	0	984.8	NA	0.0000		9999	4460	0	0	0
2019/11/14 19:01:00	BASE	6.52	129	7.97	122	-3.9	96	-4.5	355	0	984.8	NA	0.0000		9999	4530	0	0	0
2019/11/14 19:02:00	BASE	6.89	128	7.97	121	-3.9	96	-4.5	349	0	984.8	NA	0.0000		9999	4100	0	0	0
2019/11/14 19:03:00	BASE	7.13	128	8.08	126	-3.9	96	-4.5	347	0	984.8	NA	0.0000		9999	4000	21000	0	0
2019/11/14 19:04:00	BASE	7.03	125	8.08	126	-3.9	96	-4.4	349	0	984.7	NA	0.0000		9999	3840	4660	0	0
2019/11/14 19:05:00	BASE	6.86	118	8.08	126	-3.9	96	-4.4	349	0	984.8	NA	0.0000		9999	3510	0	0	0
2019/11/14 19:06:00	BASE	6.42	116	8.08	126	-4.0	97	-4.4	348	0	984.8	NA	0.0000		9999	3280	0	0	0
2019/11/14 19:07:00	BASE	6.64	125	8.08	134	-4.0	97	-4.4	349	0	984.7	NA	0.0000		9999	3050	0	0	0
2019/11/14 19:08:00	BASE	7.35	129	8.54	123	-4.0	97	-4.4	346	0	984.7	NA	0.0000		9999	3280	0	0	0
2019/11/14 19:09:00	BASE	7.04	128	8.54	123	-3.9	97	-4.3	346	0	984.7	NA	0.0000		9999	3150	21420	0	0
2019/11/14 19:10:00	BASE	6.24	125	8.54	123	-3.9	97	-4.3	351	0	984.8	NA	0.0000		9999	3280	0	0	0
2019/11/14 19:11:00	BASE	6.24	122	8.54	123	-3.9	97	-4.3	352	0	984.8	NA	0.0000		9999	3380	0	0	0
2019/11/14 19:12:00	BASE	6.49	125	8.54	123	-3.9	98	-4.2	345	0	984.8	NA	0.0000		9999	3640	0	0	0
2019/11/14 19:13:00	BASE	6.13	128	8.54	123	-3.9	98	-4.2	337	0	984.8	NA	0.0000		9999	3540	0	0	0
2019/11/14 19:14:00	BASE	6.19	132	8.54	123	-3.9	98	-4.2	327	0	984.8	NA	0.0000		9999	3580	0	0	0
2019/11/14 19:15:00	BASE	6.61	137	8.54	123	-3.9	98	-4.2	318	0	984.8	NA	0.0000		9999	3580	0	0	0
2019/11/14 19:16:00	BASE	6.81	135	8.54	123	-3.9	98	-4.2	308	0	984.8	NA	0.0000		9999	3580	0	0	0
2019/11/14 19:17:00	BASE	6.60	135	8.54	123	-3.9	98	-4.2	306	0	984.8	NA	0.0000		9999	3540	0	0	0
2019/11/14 19:18:00	BASE	6.18	138	8.08	133	-3.9	98	-4.2	314	0	984.8	NA	0.0000		9999	3480	0	0	0
2019/11/14 19:19:00	BASE	6.31	136	7.82	127	-3.9	98	-4.2	328	0	984.8	NA	0.0000		9999	3310	21330	0	0
2019/11/14 19:20:00	BASE	6.92	129	7.82	117	-3.9	98	-4.2	339	0	984.8	NA	0.0000		9999	3450	0	0	0
2019/11/14 19:21:00	BASE	7.08	123	7.82	117	-3.9	98	-4.2	348	0	984.8	NA	0.0000		9999	2690	0	0	0
2019/11/14 19:22:00	BASE	6.80	123	7.82	117	-3.9	98	-4.2	360	0	984.8	NA	0.0000		9999	2460	21590	0	0
2019/11/14 19:23:00	BASE	6.70	128	8.28	137	-4.0	98	-4.2	371	0	984.8	NA	0.0000		9999	3540	0	0	0
2019/11/14 19:24:00	BASE	6.70	130	8.54	132	-4.0	98	-4.2	371	0	984.7	NA	0.0000		9999	3580	0	0	0
2019/11/14 19:25:00	BASE	7.49	128	8.75	127	-4.0	99	-4.1	370	0	984.7	NA	0.0000		9999	3670	0	0	0
2019/11/14 19:26:00	BASE	7.99	127	8.75	127	-4.0	99	-4.1	371	0	984.7	NA	0.0000		9999	3670	0	0	0
2019/11/14 19:27:00	BASE	7.69	128	8.75	127	-4.0	99	-4.2	374	0	984.7	NA	0.0000		9999	820	0	0	0
2019/11/14 19:28:00	BASE	7.78	128	8.75	127	-4.0	99	-4.2	370	0	984.7	NA	0.0000		9999	620	0	0	0
2019/11/14 19:29:00	BASE	7.87	128	8.75	127	-4.1	98	-4.3	355	0	984.7	NA	0.0000		6000	460	0	0	0
2019/11/14 19:30:00	BASE	7.95	129	8.85	127	-4.1	98	-4.3	343	0	984.7	NA	0.0000	-SN	5000	330	0	0	0
2019/11/14 19:31:00	BASE	8.11	126	9.52	121	-4.1	98	-4.4	337	0	984.6	NA	0.0000	-SN BR	2500	21650	0	0	0
2019/11/14 19:32:00	BASE	7.49	113	9.52	102	-4.1	98	-4.4	329	0	984.6	NA	0.0000	-SN BR	1800	0	0	0	4630
2019/11/14 19:33:00	BASE	6.91	114	9.52	102	-4.1	98	-4.4	325	0	984.6	NA	0.0000	-SN BR	2800	300	0	0	0
2019/11/14 19:34:00	BASE	7.95	124	10.19	126	-4.0	98	-4.4	316	0	984.5	NA	0.0000	-SN BR	8000	300	0	0	0
2019/11/14 19:35:00	BASE	9.17	125	10.39	122	-4.0	97	-4.4	304	0	984.5	NA	0.0000	-SN BR	7000	300	0	0	0
2019/11/14 19:36:00	BASE	8.62	123	10.39	122	-4.0	97	-4.4	295	0	984.5	NA	0.0000	-SN BR	7000	0	0	0	6200
2019/11/14 19:37:00	BASE	8.38	122	10.39	122	-4.1	97	-4.5	290	0	984.3	NA	0.0000	-SN BR	9000	0	0	0	5250
2019/11/14 19:38:00	BASE	8.75	127	10.39	122	-4.1	97	-4.5	289	0	984.4	NA	0.0000	-SN BR	9999	0	0	0	5320
2019/11/14 19:39:00	BASE	7.89	127	10.39	122	-4.2	97	-4.6	287	0	984.3	NA	0.0000	-SN BR	9999	0	0	0	6040
2019/11/14 19:40:00	BASE	6.27	120	10.39	122	-4.2	97	-4.6	283	0	984.3	NA	0.0000	-SN BR	9999	0	0	0	5810
2019/11/14 19:41:00	BASE	5.71	119	10.39	122	-4.2	97	-4.5	279	0	984.4	NA	0.0000	-SN BR	6000	0	0	0	5770
2019/11/14 19:42:00	BASE	7.85	117	10.65	113	-4.2	97	-4.5	275	0	984.3	NA	0.0000	-SN BR	2400	0	0	0	5250
2019/11/14 19:43:00	BASE	10.09	113	11.88	105	-4.2	98	-4.5	269	0	984.3	NA	0.0000	-SN BR	2700	0	0	0	5380
2019/11/14 19:44:00	BASE	9.59	111	11.88	105	-4.2	98	-4.5	263	0	984.3	NA	0.0000	-SN BR	3000	22510	0	0	0
2019/11/14 19:45:00	BASE	8.58	117	11.88	105	-4.2	98	-4.4	261	0	984.3	NA	0.0000	-SN BR	3000	0	0	0	5870
2019/11/14 19:46:00	BASE	8.71	121	11.88	105	-4.2	98	-4.5	262	0	984.2	NA	0.0000	-SN BR	5000	0	0	0	5810
2019/11/14 19:47:00	BASE	8.63	119	11.88	105	-4.2	98	-4.4	264	0	984.2	NA	0.0000	-SN BR	2600	4720	0	0	0
2019/11/14 19:48:00	BASE	8.51	120	11.88	105	-4.2	98	-4.4	265	0	984.1	NA	0.0000	-SN BR	3200	0	0	0	5280
2019/11/14 19:49:00	BASE	9.35	124	11.88	105	-4.2	99	-4.3	266	0	984.1	NA	0.0000	-SN BR	3200	0	0	0	5810
2019/11/14 19:50:00	BASE	9.38	124	11.88	105	-4.1	99	-4.3	268	0	984.1	NA	0.0000	-SN BR	9999	390	0	0	0
2019/11/14 19:51:00	BASE	9.78	121	11.88	121	-4.1	99	-4.3	267	0	984.0	NA	0.0000	-SN BR	9000	0	0	0	5580
2019/11/14 19:52:00	BASE	10.38	122	11.88	121	-4.1	99	-4.3	259	0	984.0	NA	0.0000	-SN BR	8000	360	0	0	0
2019/11/14 19:53:00	BASE	9.63	126	11.88	121	-4.2	99	-4.3	247	0	984.1	NA	0.0000	-SN BR	9000	330	0	0	0
2019/11/14 19:54:00	BASE	9.18	127	11.88	121	-4.2	99	-4.3	238	0	984.1	NA	0.0000	-SN BR	9999	360	3280	0	0
2019/11/14 19:55:00	BASE	9.02	124	11.88	121	-4.2	100	-4.2	230	0	984.1	NA	0.0000	-SN BR	9000	330	0	0	0
2019/11/14 19:56:00	BASE	9.30	121	11.88	121	-4.2	100	-4.2	225	0	984.1	NA	0.0000	-SN BR	9999	360	0	0	0
2019/11/14 19:57:00	BASE	9.30	123	11.88	121	-4.2	100	-4.2	223	0	984.1	NA	0.0000	-SN BR	9999	3220	0	0	0
2019/11/14 19:58:00	BASE	8.69	124	11.88	121	-4.2	100	-4.2	225	0	984.1	NA	0.0000	-SN BR	7000	3220	0	0	0
2019/11/14 19:59:00	BASE	8.29	121	11.88	121	-4.2	100	-4.2	226	0	984.1	NA	0.0000	-SN BR	4200	2400	0	0	0
2019/11/14 20:00:00	BASE	8.27	121	11.88	121	-4.2	100	-4.2	227	0	984.1	NA	0.0000	-SN BR	9999	2430	0	0	0
2019/11/14 20:01:00	BASE	8.50	122	10.75	124	-4.2	100	-4.2	227	0	984.1	NA	0.0000	-SN BR	9999	2560	0	0	0
2019/11/14 20:02:00	BASE	8.64	124	10.39	130	-4.3	100	-4.3	229	0	984.1	NA	0.0000	-SN BR	9999	2460	0	0	0
2019/11/14 20:03:00	BASE	8.64	123	10.34	117	-4.3	100	-4.3	231	0	984.1	NA	0.0000	-SN BR	9999	2300	0	0	0
2019/11/14 20:04:00	BASE	8.63	121	10.34	117	-4.3	100	-4.3	233	0	984.1	NA	0.0000	-SN BR	9999	3180	0	0	0
2019/11/14 20:05:00	BASE	8.42	120	10.34	117	-4.3	100	-4.3	235	0	984.1	NA	0.0000	-SN BR	9999	2950	0	0	0
2019/11/14 20:06:00	BASE	8.47	119	9.77	127	-4.3	100	-4.3	236	0	984.1	NA	0.0000	-SN BR	9999	2920	0	0	0
2019/11/14 20:07:00	BASE	8.77	118	9.67	117	-4.3	100	-4.3	236	0	984.1	NA	0.0000	-SN	9999	3080	0	0	0
2019/11/14 20:08:00	BASE	8.76	119	9.67	117	-4.3	100	-4.3	236	0	984.1	NA	0.0000	-SN	9999	3080	0	0	0
2019/11/14 20:09:00	BASE	8.47	120	9.67	117	-4.3	100	-4.3	233	0	984.1	NA	0.0000	-SN	9999	2820	0	0	0
2019/11/14 20:10:00	BASE	8.96	122	10.19	128	-4.3	100	-4.3	228	0	984.1	NA	0.0000	-SN	9999	2920	0	0	0
2019/11/14 20:11:00	BASE	9.28	125	10.19	128	-4.3	100	-4.3	225	0	984.1	NA	0.0000	-SN	9999	2920	0	0	0
2019/11/14 20:12:00	BASE	9.48	122	10.60	119	-4.3	100	-4.3	226	0	984.1	NA	0.0000	-SN	9999	2890	0	0	0
2019/11/14 20:13:00	BASE	9.59	122	10.60	119	-4.3	100	-4.4	226	0	984.1	NA	0.0000	-SN	9999	2850	0	0	0
2019/11/14 20:14:00	BASE	9.08	125	10.60	119	-4.3	99	-4.4	224	0	984.0	NA	0.0000	-SN	9999	3050	0	0	0
2019/11/14 20:15:00	BASE	9.58	125	10.85	118	-4.3	99	-4.4	224	0	984.0	NA	0.0000	-SN	9999	3020	0	0	0
2019/11/14 20:16:00	BASE	10.14	125	10.85	118	-4.3	98	-4.5	224	0	984.0	NA	0.0000	-SN	9999	2990	0	0	0
2019/11/14 20:17:00	BASE	9.71	126	10.85	118	-4.3	98	-4.5	222	0	984.0	NA	0.0000	-SN	9999	2920	0	0	0
2019/11/14 20:18:00	BASE	9.88	128	10.96	127	-4.2	98	-4.5	219	0	983.9	NA	0.0000	-SN	9999	2850	0	0	0
2019/11/14 20:19:00	BASE	10.66	128	11.37	126	-4.2	98	-4.5	218	0	983.9	NA	0.0000	-SN	9999	2790	23430	0	0
2019/11/14 20:20:00	BASE	10.73	130	11.37	126	-4.2	98	-4.5	216	0	983.8	NA	0.0000	-SN	9999	2920	0	0	0
2019/11/14 20:21:00	BASE	10.28	131	11.37	126	-4.2	98	-4.5	214	0	983.7	NA	0.0000	-SN	9999	2890	0	0	0
2019/11/14 20:22:00	BASE	10.21	130	11.37	126	-4.2	98	-4.5	212	0	983.7	NA	0.0000	-SN	9999	2820	0	0	0
2019/11/14 20:23:00	BASE	10.62	132	11.52	130	-4.2	98	-4.5	211	0	983.7	NA	0.0000	-SN	9999	1640	0	0	0
2019/11/14 20:24:00	BASE	10.70	133	11.52	130	-4.2	98	-4.5	210	0	983.7	NA	0.0000	-SN	9999	2030	0	0	0
2019/11/14 20:25:00	BASE	9.69	136	11.52	130	-4.2	98	-4.5	209	0	983.7	NA	0.0000	-SN	9999	1350	0	0	0
2019/11/14 20:26:00	BASE	9.12	141	11.52	130	-4.2	98	-4.4	208	0	983.6	NA	0.0000	-SN	9999	2260	0	0	0
2019/11/14 20:27:00	BASE	9.82	139	11.52	130	-4.2	99	-4.4	207	0	983.5	NA	0.0000	-SN	9999	2130	0	0	0
2019/11/14 20:28:00	BASE	10.21	133	11.52	130	-4.2	99	-4.4	205	0	983.5	NA	0.0000	-SN	9999	2130	0	0	0
2019/11/14 20:29:00	BASE	10.46	130	11.99	128	-4.2	99	-4.4	206	0	983.5	NA	0.0000	-SN	9999	2030	0	0	0
2019/11/14 20:30:00	BASE	11.23	130	12.50	136	-4.3	99	-4.4	211	0	983.4	NA	0.0000	-SN	9999	1610	0	0	0
2019/11/14 20:31:00	BASE	11.68	131	12.50	136	-4.3	99	-4.4	219	0	983.4	NA	0.0000	-SN	9999	2200	0	0	0
2019/11/14 20:32:00	BASE	11.15	130	12.50	136	-4.3	99	-4.4	225	0	983.4	NA	0.0000	-SN	9999	1710	0	0	0
2019/11/14 20:33:00	BASE	10.98	128	12.50	136	-4.3	99	-4.4	226	0	983.3	NA	0.0000	-SN	9999	1380	0	0	0
2019/11/14 20:34:00	BASE	10.99	129	12.50	136	-4.3	99	-4.4	225	0	983.3	NA	0.0000	-SN	9999	1870	0	0	0
2019/11/14 20:35:00	BASE	10.99	130	12.50	136	-4.3	99	-4.4	223	0	983.3	NA	0.0000	-SN	9999	1940	0	0	0
2019/11/14 20:36:00	BASE	11.36	130	12.50	136	-4.3	99	-4.4	216	0	983.3	NA	0.0000	-SN	9999	2070	0	0	0
2019/11/14 20:37:00	BASE	11.15	131	12.50	136	-4.3	99	-4.4	209	0	983.3	NA	0.0000	-SN	9999	1840	2820	0	0
2019/11/14 20:38:00	BASE	10.76	132	12.50	136	-4.3	99	-4.4	204	0	983.3	NA	0.0000	-SN	9999	1510	0	0	0
2019/11/14 20:39:00	BASE	10.37	132	12.50	136	-4.3	99	-4.3	198	0	983.4	NA	0.0000	-SN	9999	1050	0	0	0
2019/11/14 20:40:00	BASE	10.13	132	12.35	132	-4.2	100	-4.3	192	0	983.4	NA	0.0000	-SN	9999	2720	0	0	0
2019/11/14 20:41:00	BASE	9.33	133	11.88	130	-4.2	100	-4.3	185	0	983.4	NA	0.0000	-SN	9999	2000	0	0	0
2019/11/14 20:42:00	BASE	8.21	135	11.88	130	-4.2	100	-4.2	178	0	983.3	NA	0.0000		9999	1770	0	0	0
2019/11/14 20:43:00	BASE	7.93	135	11.83	128	-4.2	100	-4.2	172	0	983.4	NA	0.0000		9999	1770	0	0	0
2019/11/14 20:44:00	BASE	8.23	133	11.83	128	-4.2	100	-4.2	167	0	983.5	NA	0.0000		9999	1380	0	0	0
2019/11/14 20:45:00	BASE	8.11	134	11.78	129	-4.2	100	-4.2	166	0	983.4	NA	0.0000		9999	1350	0	0	0
2019/11/14 20:46:00	BASE	7.94	138	11.27	133	-4.2	100	-4.2	169	0	983.4	NA	0.0000	-SN	9999	1410	0	0	0
2019/11/14 20:47:00	BASE	8.43	141	11.27	133	-4.2	100	-4.2	173	0	983.3	NA	0.0000		9999	1310	0	0	0
2019/11/14 20:48:00	BASE	9.12	139	10.65	132	-4.2	100	-4.2	175	0	983.2	NA	0.0000		9999	1440	0	0	0
2019/11/14 20:49:00	BASE	9.93	139	10.91	138	-4.2	100	-4.2	174	0	983.1	NA	0.0000	-SN	9999	2950	0	0	0
2019/11/14 20:50:00	BASE	10.48	139	11.99	140	-4.2	100	-4.2	173	0	983.1	NA	0.0000	-SN	9999	2950	0	0	0
2019/11/14 20:51:00	BASE	10.47	139	11.99	140	-4.2	100	-4.2	173	0	983.1	NA	0.0000	-SN	9999	3050	0	0	0
2019/11/14 20:52:00	BASE	10.49	138	11.99	140	-4.2	100	-4.2	175	0	983.0	NA	0.0000	-SN	9999	3050	0	0	0
2019/11/14 20:53:00	BASE	10.84	136	11.99	140	-4.2	100	-4.2	178	0	982.9	NA	0.0000	-SN	9999	3080	0	0	0
2019/11/14 20:54:00	BASE	11.15	135	12.04	135	-4.2	100	-4.2	181	0	982.9	NA	0.0000	-SN	9999	2990	0	0	0
2019/11/14 20:55:00	BASE	11.44	136	12.19	139	-4.2	100	-4.2	184	0	982.9	NA	0.0000	-SN	9999	2920	0	0	0
2019/11/14 20:56:00	BASE	11.10	139	12.24	140	-4.2	100	-4.2	185	0	982.8	NA	0.0000		9999	3050	4000	0	0
2019/11/14 20:57:00	BASE	10.44	141	12.24	140	-4.2	100	-4.2	185	0	982.9	NA	0.0000		9999	3220	3970	0	0
2019/11/14 20:58:00	BASE	9.94	142	12.24	140	-4.2	100	-4.2	182	0	982.9	NA	0.0000		9999	3080	0	0	0
2019/11/14 20:59:00	BASE	9.73	140	12.24	140	-4.1	100	-4.1	181	0	982.9	NA	0.0000		9999	3020	0	0	0
2019/11/14 21:00:00	BASE	9.84	136	12.24	140	-4.1	100	-4.1	180	0	982.9	NA	0.0000		9999	3050	0	0	0
2019/11/14 21:01:00	BASE	9.53	136	12.24	140	-4.1	100	-4.1	180	0	982.9	NA	0.0000		9999	2890	0	0	0
2019/11/14 21:02:00	BASE	9.00	135	12.24	140	-4.1	100	-4.1	183	0	982.9	NA	0.0000		9999	2990	0	0	0
2019/11/14 21:03:00	BASE	8.45	136	12.24	140	-4.1	100	-4.1	188	0	982.9	NA	0.0000		9999	3020	0	0	0
2019/11/14 21:04:00	BASE	8.10	139	12.24	140	-4.1	100	-4.1	195	0	982.8	NA	0.0000		9999	2990	0	0	0
2019/11/14 21:05:00	BASE	7.92	139	12.24	140	-4.1	100	-4.1	199	0	982.8	NA	0.0000		9999	3050	3970	0	0
2019/11/14 21:06:00	BASE	7.95	140	11.47	143	-4.1	100	-4.1	201	0	982.8	NA	0.0000		9999	3050	3970	0	0
2019/11/14 21:07:00	BASE	8.25	139	11.42	138	-4.1	100	-4.1	202	0	982.8	NA	0.0000		9999	3940	0	0	0
2019/11/14 21:08:00	BASE	8.52	139	11.42	138	-4.0	100	-4.0	202	0	982.8	NA	0.0000		9999	3640	0	0	0
2019/11/14 21:09:00	BASE	8.02	139	10.65	136	-4.0	100	-4.0	201	0	982.8	NA	0.0000		9999	3080	3580	0	0
2019/11/14 21:10:00	BASE	7.36	135	10.19	136	-4.0	100	-4.0	203	0	982.8	NA	0.0000		9999	3050	3670	0	0
2019/11/14 21:11:00	BASE	6.94	131	9.72	130	-4.0	100	-4.0	206	0	982.8	NA	0.0000		9999	1800	0	0	0
2019/11/14 21:12:00	BASE	6.53	129	9.67	145	-4.0	100	-4.0	208	0	982.8	NA	0.0000		9999	3120	0	0	0
2019/11/14 21:13:01	BASE	6.63	130	9.67	145	-4.0	100	-4.0	209	0	982.7	NA	0.0000		9999	3020	0	0	0
2019/11/14 21:14:01	BASE	7.13	136	9.67	145	-4.0	100	-4.0	210	0	982.6	NA	0.0000		9999	3020	3670	0	0
2019/11/14 21:15:01	BASE	8.51	140	10.19	143	-4.0	100	-4.0	212	0	982.6	NA	0.0000		9999	3020	3740	0	0
2019/11/14 21:16:01	BASE	9.12	140	10.19	143	-4.0	100	-4.0	215	0	982.6	NA	0.0000		9999	3120	0	0	0
2019/11/14 21:17:01	BASE	8.36	141	10.19	143	-4.0	100	-4.0	214	0	982.6	NA	0.0000		9999	3120	0	0	0
2019/11/14 21:18:01	BASE	8.08	142	10.19	143	-4.0	100	-4.0	214	0	982.6	NA	0.0000		9999	3080	17000	19720	0
2019/11/14 21:19:01	BASE	8.26	138	10.19	143	-4.0	100	-4.0	218	0	982.6	NA	0.0000		9999	3080	0	0	0
2019/11/14 21:20:01	BASE	8.24	135	10.19	143	-4.0	100	-4.0	225	0	982.6	NA	0.0000		9999	3120	0	0	0
2019/11/14 21:21:01	BASE	8.33	132	10.19	143	-4.0	100	-4.0	232	0	982.6	NA	0.0000		9999	3080	0	0	0
2019/11/14 21:22:01	BASE	8.39	133	10.19	143	-4.0	100	-4.0	224	0	982.6	NA	0.0000		9999	3150	0	0	0
2019/11/14 21:23:01	BASE	8.62	135	10.19	143	-3.9	100	-3.9	212	0	982.6	NA	0.0000		9999	3150	0	0	0
2019/11/14 21:24:01	BASE	8.41	136	10.19	143	-3.9	100	-3.9	203	0	982.6	NA	0.0000		9999	3150	0	0	0
2019/11/14 21:25:01	BASE	7.88	141	9.67	135	-3.9	100	-3.9	197	0	982.6	NA	0.0000		9999	3150	0	0	0
2019/11/14 21:26:01	BASE	7.22	146	9.67	135	-3.9	100	-3.9	195	0	982.6	NA	0.0000		9999	3020	0	0	0
2019/11/14 21:27:01	BASE	6.33	152	9.67	135	-3.8	100	-3.8	200	0	982.6	NA	0.0000		9999	2990	0	0	0
2019/11/14 21:28:01	BASE	6.80	156	9.67	135	-3.8	100	-3.8	212	0	982.5	NA	0.0000		9999	2990	0	0	0
2019/11/14 21:29:01	BASE	7.71	155	9.67	135	-3.7	100	-3.7	222	0	982.4	NA	0.0000		9999	3080	0	0	0
2019/11/14 21:30:01	BASE	7.36	152	9.67	135	-3.7	100	-3.7	223	0	982.4	NA	0.0000		9999	3050	0	0	0
2019/11/14 21:31:01	BASE	6.68	146	9.67	135	-3.7	100	-3.7	219	0	982.4	NA	0.0000		9999	2990	0	0	0
2019/11/14 21:32:01	BASE	6.08	127	9.67	135	-3.7	100	-3.7	209	0	982.4	NA	0.0000		9999	2990	0	0	0
2019/11/14 21:33:01	BASE	5.36	112	9.00	151	-3.7	100	-3.7	204	0	982.4	NA	0.0000		9999	2950	0	0	0
2019/11/14 21:34:01	BASE	4.60	121	9.00	151	-3.7	100	-3.7	205	0	982.4	NA	0.0000		9999	2850	22410	0	0
2019/11/14 21:35:01	BASE	4.11	128	9.00	151	-3.7	100	-3.7	211	0	982.3	NA	0.0000		9999	2920	0	0	0
2019/11/14 21:36:01	BASE	3.78	135	9.00	151	-3.7	100	-3.7	215	0	982.3	NA	0.0000		9999	2820	0	0	0
2019/11/14 21:37:01	BASE	3.96	148	9.00	151	-3.7	99	-3.8	212	0	982.3	NA	0.0000		9999	2720	0	0	0
2019/11/14 21:38:01	BASE	4.63	157	9.00	151	-3.7	99	-3.8	206	0	982.3	NA	0.0000		9999	2590	20050	0	0
2019/11/14 21:39:01	BASE	5.00	159	7.41	146	-3.7	99	-3.8	200	0	982.3	NA	0.0000		9999	2820	0	0	0
2019/11/14 21:40:01	BASE	5.58	157	7.41	146	-3.6	99	-3.8	191	0	982.3	NA	0.0000		9999	2530	0	0	0
2019/11/14 21:41:01	BASE	5.99	153	7.36	99	-3.6	99	-3.8	182	0	982.3	NA	0.0000		9999	2360	0	0	0
2019/11/14 21:42:01	BASE	6.35	149	7.15	147	-3.6	99	-3.8	178	0	982.2	NA	0.0000		9999	2100	0	0	0
2019/11/14 21:43:01	BASE	7.08	151	7.87	159	-3.6	99	-3.8	179	0	982.2	NA	0.0000		9999	2100	0	0	0
2019/11/14 21:44:01	BASE	7.31	153	7.87	159	-3.6	98	-3.9	189	0	982.2	NA	0.0000		9999	1900	0	0	0
2019/11/14 21:45:01	BASE	7.06	154	7.87	159	-3.6	98	-3.9	197	0	982.2	NA	0.0000		9999	2200	0	0	0
2019/11/14 21:46:01	BASE	7.33	154	8.18	150	-3.6	98	-3.9	200	0	982.2	NA	0.0000		9999	1940	0	0	0
2019/11/14 21:47:01	BASE	7.33	152	8.18	150	-3.7	98	-3.9	202	0	982.2	NA	0.0000		9999	2230	0	0	0
2019/11/14 21:48:01	BASE	7.15	149	8.18	150	-3.6	98	-3.9	196	0	982.2	NA	0.0000		9999	2360	0	0	0
2019/11/14 21:49:01	BASE	7.13	149	8.18	150	-3.6	98	-3.9	187	0	982.2	NA	0.0000		9999	2790	0	0	0
2019/11/14 21:50:01	BASE	7.11	149	8.18	150	-3.6	98	-3.9	178	0	982.2	NA	0.0000		9999	1840	0	0	0
2019/11/14 21:51:01	BASE	7.18	151	8.18	150	-3.6	98	-3.9	170	0	982.2	NA	0.0000		9999	920	0	0	0
2019/11/14 21:52:01	BASE	6.74	149	8.18	150	-3.6	98	-3.9	161	0	982.2	NA	0.0000		9999	2490	0	0	0
2019/11/14 21:53:01	BASE	6.36	142	8.18	150	-3.6	98	-3.9	156	0	982.1	NA	0.0000		9999	2850	0	0	0
2019/11/14 21:54:01	BASE	6.76	144	8.18	150	-3.6	98	-3.9	153	0	982.1	NA	0.0000		9999	2260	0	0	0
2019/11/14 21:55:01	BASE	7.25	152	8.18	150	-3.6	98	-3.9	154	0	982.1	NA	0.0000		9999	2330	0	0	0
2019/11/14 21:56:01	BASE	7.23	150	7.92	150	-3.6	98	-3.9	154	0	982.1	NA	0.0000		9999	2260	0	0	0
2019/11/14 21:57:01	BASE	6.70	141	7.92	150	-3.6	98	-3.9	153	0	982.1	NA	0.0000		9999	2100	0	0	0
2019/11/14 21:58:01	BASE	6.50	138	7.87	149	-3.6	98	-3.9	152	0	982.1	NA	0.0000		9999	2000	0	0	0
2019/11/14 21:59:01	BASE	6.71	143	7.87	149	-3.6	98	-3.9	152	0	982.1	NA	0.0000		9999	2200	0	0	0
2019/11/14 22:00:01	BASE	6.91	150	8.18	153	-3.6	98	-3.8	152	0	982.0	NA	0.0000		9999	2460	0	0	0
2019/11/14 22:01:01	BASE	7.82	152	8.95	152	-3.6	98	-3.8	150	0	982.0	NA	0.0000		9999	2560	0	0	0
2019/11/14 22:02:01	BASE	8.39	149	9.26	149	-3.5	98	-3.8	148	0	982.0	NA	0.0000		9999	2690	0	0	0
2019/11/14 22:03:01	BASE	7.51	142	9.26	149	-3.5	98	-3.8	145	0	982.0	NA	0.0000		9999	2200	0	0	0
2019/11/14 22:04:01	BASE	7.15	138	9.26	149	-3.5	98	-3.8	143	0	981.9	NA	0.0000		9999	2260	0	0	0
2019/11/14 22:05:01	BASE	7.69	142	9.26	149	-3.5	98	-3.8	141	0	981.8	NA	0.0000		9999	2100	0	0	0
2019/11/14 22:06:01	BASE	7.85	145	9.26	149	-3.5	98	-3.8	140	0	981.8	NA	0.0000		9999	1970	0	0	0
2019/11/14 22:07:01	BASE	7.42	144	9.26	149	-3.5	98	-3.8	138	0	981.8	NA	0.0000		9999	2460	0	0	0
2019/11/14 22:08:01	BASE	6.60	148	9.26	149	-3.5	98	-3.8	138	0	981.8	NA	0.0000		9999	2760	0	0	0
2019/11/14 22:09:01	BASE	6.35	152	9.26	149	-3.5	98	-3.7	137	0	981.8	NA	0.0000		9999	2950	0	0	0
2019/11/14 22:10:01	BASE	6.87	149	9.26	149	-3.4	98	-3.7	136	0	981.8	NA	0.0000		9999	2990	0	0	0
2019/11/14 22:11:01	BASE	7.62	146	9.26	149	-3.4	98	-3.7	136	0	981.8	NA	0.0000		9999	2990	0	0	0
2019/11/14 22:12:01	BASE	8.00	144	8.95	144	-3.4	98	-3.6	136	0	981.8	NA	0.0000		9999	3080	0	0	0
2019/11/14 22:13:01	BASE	7.70	141	8.95	144	-3.3	98	-3.6	135	0	981.8	NA	0.0000		9999	2890	0	0	0
2019/11/14 22:14:01	BASE	7.10	140	8.95	144	-3.3	98	-3.7	133	0	981.8	NA	0.0000		9999	2950	0	0	0
2019/11/14 22:15:01	BASE	6.61	138	8.95	144	-3.3	97	-3.6	129	0	981.8	NA	0.0000		9999	2990	0	0	0
2019/11/14 22:16:01	BASE	6.22	133	8.95	144	-3.3	97	-3.7	125	0	981.8	NA	0.0000		9999	2920	0	0	0
2019/11/14 22:17:01	BASE	5.98	132	8.95	144	-3.3	97	-3.7	120	0	981.9	NA	0.0000		9999	2920	0	0	0
2019/11/14 22:18:01	BASE	5.30	130	8.95	144	-3.2	97	-3.7	114	0	981.9	NA	0.0000		9999	2990	0	0	0
2019/11/14 22:19:01	BASE	4.76	129	8.95	144	-3.2	96	-3.7	108	0	982.0	NA	0.0000		9999	2990	0	0	0
2019/11/14 22:20:01	BASE	4.68	128	8.95	144	-3.2	96	-3.7	103	0	982.0	NA	0.0000		9999	2890	0	0	0
2019/11/14 22:21:01	BASE	4.28	122	8.44	142	-3.1	96	-3.7	100	0	982.0	NA	0.0000		9999	2850	0	0	0
2019/11/14 22:22:01	BASE	4.37	120	7.82	143	-3.1	96	-3.7	97	0	981.9	NA	0.0000		9999	2890	0	0	0
2019/11/14 22:23:01	BASE	5.18	130	7.51	141	-3.1	95	-3.7	95	0	981.8	NA	0.0000		9999	2890	0	0	0
2019/11/14 22:24:01	BASE	5.67	144	7.15	133	-3.0	95	-3.7	92	0	981.7	NA	0.0000		9999	2890	0	0	0
2019/11/14 22:25:01	BASE	6.11	157	7.56	163	-3.0	95	-3.8	90	0	981.6	NA	0.0000		9999	2820	0	0	0
2019/11/14 22:26:01	BASE	6.82	161	7.56	163	-3.0	94	-3.8	89	0	981.6	NA	0.0000		9999	2790	0	0	0
2019/11/14 22:27:01	BASE	7.18	154	7.87	150	-3.0	94	-3.8	86	0	981.6	NA	0.0000		9999	2760	0	0	0
2019/11/14 22:28:01	BASE	6.67	146	7.87	150	-3.0	94	-3.8	83	0	981.6	NA	0.0000		9999	2790	0	0	0
2019/11/14 22:29:01	BASE	5.44	142	7.87	150	-3.0	94	-3.8	81	0	981.6	NA	0.0000		9999	2790	0	0	0
2019/11/14 22:30:01	BASE	4.64	138	7.87	150	-3.0	94	-3.8	81	0	981.6	NA	0.0000		9999	2890	0	0	0
2019/11/14 22:31:01	BASE	5.04	138	7.87	150	-3.0	94	-3.8	81	0	981.6	NA	0.0000		9999	2820	0	0	0
2019/11/14 22:32:01	BASE	5.52	143	7.87	150	-3.0	94	-3.8	81	0	981.6	NA	0.0000		9999	2890	0	0	0
2019/11/14 22:33:01	BASE	5.71	147	7.87	150	-3.0	95	-3.7	82	0	981.6	NA	0.0000		9999	2890	0	0	0
2019/11/14 22:34:01	BASE	5.97	147	7.87	150	-2.9	95	-3.6	82	0	981.5	NA	0.0000		9999	2920	0	0	0
2019/11/14 22:35:01	BASE	6.81	147	8.18	146	-2.9	95	-3.6	81	0	981.5	NA	0.0000		9999	2990	0	0	0
2019/11/14 22:36:01	BASE	7.91	147	8.64	148	-2.9	95	-3.6	80	0	981.5	NA	0.0000		9999	2950	0	0	0
2019/11/14 22:37:01	BASE	8.46	147	9.16	144	-2.9	95	-3.6	79	0	981.4	NA	0.0000		9999	2890	0	0	0
2019/11/14 22:38:01	BASE	8.42	144	9.16	144	-2.9	95	-3.6	78	0	981.5	NA	0.0000		9999	2990	0	0	0
2019/11/14 22:39:01	BASE	8.04	141	9.16	144	-2.9	95	-3.6	77	0	981.4	NA	0.0000		9999	3050	0	0	0
2019/11/14 22:40:01	BASE	8.08	145	9.41	152	-2.9	95	-3.6	77	0	981.4	NA	0.0000		9999	3020	0	0	0
2019/11/14 22:41:01	BASE	8.48	150	9.47	154	-2.9	95	-3.6	77	0	981.4	NA	0.0000		9999	3050	0	0	0
2019/11/14 22:42:01	BASE	8.93	149	9.47	154	-2.9	95	-3.6	78	0	981.4	NA	0.0000		9999	2950	0	0	0
2019/11/14 22:43:01	BASE	8.87	139	9.98	131	-2.9	95	-3.6	77	0	981.4	NA	0.0000		9999	3020	0	0	0
2019/11/14 22:44:01	BASE	7.93	134	9.98	131	-2.9	95	-3.6	76	0	981.4	NA	0.0000		9999	3020	0	0	0
2019/11/14 22:45:01	BASE	7.56	145	9.98	131	-3.0	96	-3.6	75	0	981.4	NA	0.0000		9999	2990	0	0	0
2019/11/14 22:46:01	BASE	8.62	153	11.16	150	-3.0	96	-3.5	74	0	981.3	NA	0.0000		9999	3150	0	0	0
2019/11/14 22:47:01	BASE	10.16	154	11.21	156	-3.0	96	-3.5	73	0	981.2	NA	0.0000		9999	3020	0	0	0
2019/11/14 22:48:01	BASE	10.41	155	11.21	156	-3.0	97	-3.5	72	0	981.2	NA	0.0000		9999	3150	0	0	0
2019/11/14 22:49:01	BASE	8.93	147	11.21	156	-3.0	97	-3.5	70	0	981.2	NA	0.0000		9999	3080	0	0	0
2019/11/14 22:50:01	BASE	8.41	141	11.21	156	-3.1	97	-3.4	68	0	981.2	NA	0.0000		9999	3080	0	0	0
2019/11/14 22:51:01	BASE	9.26	149	12.55	160	-3.1	98	-3.4	66	0	981.2	NA	0.0000		9999	2990	0	0	0
2019/11/14 22:52:01	BASE	8.44	158	12.55	160	-3.1	98	-3.4	64	0	981.2	NA	0.0000		9999	3250	0	0	0
2019/11/14 22:53:01	BASE	8.12	153	12.91	167	-3.1	98	-3.3	62	0	981.2	NA	0.0000		9999	3220	0	0	0
2019/11/14 22:54:01	BASE	8.60	145	12.91	167	-3.1	99	-3.2	61	0	981.2	NA	0.0000		9999	3220	0	0	0
2019/11/14 22:55:01	BASE	8.52	147	12.91	167	-3.0	99	-3.1	61	0	981.0	NA	0.0000		9999	3220	0	0	0
2019/11/14 22:56:01	BASE	8.35	160	12.91	167	-3.0	100	-3.1	61	0	981.0	NA	0.0000		9999	3310	0	0	0
2019/11/14 22:57:01	BASE	8.23	161	12.91	167	-3.0	100	-3.0	60	0	981.0	NA	0.0000		9999	3220	0	0	0
2019/11/14 22:58:01	BASE	8.47	150	12.91	167	-3.0	100	-3.0	58	0	981.0	NA	0.0000		9999	3050	0	0	0
2019/11/14 22:59:01	BASE	8.99	139	12.91	167	-3.0	100	-3.0	56	0	981.2	NA	0.0000		9999	3220	0	0	0
2019/11/14 23:00:01	BASE	9.44	141	12.91	167	-3.0	100	-3.0	55	0	981.1	NA	0.0000		9999	3280	0	0	0
2019/11/14 23:01:01	BASE	9.53	155	12.91	167	-3.0	100	-3.0	53	0	980.9	NA	0.0000		9999	3280	0	0	0
2019/11/14 23:02:01	BASE	9.01	161	12.91	167	-3.0	100	-3.0	52	0	980.9	NA	0.0000		9999	3150	0	0	0
2019/11/14 23:03:01	BASE	8.39	163	10.96	165	-3.0	100	-3.0	50	0	980.9	NA	0.0000		9999	3120	0	0	0
2019/11/14 23:04:01	BASE	10.95	159	14.61	153	-3.0	100	-3.0	48	0	980.9	NA	0.0000		9999	3050	0	0	0
2019/11/14 23:05:01	BASE	11.87	142	14.61	153	-3.0	100	-3.0	46	0	981.0	NA	0.0000		9999	3080	0	0	0
2019/11/14 23:06:01	BASE	8.99	134	14.61	153	-3.0	100	-3.0	44	0	981.1	NA	0.0000		9999	3150	0	0	0
2019/11/14 23:07:01	BASE	8.62	145	14.61	153	-3.0	100	-3.0	42	0	980.9	NA	0.0000		9999	3120	0	0	0
2019/11/14 23:08:01	BASE	11.08	149	14.61	153	-2.9	100	-2.9	40	0	980.9	NA	0.0000		9999	3050	0	0	0
2019/11/14 23:09:01	BASE	11.76	141	14.61	153	-3.0	100	-3.0	38	0	981.0	NA	0.0000		9999	2990	0	0	0
2019/11/14 23:10:01	BASE	10.18	141	14.61	153	-3.0	100	-3.0	36	0	981.0	NA	0.0000		9999	2990	0	0	0
2019/11/14 23:11:01	BASE	8.42	142	14.61	153	-3.0	100	-3.0	34	0	980.9	NA	0.0000		9999	2820	0	0	0
2019/11/14 23:12:01	BASE	8.36	143	14.61	153	-3.0	100	-3.0	33	0	980.8	NA	0.0000		9999	2850	0	0	0
2019/11/14 23:13:01	BASE	7.61	142	14.61	153	-2.9	100	-2.9	31	0	980.9	NA	0.0000		9999	2720	0	0	0
2019/11/14 23:14:01	BASE	7.36	127	13.74	150	-2.8	100	-2.8	30	0	980.9	NA	0.0000		9999	2820	0	0	0
2019/11/14 23:15:01	BASE	9.53	124	13.74	150	-2.7	100	-2.7	29	0	980.8	NA	0.0000		9999	2820	0	0	0
2019/11/14 23:16:01	BASE	11.10	137	13.74	150	-2.7	100	-2.7	28	0	980.7	NA	0.0000		9999	2790	0	0	0
2019/11/14 23:17:01	BASE	10.81	144	13.74	123	-2.6	100	-2.6	27	0	980.7	NA	0.0000		9999	2660	0	0	0
2019/11/14 23:18:01	BASE	7.73	140	13.74	123	-2.3	100	-2.4	27	0	980.8	NA	0.0000		9999	2590	0	0	0
2019/11/14 23:19:01	BASE	7.42	144	13.74	123	-2.2	99	-2.3	26	0	980.8	NA	0.0000		9999	2760	0	0	0
2019/11/14 23:20:01	BASE	8.00	155	13.74	123	-2.2	98	-2.4	26	0	980.8	NA	0.0000		9999	2690	0	0	0
2019/11/14 23:21:01	BASE	6.11	172	13.74	123	-2.1	98	-2.4	25	0	980.8	NA	0.0000		9999	2690	0	0	0
2019/11/14 23:22:01	BASE	4.54	195	13.74	123	-2.1	98	-2.4	25	0	980.8	NA	0.0000		9000	2260	2790	0	0
2019/11/14 23:23:01	BASE	3.67	214	13.74	123	-2.3	97	-2.7	25	0	980.7	NA	0.0000	UP	8000	2300	2820	0	0
2019/11/14 23:24:01	BASE	4.71	184	13.74	123	-2.3	97	-2.7	24	0	980.7	NA	0.0000	UP	7000	2400	0	0	0
2019/11/14 23:25:01	BASE	8.15	146	13.74	123	-2.3	97	-2.7	24	0	980.6	NA	0.0000	UP	7000	2660	0	0	0
2019/11/14 23:26:01	BASE	10.29	138	13.74	123	-2.3	97	-2.7	24	0	980.6	NA	0.0000	UP	9999	2300	2760	0	0
2019/11/14 23:27:01	BASE	8.63	143	12.45	132	-2.3	97	-2.8	24	0	980.7	NA	0.0000	UP	9999	2130	2850	0	0
2019/11/14 23:28:01	BASE	6.45	146	12.45	132	-2.4	97	-2.9	24	0	980.7	NA	0.0000	UP	9999	2720	0	0	0
2019/11/14 23:29:01	BASE	5.65	159	12.45	132	-2.5	97	-3.0	23	0	980.6	NA	0.0000	UP	9999	3020	0	0	0
2019/11/14 23:30:01	BASE	6.13	180	12.45	132	-2.5	97	-2.9	23	0	980.5	NA	0.0000	UP	9999	2820	0	0	0
2019/11/14 23:31:01	BASE	6.35	165	12.45	132	-2.5	98	-2.8	22	0	980.6	NA	0.0000	UP BR	9999	3020	0	0	0
2019/11/14 23:32:01	BASE	7.35	148	12.45	132	-2.4	98	-2.7	23	0	980.5	NA	0.0000	UP	9999	2890	0	0	0
2019/11/14 23:33:01	BASE	8.18	159	12.45	132	-2.4	98	-2.7	22	0	980.4	NA	0.0000	UP	9999	2720	0	0	0
2019/11/14 23:34:01	BASE	8.82	156	12.45	132	-2.4	98	-2.6	22	0	980.4	NA	0.0000	UP	9999	2690	3380	0	0
2019/11/14 23:35:01	BASE	11.35	149	15.74	138	-2.5	98	-2.7	21	0	980.2	NA	0.0000	UP	9999	2170	3310	0	0
2019/11/14 23:36:01	BASE	11.36	144	15.74	138	-2.5	98	-2.8	21	0	980.4	NA	0.0000	UP	9999	2130	2820	0	0
2019/11/14 23:37:01	BASE	9.31	135	15.74	138	-2.5	98	-2.8	20	0	980.4	NA	0.0000	UP	9999	2000	2560	0	0
2019/11/14 23:38:01	BASE	9.49	135	15.74	138	-2.5	98	-2.7	20	0	980.4	NA	0.0000	UP	9999	2170	0	0	0
2019/11/14 23:39:01	BASE	9.34	125	15.74	138	-2.4	98	-2.7	20	0	980.4	NA	0.0000	UP	9999	1940	2590	0	0
2019/11/14 23:40:01	BASE	9.72	110	15.74	138	-2.4	99	-2.6	20	0	980.4	NA	0.0000	UP	9999	2030	0	0	0
2019/11/14 23:41:01	BASE	11.57	115	15.74	138	-2.4	99	-2.5	20	0	980.4	NA	0.0000	UP	9999	2230	2720	0	0
2019/11/14 23:42:01	BASE	11.15	129	15.74	138	-2.4	99	-2.5	20	0	980.4	NA	0.0000	UP	9999	1970	2790	0	0
2019/11/14 23:43:01	BASE	9.51	135	15.74	138	-2.4	98	-2.6	20	0	980.4	NA	0.0000	UP	9999	1940	2790	0	0
2019/11/14 23:44:01	BASE	9.16	128	15.74	138	-2.4	98	-2.7	19	0	980.5	NA	0.0000	UP	9999	1970	2890	0	0
2019/11/14 23:45:01	BASE	10.08	126	13.74	129	-2.5	98	-2.8	19	0	980.4	NA	0.0000	UP	9999	2100	2790	0	0
2019/11/14 23:46:01	BASE	11.46	133	13.74	129	-2.5	98	-2.8	18	0	980.2	NA	0.0000	UP	9999	2850	0	0	0
2019/11/14 23:47:01	BASE	12.00	136	13.74	129	-2.5	98	-2.8	18	0	980.2	NA	0.0000	UP	9999	2820	0	0	0
2019/11/14 23:48:01	BASE	10.71	137	13.74	129	-2.5	98	-2.8	17	0	980.3	NA	0.0000	UP	9999	2920	0	0	0
2019/11/14 23:49:01	BASE	8.83	136	13.74	129	-2.5	98	-2.7	16	0	980.5	NA	0.0000	UP	9999	2030	0	0	0
2019/11/14 23:50:01	BASE	7.41	134	13.74	129	-2.4	98	-2.7	16	0	980.6	NA	0.0000	UP	9999	2130	0	0	0
2019/11/14 23:51:01	BASE	6.32	128	13.74	129	-2.4	98	-2.7	15	0	980.5	NA	0.0000	UP	9999	2000	2720	0	0
2019/11/14 23:52:01	BASE	6.16	126	13.74	129	-2.4	98	-2.6	15	0	980.4	NA	0.0000	UP	9999	2100	2820	0	0
2019/11/14 23:53:01	BASE	5.87	133	13.74	129	-2.2	98	-2.5	14	0	980.4	NA	0.0000	UP	9999	2430	2950	0	0
2019/11/14 23:54:01	BASE	5.50	144	13.74	129	-2.1	98	-2.4	13	0	980.3	NA	0.0000	UP	9999	2850	0	0	0
2019/11/14 23:55:01	BASE	4.56	172	13.63	138	-1.9	98	-2.1	13	0	980.3	NA	0.0000	UP	9999	1670	0	0	0
2019/11/14 23:56:01	BASE	4.52	187	13.63	138	-1.6	98	-1.8	13	0	980.3	NA	0.0000	UP	9999	2490	0	0	0
2019/11/14 23:57:01	BASE	8.11	150	12.71	117	-1.4	98	-1.7	13	0	980.2	NA	0.0000	UP	9999	2460	0	0	0
2019/11/14 23:58:01	BASE	9.58	129	12.71	117	-1.3	97	-1.7	12	0	980.2	NA	0.0000	UP	9999	1940	0	0	0
2019/11/14 23:59:01	BASE	9.49	120	12.71	117	-1.1	96	-1.7	12	0	980.1	NA	0.0000	UP	9999	2760	0	0	0